[[{"header":{"parameterUnit":"m.s-1","parameterCategory":1,"la1":31.0,"la2":29.5877,"lo1":-88.7671,"lo2":-86.6584,"dy":0.0162,"dx":0.0185,"nx":115,"ny":88,"refTime":"2023-04-08T12:00:00:Z","depth":0,"parameterNumber":2,"parameterNumberName":"U-component_of_WINDS"},"data":[0.0,0.0,0.0,0.0,0.0,0.0,0.0,0.0,0.0,0.0,0.0,0.0,0.0,0.0,0.0,0.0,0.0,0.0,0.0,0.0,0.0,0.0,0.0,0.0,0.0,0.0,0.0,0.0,0.0,0.0,0.0,0.0,0.0,0.0,0.0,0.0,0.0,0.0,0.0,0.0,0.0,0.0,0.0,0.0,0.0,0.0,0.0,0.0,0.0,0.0,0.0,0.0,0.0,0.0,0.0,0.0,0.0,0.0,0.0,0.0,0.0,0.0,0.0,0.0,0.0,0.0,0.0,0.0,0.0,0.0,0.0,0.0,0.0,0.0,0.0,0.0,0.0,0.0,0.0,0.0,0.0,0.0,0.0,0.0,0.0,0.0,0.0,0.0,0.0,0.0,0.0,0.0,0.0,0.0,0.0,0.0,0.0,0.0,0.0,0.0,0.0,0.0,0.0,0.0,0.0,0.0,0.0,0.0,0.0,0.0,0.0,0.0,0.0,0.0,0.0,0.0,0.0,0.0,0.0,0.0,0.0,0.0,0.0,0.0,0.0,0.0,0.0,0.0,0.0,0.0,0.0,0.0,0.0,0.0,0.0,0.0,0.0,0.0,0.0,0.0,0.0,0.0,0.0,0.0,0.0,0.0,0.0,0.0,0.0,0.0,0.0,0.0,0.0,0.0,0.0,0.0,0.0,0.0,0.0,0.0,0.0,0.0,0.0,0.0,0.0,0.0,0.0,0.0,0.0,0.0,0.0,0.0,0.0,0.0,0.0,0.0,0.0,0.0,0.0,0.0,0.0,0.0,0.0,0.0,0.0,0.0,0.0,0.0,0.0,0.0,0.0,0.0,0.0,0.0,0.0,0.0,0.0,0.0,0.0,0.0,0.0,0.0,0.0,0.0,0.0,0.0,0.0,0.0,0.0,0.0,0.0,0.0,0.0,0.0,0.0,0.0,0.0,0.0,0.0,0.0,0.0,0.0,0.0,0.0,0.0,0.0,0.0,0.0,0.0,0.0,0.0,0.0,0.0,0.0,0.0,0.0,0.0,0.0,0.0,0.0,0.0,0.0,0.0,0.0,0.0,0.0,0.0,0.0,0.0,0.0,0.0,0.0,0.0,0.0,0.0,0.0,0.0,0.0,0.0,0.0,0.0,0.0,0.0,0.0,0.0,0.0,0.0,0.0,0.0,0.0,0.0,0.0,0.0,0.0,0.0,0.0,0.0,0.0,0.0,0.0,0.0,0.0,0.0,0.0,0.0,0.0,0.0,0.0,0.0,0.0,0.0,0.0,0.0,0.0,0.0,0.0,0.0,0.0,0.0,0.0,0.0,0.0,0.0,0.0,0.0,0.0,0.0,0.0,0.0,0.0,0.0,0.0,0.0,0.0,0.0,0.0,0.0,0.0,0.0,0.0,0.0,0.0,0.0,0.0,0.0,0.0,0.0,0.0,0.0,0.0,0.0,0.0,0.0,0.0,0.0,0.0,0.0,0.0,0.0,0.0,0.0,0.0,0.0,0.0,0.0,0.0,0.0,0.0,0.0,0.0,0.0,0.0,0.0,0.0,0.0,0.0,0.0,0.0,0.0,0.0,0.0,0.0,0.0,0.0,0.0,0.0,0.0,0.0,0.0,0.0,0.0,0.0,0.0,0.0,0.0,0.0,0.0,0.0,0.0,0.0,0.0,0.0,0.0,0.0,0.0,0.0,0.0,0.0,0.0,0.0,0.0,0.0,0.0,0.0,0.0,0.0,0.0,0.0,0.0,0.0,0.0,0.0,0.0,0.0,0.0,0.0,0.0,0.0,0.0,0.0,0.0,0.0,0.0,0.0,0.0,0.0,0.0,0.0,0.0,0.0,0.0,0.0,0.0,0.0,0.0,0.0,0.0,0.0,0.0,0.0,0.0,0.0,0.0,0.0,0.0,0.0,0.0,0.0,0.0,0.0,0.0,0.0,0.0,0.0,0.0,0.0,0.0,0.0,0.0,0.0,0.0,0.0,0.0,0.0,0.0,0.0,0.0,0.0,0.0,0.0,0.0,0.0,0.0,0.0,0.0,0.0,0.0,0.0,0.0,0.0,0.0,0.0,0.0,0.0,0.0,0.0,0.0,0.0,0.0,0.0,0.0,0.0,0.0,0.0,0.0,0.0,0.0,0.0,0.0,0.0,0.0,0.0,0.0,0.0,0.0,0.0,0.0,0.0,0.0,0.0,0.0,0.0,0.0,0.0,0.0,0.0,0.0,0.0,0.0,0.0,0.0,0.0,0.0,0.0,0.0,0.0,0.0,0.0,0.0,0.0,0.0,0.0,0.0,0.0,0.0,0.0,0.0,0.0,0.0,0.0,0.0,0.0,0.0,0.0,0.0,0.0,0.0,0.0,0.0,0.0,0.0,0.0,0.0,0.0,0.0,0.0,0.0,0.0,0.0,0.0,0.0,0.0,0.0,0.0,0.0,0.0,0.0,0.0,0.0,0.0,0.0,0.0,0.0,0.0,0.0,0.0,0.0,0.0,0.0,0.0,0.0,0.0,0.0,0.0,0.0,0.0,0.0,0.0,0.0,0.0,0.0,0.0,0.0,0.0,0.0,0.0,0.0,0.0,0.0,0.0,0.0,0.0,0.0,0.0,0.0,0.0,0.0,0.0,0.0,0.0,0.0,0.0,0.0,0.0,0.0,0.0,0.0,0.0,0.0,0.0,0.0,0.0,0.0,0.0,0.0,0.0,0.0,0.0,0.0,0.0,0.0,0.0,0.0,0.0,0.0,0.0,0.0,0.0,0.0,0.0,0.0,0.0,0.0,0.0,0.0,0.0,0.0,0.0,0.0,0.0,0.0,0.0,0.0,0.0,0.0,0.0,0.0,0.0,0.0,0.0,0.0,0.0,0.0,0.0,0.0,0.0,0.0,0.0,0.0,0.0,0.0,0.0,0.0,0.0,0.0,0.0,0.0,0.0,0.0,0.0,0.0,0.0,0.0,0.0,0.0,0.0,0.0,0.0,0.0,0.0,0.0,0.0,0.0,0.0,0.0,0.0,0.0,0.0,0.0,0.0,0.0,0.0,0.0,0.0,0.0,0.0,0.0,0.0,0.0,0.0,0.0,0.0,0.0,0.0,0.0,0.0,0.0,0.0,0.0,0.0,0.0,0.0,0.0,0.0,0.0,0.0,0.0,0.0,0.0,0.0,0.0,0.0,0.0,0.0,0.0,0.0,0.0,0.0,0.0,0.0,0.0,0.0,0.0,0.0,0.0,0.0,0.0,0.0,0.0,0.0,0.0,0.0,0.0,0.0,0.0,0.0,0.0,0.0,0.0,0.0,0.0,0.0,0.0,0.0,0.0,0.0,0.0,0.0,0.0,0.0,0.0,0.0,0.0,0.0,0.0,0.0,0.0,0.0,0.0,0.0,0.0,0.0,0.0,0.0,0.0,0.0,0.0,0.0,0.0,0.0,0.0,0.0,0.0,0.0,0.0,0.0,0.0,0.0,0.0,0.0,0.0,0.0,0.0,0.0,0.0,0.0,0.0,0.0,0.0,0.0,0.0,0.0,0.0,0.0,0.0,0.0,0.0,0.0,0.0,0.0,0.0,0.0,0.0,0.0,0.0,0.0,0.0,0.0,0.0,0.0,0.0,0.0,0.0,0.0,0.0,0.0,0.0,0.0,0.0,0.0,0.0,0.0,0.0,0.0,0.0,0.0,0.0,0.0,0.0,0.0,0.0,0.0,0.0,0.0,0.0,0.0,0.0,0.0,0.0,0.0,0.0,0.0,0.0,0.0,0.0,0.0,0.0,0.0,0.0,0.0,0.0,0.0,0.0,0.0,0.0,0.0,0.0,0.0,0.0,0.0,0.0,0.0,0.0,0.0,0.0,0.0,0.0,0.0,0.0,0.0,0.0,0.0,0.0,0.0,0.0,0.0,0.0,0.0,0.0,0.0,0.0,0.0,0.0,0.0,0.0,0.0,0.0,0.0,0.0,0.0,0.0,0.0,0.0,0.0,0.0,0.0,0.0,0.0,0.0,0.0,0.0,0.0,0.0,0.0,0.0,0.0,0.0,0.0,0.0,0.0,0.0,0.0,0.0,0.0,0.0,0.0,0.0,0.0,0.0,0.0,0.0,0.0,0.0,0.0,0.0,0.0,0.0,0.0,0.0,0.0,0.0,0.0,0.0,0.0,0.0,0.0,0.0,0.0,0.0,0.0,0.0,0.0,0.0,0.0,0.0,0.0,0.0,0.0,0.0,0.0,0.0,0.0,1.8358,0.0,0.0,0.0,1.7793,0.0,0.0,0.0,0.0,0.0,0.0,0.0,0.0,0.0,0.0,0.0,0.0,0.0,0.0,0.0,0.0,0.0,0.0,0.0,0.0,0.0,0.0,0.0,0.0,0.0,0.0,0.0,0.0,0.0,0.0,0.0,0.0,0.0,0.0,0.0,0.0,0.0,0.0,0.0,0.0,0.0,0.0,0.0,0.0,0.0,0.0,0.0,0.0,0.0,0.0,0.0,0.0,0.0,0.0,0.0,0.0,0.0,0.0,0.0,0.0,0.0,0.0,0.0,0.0,0.0,0.0,0.0,0.0,0.0,0.0,0.0,0.0,0.0,0.0,0.0,0.0,0.0,0.0,0.0,0.0,0.0,0.0,0.0,0.0,0.0,0.0,0.0,0.0,0.0,0.0,0.0,0.0,0.0,0.0,0.0,0.0,0.0,0.0,0.0,0.0,0.0,0.0,0.0,0.0,0.0,0.0,0.0,0.0,0.0,0.0,1.8148,1.8016,1.8122,1.8069,1.7832,0.0,0.0,0.0,0.0,0.0,0.0,0.0,0.0,0.0,0.0,0.0,0.0,0.0,0.0,0.0,0.0,0.0,0.0,0.0,0.0,0.0,0.0,0.0,0.0,0.0,0.0,0.0,0.0,0.0,0.0,0.0,0.0,0.0,0.0,0.0,0.0,0.0,0.0,0.0,0.0,0.0,0.0,0.0,0.0,0.0,0.0,0.0,0.0,0.0,0.0,0.0,0.0,0.0,0.0,0.0,0.0,0.0,0.0,0.0,0.0,0.0,0.0,0.0,0.0,0.0,0.0,0.0,0.0,0.0,0.0,0.0,0.0,0.0,0.0,0.0,0.0,0.0,0.0,0.0,0.0,0.0,0.0,0.0,0.0,0.0,0.0,0.0,0.0,0.0,0.0,0.0,0.0,0.0,0.0,0.0,0.0,0.0,0.0,0.0,0.0,0.0,0.0,0.0,0.0,0.0,0.0,0.0,0.0,0.0,0.0,0.0,0.0,1.8142,1.8115,1.8089,0.0,0.0,0.0,0.0,0.0,0.0,0.0,0.0,0.0,0.0,0.0,0.0,0.0,0.0,0.0,0.0,0.0,0.0,0.0,0.0,0.0,0.0,0.0,0.0,0.0,0.0,0.0,0.0,0.0,0.0,0.0,0.0,0.0,0.0,0.0,0.0,0.0,0.0,0.0,0.0,0.0,0.0,0.0,0.0,0.0,0.0,0.0,0.0,0.0,0.0,0.0,0.0,0.0,0.0,0.0,0.0,0.0,0.0,0.0,0.0,0.0,0.0,0.0,0.0,0.0,0.0,0.0,0.0,0.0,0.0,0.0,0.0,0.0,0.0,0.0,0.0,0.0,0.0,0.0,0.0,0.0,0.0,0.0,0.0,0.0,0.0,0.0,0.0,0.0,0.0,0.0,0.0,0.0,0.0,0.0,0.0,0.0,0.0,0.0,0.0,0.0,0.0,0.0,0.0,0.0,0.0,0.0,0.0,0.0,0.0,1.8576,1.881,1.8562,0.0,1.8411,0.0,0.0,0.0,0.0,0.0,0.0,0.0,0.0,0.0,0.0,0.0,0.0,0.0,0.0,0.0,0.0,0.0,0.0,0.0,0.0,0.0,0.0,0.0,0.0,0.0,0.0,0.0,0.0,0.0,0.0,0.0,0.0,0.0,0.0,0.0,0.0,0.0,0.0,0.0,0.0,0.0,0.0,0.0,0.0,0.0,0.0,0.0,0.0,0.0,0.0,0.0,0.0,0.0,0.0,0.0,0.0,0.0,0.0,0.0,0.0,0.0,0.0,0.0,0.0,0.0,0.0,0.0,0.0,0.0,0.0,0.0,0.0,0.0,0.0,0.0,0.0,0.0,0.0,0.0,0.0,0.0,0.0,0.0,0.0,0.0,0.0,0.0,0.0,0.0,0.0,0.0,0.0,0.0,0.0,0.0,0.0,0.0,0.0,0.0,0.0,0.0,0.0,0.0,0.0,0.0,0.0,0.0,0.0,0.0,0.0,1.8331,1.8643,1.8546,1.849,0.0,0.0,0.0,0.0,0.0,0.0,0.0,0.0,0.0,0.0,0.0,0.0,0.0,0.0,0.0,0.0,0.0,0.0,0.0,0.0,0.0,0.0,0.0,0.0,0.0,0.0,0.0,0.0,0.0,0.0,0.0,0.0,0.0,0.0,0.0,0.0,0.0,0.0,0.0,0.0,0.0,0.0,0.0,0.0,0.0,0.0,0.0,0.0,0.0,0.0,0.0,0.0,0.0,0.0,0.0,0.0,0.0,0.0,0.0,0.0,0.0,0.0,0.0,0.0,0.0,0.0,0.0,0.0,0.0,0.0,0.0,0.0,0.0,0.0,0.0,0.0,0.0,0.0,0.0,0.0,0.0,0.0,0.0,0.0,0.0,0.0,0.0,0.0,0.0,0.0,0.0,0.0,0.0,0.0,0.0,0.0,0.0,0.0,0.0,0.0,0.0,0.0,0.0,0.0,0.0,0.0,0.0,0.0,0.0,0.0,1.8545,1.8517,1.8746,1.8571,1.8598,1.8759,0.0,0.0,0.0,0.0,0.0,0.0,0.0,0.0,0.0,0.0,0.0,0.0,0.0,0.0,0.0,0.0,0.0,0.0,0.0,0.0,0.0,0.0,0.0,0.0,0.0,0.0,0.0,0.0,0.0,0.0,0.0,0.0,0.0,0.0,0.0,0.0,0.0,0.0,0.0,0.0,0.0,0.0,0.0,0.0,0.0,0.0,0.0,0.0,0.0,0.0,0.0,0.0,0.0,0.0,0.0,0.0,0.0,0.0,0.0,0.0,0.0,0.0,0.0,0.0,0.0,0.0,0.0,0.0,0.0,0.0,0.0,0.0,0.0,0.0,0.0,0.0,0.0,0.0,0.0,0.0,0.0,0.0,0.0,0.0,0.0,0.0,0.0,0.0,0.0,0.0,0.0,0.0,0.0,0.0,0.0,0.0,0.0,0.0,0.0,0.0,0.0,0.0,0.0,0.0,0.0,0.0,0.0,0.0,1.9683,1.9479,1.9334,1.9321,1.8812,1.8758,0.0,0.0,0.0,0.0,0.0,0.0,0.0,0.0,0.0,0.0,0.0,0.0,0.0,0.0,0.0,0.0,0.0,0.0,0.0,0.0,0.0,0.0,0.0,0.0,0.0,0.0,0.0,0.0,0.0,0.0,0.0,0.0,0.0,0.0,0.0,0.0,0.0,0.0,0.0,0.0,0.0,0.0,0.0,0.0,0.0,0.0,0.0,0.0,0.0,0.0,0.0,0.0,0.0,0.0,0.0,0.0,0.0,0.0,0.0,0.0,0.0,0.0,0.0,0.0,0.0,0.0,0.0,0.0,0.0,0.0,0.0,0.0,0.0,0.0,0.0,0.0,0.0,0.0,0.0,0.0,0.0,0.0,0.0,0.0,0.0,0.0,0.0,0.0,0.0,0.0,0.0,0.0,0.0,0.0,0.0,0.0,0.0,0.0,0.0,0.0,0.0,0.0,0.0,0.0,0.0,0.0,0.0,0.0,0.0,1.9506,1.9446,1.9308,1.9092,1.8878,1.8958,0.0,0.0,0.0,0.0,0.0,0.0,0.0,0.0,0.0,0.0,0.0,0.0,0.0,0.0,0.0,0.0,0.0,0.0,0.0,0.0,0.0,0.0,0.0,0.0,0.0,0.0,0.0,0.0,0.0,0.0,0.0,0.0,0.0,0.0,0.0,0.0,0.0,0.0,0.0,0.0,0.0,0.0,0.0,0.0,0.0,0.0,0.0,0.0,0.0,0.0,0.0,0.0,0.0,0.0,0.0,0.0,0.0,0.0,0.0,0.0,0.0,0.0,0.0,0.0,0.0,0.0,0.0,0.0,0.0,0.0,0.0,0.0,0.0,0.0,0.0,0.0,0.0,0.0,0.0,0.0,0.0,0.0,0.0,0.0,0.0,0.0,0.0,0.0,0.0,0.0,0.0,0.0,0.0,0.0,0.0,0.0,0.0,0.0,0.0,0.0,0.0,0.0,0.0,0.0,0.0,0.0,0.0,0.0,0.0,1.9374,0.0,1.9201,1.9065,1.885,1.8918,0.0,0.0,0.0,0.0,0.0,0.0,0.0,0.0,0.0,0.0,0.0,0.0,0.0,0.0,0.0,0.0,0.0,0.0,0.0,0.0,0.0,0.0,0.0,0.0,0.0,0.0,0.0,0.0,0.0,0.0,0.0,0.0,0.0,0.0,0.0,0.0,0.0,0.0,0.0,0.0,0.0,0.0,0.0,0.0,0.0,0.0,0.0,0.0,0.0,0.0,0.0,0.0,0.0,0.0,0.0,0.0,0.0,0.0,0.0,0.0,0.0,0.0,0.0,0.0,0.0,0.0,0.0,0.0,0.0,0.0,0.0,0.0,0.0,0.0,0.0,0.0,0.0,0.0,0.0,0.0,0.0,0.0,0.0,0.0,0.0,0.0,0.0,0.0,0.0,0.0,0.0,0.0,0.0,0.0,0.0,0.0,0.0,0.0,0.0,0.0,0.0,0.0,0.0,0.0,0.0,0.0,0.0,0.0,1.8966,1.9345,1.8992,1.8893,1.9332,1.8698,1.8567,0.0,0.0,0.0,0.0,0.0,0.0,0.0,0.0,0.0,0.0,0.0,0.0,0.0,0.0,0.0,0.0,0.0,0.0,0.0,0.0,0.0,0.0,0.0,0.0,0.0,0.0,0.0,0.0,0.0,0.0,0.0,0.0,0.0,0.0,0.0,0.0,0.0,0.0,0.0,0.0,0.0,0.0,0.0,0.0,0.0,0.0,0.0,0.0,0.0,0.0,0.0,0.0,0.0,0.0,0.0,0.0,0.0,0.0,0.0,0.0,0.0,0.0,0.0,0.0,0.0,0.0,0.0,0.0,0.0,0.0,0.0,0.0,0.0,0.0,0.0,0.0,0.0,0.0,0.0,0.0,0.0,0.0,0.0,0.0,0.0,0.0,0.0,0.0,0.0,0.0,0.0,0.0,0.0,0.0,0.0,0.0,0.0,0.0,0.0,0.0,0.0,0.0,0.0,0.0,0.0,0.0,0.0,0.0,0.0,1.8027,1.6999,1.6946,1.7969,1.6829,1.6724,0.0,0.0,0.0,0.0,0.0,0.0,0.0,0.0,0.0,0.0,0.0,0.0,0.0,0.0,0.0,0.0,0.0,0.0,0.0,0.0,0.0,0.0,0.0,0.0,0.0,0.0,0.0,0.0,0.0,0.0,0.0,0.0,0.0,0.0,0.0,0.0,0.0,0.0,0.0,0.0,0.0,0.0,0.0,0.0,0.0,0.0,0.0,0.0,0.0,0.0,0.0,0.0,0.0,0.0,0.0,0.0,0.0,0.0,0.0,0.0,0.0,0.0,0.0,0.0,0.0,0.0,0.0,0.0,0.0,0.0,0.0,0.0,0.0,0.0,0.0,0.0,0.0,0.0,0.0,0.0,0.0,0.0,0.0,0.0,0.0,0.0,0.0,0.0,0.0,0.0,0.0,0.0,0.0,0.0,0.0,0.0,0.0,0.0,0.0,0.0,0.0,0.0,0.0,0.0,0.0,0.0,0.0,0.0,0.0,1.5772,1.5321,1.5554,1.6646,1.5607,1.5495,1.6478,0.0,0.0,0.0,0.0,0.0,0.0,0.0,0.0,0.0,0.0,0.0,0.0,0.0,0.0,0.0,0.0,0.0,0.0,0.0,0.0,0.0,0.0,0.0,0.0,0.0,0.0,0.0,0.0,0.0,0.0,0.0,0.0,0.0,0.0,0.0,0.0,0.0,0.0,0.0,0.0,0.0,0.0,0.0,0.0,0.0,0.0,0.0,0.0,0.0,0.0,0.0,0.0,0.0,0.0,0.0,0.0,0.0,0.0,0.0,0.0,0.0,0.0,0.0,0.0,0.0,0.0,0.0,0.0,0.0,0.0,0.0,0.0,0.0,0.0,0.0,0.0,0.0,0.0,0.0,0.0,0.0,0.0,0.0,0.0,0.0,0.0,0.0,0.0,0.0,0.0,0.0,0.0,0.0,0.0,0.0,0.0,0.0,0.0,0.0,0.0,0.0,0.0,0.0,0.0,0.0,0.0,0.0,0.0,1.2993,1.3905,1.4613,1.5138,1.4834,1.4756,0.0,0.0,0.0,0.0,0.0,0.0,0.0,0.0,0.0,0.0,0.0,0.0,0.0,0.0,0.0,0.0,0.0,0.0,0.0,0.0,0.0,0.0,0.0,0.0,0.0,0.0,0.0,0.0,0.0,0.0,0.0,0.0,0.0,0.0,0.0,0.0,0.0,0.0,0.0,0.0,0.0,0.0,0.0,0.0,0.0,0.0,0.0,0.0,0.0,0.0,0.0,0.0,0.0,0.0,0.0,0.0,0.0,0.0,0.0,0.0,0.0,0.0,0.0,0.0,0.0,0.0,0.0,0.0,0.0,0.0,0.0,0.0,0.0,0.0,0.0,0.0,0.0,0.0,0.0,0.0,0.0,0.0,0.0,0.0,0.0,0.0,0.0,0.0,0.0,0.0,0.0,0.0,0.0,0.0,0.0,0.0,0.0,0.0,0.0,0.0,0.0,0.0,0.0,0.0,0.0,0.0,0.0,0.0,0.0,1.1688,1.1717,1.2294,1.3471,1.28,1.2739,0.0,0.0,0.0,0.0,0.0,0.0,0.0,0.0,0.0,0.0,0.0,0.0,0.0,0.0,0.0,0.0,0.0,0.0,0.0,0.0,0.0,0.0,0.0,0.0,0.0,0.0,0.0,0.0,0.0,0.0,0.0,0.0,0.0,0.0,0.0,0.0,0.0,0.0,0.0,0.0,0.0,0.0,0.0,0.0,0.0,0.0,0.0,0.0,0.0,0.0,0.0,0.0,0.0,0.0,0.0,0.0,0.0,0.0,0.0,0.0,0.0,0.0,0.0,0.0,0.0,0.0,0.0,0.0,0.0,0.0,0.0,0.0,0.0,0.0,0.0,0.0,0.0,0.0,0.0,0.0,0.0,0.0,0.0,0.0,0.0,0.0,0.0,0.0,0.0,0.0,0.0,0.0,0.0,0.0,0.0,0.0,0.0,0.0,0.0,0.0,0.0,0.0,0.0,0.0,0.0,0.0,0.0,0.0,1.1118,1.1187,1.0956,1.1164,1.1854,1.1635,1.1762,0.0,0.0,0.0,0.0,0.0,0.0,0.0,0.0,0.0,0.0,0.0,0.0,0.0,0.0,0.0,0.0,0.0,0.0,0.0,0.0,0.0,0.0,0.0,0.0,0.0,0.0,0.0,0.0,0.0,0.0,0.0,0.0,0.0,0.0,0.0,0.0,0.0,0.0,0.0,0.0,0.0,0.0,0.0,0.0,0.0,0.0,0.0,0.0,0.0,0.0,0.0,0.0,0.0,0.0,0.0,0.0,0.0,0.0,0.0,0.0,0.0,0.0,0.0,0.0,0.0,0.0,0.0,0.0,0.0,0.0,0.0,0.0,0.0,0.0,0.0,0.0,0.0,0.0,0.0,0.0,0.0,0.0,0.0,0.0,0.0,0.0,0.0,0.0,0.0,0.0,0.0,0.0,0.0,0.0,0.0,0.0,0.0,0.0,0.0,0.0,0.0,0.0,0.0,0.0,0.0,0.0,0.0,0.0,1.1163,1.1163,1.1029,1.0785,1.0466,1.1118,1.1386,0.0,0.0,0.0,0.0,0.0,0.0,0.0,0.0,0.0,0.0,0.0,0.0,0.0,0.0,0.0,0.0,0.0,0.0,0.0,0.0,0.0,0.0,0.0,0.0,0.0,0.0,0.0,0.0,0.0,0.0,0.0,0.0,0.0,0.0,0.0,0.0,0.0,0.0,0.0,0.0,0.0,0.0,0.0,0.0,0.0,0.0,0.0,0.0,0.0,0.0,0.0,0.0,0.0,0.0,0.0,0.0,0.0,0.0,0.0,0.0,0.0,0.0,0.0,0.0,0.0,0.0,0.0,0.0,0.0,0.0,0.0,0.0,0.0,0.0,0.0,0.0,0.0,0.0,0.0,0.0,0.0,0.0,0.0,0.0,0.0,0.0,0.0,0.0,0.0,0.0,0.0,0.0,0.0,0.0,0.0,0.0,0.0,0.0,0.0,0.0,0.0,0.0,0.0,0.0,0.0,0.0,0.0,0.0,1.1049,1.1021,1.087,1.074,1.0647,1.1053,1.12,0.0,0.0,0.0,0.0,0.0,0.0,0.0,0.0,0.0,0.0,0.0,0.0,0.0,0.0,0.0,0.0,0.0,0.0,0.0,0.0,0.0,0.0,0.0,0.0,0.0,0.0,0.0,0.0,0.0,0.0,0.0,0.0,0.0,0.0,0.0,0.0,0.0,0.0,0.0,0.0,0.0,0.0,0.0,0.0,0.0,0.0,0.0,0.0,2.0974,0.0,0.0,0.0,0.0,0.0,0.0,0.0,0.0,0.0,0.0,0.0,0.0,0.0,0.0,0.0,0.0,0.0,0.0,0.0,0.0,0.0,0.0,0.0,0.0,0.0,0.0,0.0,0.0,0.0,0.0,0.0,0.0,0.0,0.0,0.0,0.0,0.0,0.0,0.0,0.0,0.0,0.0,0.0,0.0,0.0,0.0,0.0,0.0,0.0,0.0,0.0,0.0,0.0,0.0,0.0,0.0,0.0,0.0,0.0,1.0944,1.1078,1.0826,1.0715,1.0704,1.0956,1.1102,0.0,0.0,0.0,0.0,0.0,0.0,0.0,0.0,0.0,0.0,0.0,0.0,0.0,0.0,0.0,0.0,0.0,0.0,0.0,0.0,0.0,0.0,0.0,0.0,0.0,0.0,0.0,0.0,0.0,0.0,0.0,0.0,0.0,0.0,0.0,0.0,0.0,0.0,0.0,0.0,0.0,0.0,0.0,0.0,0.0,0.0,0.0,0.0,0.0,0.0,0.0,0.0,0.0,0.0,0.0,0.0,0.0,0.0,0.0,0.0,0.0,0.0,0.0,0.0,0.0,0.0,0.0,0.0,0.0,0.0,0.0,0.0,0.0,0.0,0.0,0.0,0.0,0.0,0.0,0.0,0.0,0.0,0.0,0.0,0.0,0.0,0.0,0.0,0.0,0.0,0.0,0.0,0.0,0.0,0.0,0.0,0.0,0.0,0.0,0.0,0.0,0.0,0.0,0.0,0.0,0.0,0.0,1.0903,1.0789,1.0963,1.0711,1.0586,1.0641,1.0843,1.1049,1.1216,0.0,0.0,0.0,0.0,0.0,0.0,0.0,0.0,0.0,0.0,0.0,0.0,0.0,0.0,0.0,0.0,0.0,0.0,0.0,0.0,0.0,0.0,0.0,0.0,0.0,0.0,0.0,0.0,0.0,0.0,0.0,0.0,0.0,0.0,0.0,0.0,0.0,0.0,1.9569,2.0441,0.0,0.0,0.0,0.0,0.0,0.0,0.0,0.0,2.0959,0.0,0.0,0.0,0.0,0.0,0.0,0.0,0.0,0.0,0.0,0.0,0.0,0.0,0.0,0.0,0.0,0.0,0.0,0.0,0.0,0.0,0.0,0.0,0.0,0.0,0.0,0.0,0.0,0.0,0.0,0.0,0.0,0.0,0.0,0.0,0.0,0.0,0.0,0.0,0.0,0.0,0.0,0.0,0.0,0.0,0.0,0.0,0.0,0.0,0.0,0.0,0.0,0.0,0.0,0.0,0.0,0.8902,1.0133,1.0545,1.0037,0.9984,1.0091,1.0374,1.0673,1.0933,1.1203,0.0,0.0,0.0,0.0,0.0,0.0,0.0,0.0,0.0,0.0,0.0,0.0,0.0,0.0,0.0,0.0,0.0,0.0,0.0,0.0,0.0,0.0,0.0,0.0,0.0,0.0,0.0,0.0,0.0,0.0,0.0,0.0,0.0,0.0,0.0,0.0,0.0,0.0,0.0,1.8723,1.9714,0.0,0.0,0.0,0.0,0.0,0.0,0.0,0.0,2.0416,0.0,0.0,0.0,0.0,0.0,0.0,0.0,0.0,0.0,0.0,0.0,0.0,0.0,0.0,0.0,0.0,0.0,0.0,0.0,0.0,0.0,0.0,0.0,0.0,0.0,0.0,0.0,0.0,0.0,0.0,0.0,0.0,0.0,0.0,0.0,0.0,0.0,0.0,0.0,0.0,0.0,0.0,0.0,0.0,0.0,0.0,0.0,0.0,0.0,0.0,0.0,0.0,0.0,0.0,0.0,0.8364,0.8433,0.8613,0.8823,0.8251,0.8002,0.8168,0.8337,0.901,0.0,0.0,0.0,0.0,0.0,0.0,0.0,0.0,0.0,0.0,0.0,0.0,0.0,0.0,0.0,0.0,0.0,0.0,0.0,0.0,0.0,0.0,0.0,0.0,0.0,0.0,0.0,0.0,0.0,0.0,0.0,0.0,0.0,0.0,0.0,0.0,0.0,0.0,0.0,0.0,1.8191,1.8999,1.7938,0.0,0.0,0.0,0.0,0.0,0.0,2.0644,2.0458,0.0,0.0,0.0,0.0,0.0,0.0,0.0,0.0,0.0,0.0,0.0,0.0,0.0,0.0,0.0,0.0,0.0,0.0,0.0,0.0,0.0,0.0,0.0,0.0,0.0,0.0,0.0,0.0,0.0,0.0,0.0,0.0,0.0,0.0,0.0,0.0,0.0,0.0,0.0,0.0,0.0,0.0,0.0,0.0,0.0,0.0,0.0,0.0,0.0,0.0,0.0,0.0,0.0,0.0,0.0,0.7401,0.6652,0.664,0.7365,0.6526,0.6051,0.6111,0.6259,0.7097,0.0,0.0,0.0,0.0,0.0,0.0,0.0,0.0,0.0,0.0,0.0,0.0,0.0,0.0,0.0,0.0,0.0,0.0,0.0,0.0,0.0,0.0,0.0,0.0,0.0,0.0,0.0,0.0,0.0,0.0,0.0,0.0,0.0,0.0,0.0,0.0,0.0,0.0,0.0,0.0,0.0,1.79,1.6393,1.8018,0.0,0.0,0.0,0.0,2.0757,2.0686,0.0,0.0,0.0,0.0,0.0,0.0,0.0,0.0,0.0,0.0,0.0,0.0,0.0,0.0,0.0,0.0,0.0,0.0,0.0,0.0,0.0,0.0,0.0,0.0,0.0,0.0,0.0,0.0,0.0,0.0,0.0,0.0,0.0,0.0,0.0,0.0,0.0,0.0,0.0,0.0,0.0,0.0,0.0,0.0,0.0,0.0,0.0,0.0,0.0,0.0,0.0,0.0,0.0,0.0,0.0,0.0,0.4356,0.5419,0.5899,0.5637,0.5492,0.5546,0.585,0.618,0.6559,0.0,0.0,0.0,0.0,0.0,0.0,0.0,0.0,0.0,0.0,0.0,0.0,0.0,0.0,0.0,0.0,0.0,0.0,0.0,0.0,0.0,0.0,0.0,0.0,0.0,0.0,0.0,0.0,0.0,0.0,0.0,0.0,0.0,0.0,0.0,0.0,0.0,0.0,0.0,0.0,0.0,1.5349,1.4726,1.7437,1.9358,0.0,0.0,2.0437,2.067,2.0502,0.0,0.0,0.0,0.0,0.0,0.0,0.0,0.0,0.0,0.0,0.0,0.0,0.0,0.0,0.0,0.0,0.0,0.0,0.0,0.0,0.0,0.0,0.0,0.0,0.0,0.0,0.0,0.0,0.0,0.0,0.0,0.0,0.0,0.0,0.0,0.0,0.0,0.0,0.0,0.0,0.0,0.0,0.0,0.0,0.0,0.0,0.0,0.0,0.0,0.0,0.0,0.0,0.0,0.0,0.0,0.3779,0.3688,0.3619,0.379,0.425,0.3603,0.3334,0.3468,0.3735,0.4357,0.0,0.0,0.0,0.0,0.0,0.0,0.0,0.0,0.0,0.0,0.0,0.0,0.0,0.0,0.0,0.0,0.0,0.0,0.0,0.0,0.0,0.0,0.0,0.0,0.0,0.0,0.0,0.0,0.0,0.0,0.0,0.0,0.0,0.0,0.0,0.0,0.0,0.0,0.0,0.0,0.0,0.0,1.3399,1.6076,0.0,0.0,0.0,1.9174,1.8684,0.0,0.0,0.0,0.0,0.0,0.0,0.0,0.0,0.0,0.0,0.0,0.0,0.0,0.0,0.0,0.0,0.0,0.0,0.0,0.0,0.0,0.0,0.0,0.0,0.0,0.0,0.0,0.0,0.0,0.0,0.0,0.0,0.0,0.0,0.0,0.0,0.0,0.0,0.0,0.0,0.0,0.0,0.0,0.0,0.0,0.0,0.0,0.0,0.0,0.0,0.0,0.0,0.0,0.0,0.0,0.0,0.0,0.3217,0.2217,0.2143,0.2988,0.2169,0.172,0.1696,0.1819,0.0,0.0,0.0,0.0,0.0,0.0,0.0,0.0,0.0,0.0,0.0,0.0,0.0,0.0,0.0,0.0,0.0,0.0,0.0,0.0,0.0,0.0,0.0,0.0,0.0,0.0,0.0,1.1749,0.0,0.0,0.0,0.0,0.0,0.0,0.0,0.0,0.0,0.0,0.0,0.0,0.0,0.0,1.3888,1.2511,1.4828,1.6213,0.0,0.0,1.7811,1.6906,1.7539,1.8391,0.0,0.0,0.0,0.0,0.0,0.0,0.0,0.0,0.0,0.0,0.0,0.0,0.0,0.0,0.0,0.0,0.0,0.0,0.0,0.0,0.0,0.0,0.0,0.0,0.0,0.0,0.0,0.0,0.0,0.0,0.0,0.0,0.0,0.0,0.0,0.0,0.0,0.0,0.0,0.0,0.0,0.0,0.0,0.0,0.0,0.0,0.0,0.0,0.0,0.0,0.0,0.0,0.0,0.0,0.1931,0.2014,0.1809,0.1744,0.1821,0.1743,0.1717,0.1718,0.1783,0.1901,0.0,0.0,0.0,0.0,0.0,0.0,0.0,0.0,0.0,0.0,0.0,0.0,0.0,0.0,0.0,0.0,0.0,0.0,0.0,0.0,0.0,0.0,0.0,0.0,0.0,0.0,0.0,0.0,0.0,0.0,0.0,0.0,0.0,0.0,0.0,0.0,0.0,0.0,0.0,0.0,0.0,1.2243,1.2288,1.3866,1.4918,0.0,1.5794,1.6664,1.613,1.7204,1.8284,1.8839,0.0,0.0,0.0,0.0,0.0,0.0,0.0,0.0,0.0,0.0,0.0,0.0,0.0,0.0,0.0,0.0,0.0,0.0,0.0,0.0,0.0,0.0,0.0,0.0,0.0,0.0,0.0,0.0,0.0,0.0,0.0,0.0,0.0,0.0,0.0,0.0,0.0,0.0,0.0,0.0,0.0,0.0,0.0,0.0,0.0,0.0,0.0,0.0,0.0,0.0,0.0,0.0,0.0,0.1891,0.19,0.1772,0.1715,0.1715,0.1706,0.1714,0.1714,0.1774,0.1825,0.0,0.0,0.0,0.0,0.0,0.0,0.0,0.0,0.0,0.0,0.0,0.0,0.0,0.0,0.0,0.0,0.0,0.0,0.0,0.0,0.0,0.0,0.0,0.0,0.0,0.0,0.0,0.0,1.1476,1.1614,1.1906,0.0,0.0,0.0,0.0,0.0,0.0,0.0,0.0,0.0,0.0,1.2231,1.1866,1.3422,0.0,0.0,1.4361,1.495,1.4053,1.5824,1.749,1.8054,2.031,0.0,0.0,0.0,0.0,0.0,0.0,0.0,0.0,0.0,0.0,0.0,0.0,0.0,0.0,0.0,0.0,0.0,0.0,0.0,0.0,0.0,0.0,0.0,0.0,0.0,0.0,0.0,0.0,0.0,0.0,0.0,0.0,0.0,0.0,0.0,0.0,0.0,0.0,0.0,0.0,0.0,0.0,0.0,0.0,0.0,0.0,0.0,0.0,0.0,0.0,0.0,0.0,0.1899,0.1898,0.1779,0.1702,0.1702,0.172,0.1704,0.1705,0.1745,0.181,0.0,0.0,0.0,0.0,0.0,0.0,0.0,0.0,0.0,0.0,0.0,0.0,0.0,0.0,0.0,0.0,0.0,0.0,0.0,0.0,0.0,0.0,0.0,0.0,0.0,0.0,0.0,0.0,1.1663,1.1817,1.2012,0.0,0.0,0.0,0.0,0.0,0.0,0.0,0.0,0.0,0.0,1.206,1.1784,1.2917,1.3434,1.2511,1.3635,1.4294,1.3421,1.5223,1.6881,1.7452,0.0,0.0,0.0,0.0,0.0,0.0,0.0,0.0,0.0,0.0,0.0,0.0,0.0,0.0,0.0,0.0,0.0,0.0,0.0,0.0,0.0,0.0,0.0,0.0,0.0,0.0,0.0,0.2411,0.0,0.0,0.2295,0.0,0.0,0.0,0.0,0.0,0.0,0.0,0.0,0.0,0.0,0.0,0.0,0.0,0.0,0.0,0.0,0.0,0.0,0.0,0.0,0.0,0.0,0.19,0.1899,0.178,0.1704,0.1703,0.1704,0.1705,0.1707,0.1707,0.1749,0.1812,0.0,0.0,0.0,0.0,0.0,0.0,0.0,0.0,0.0,0.0,0.0,0.0,0.0,0.0,0.0,0.0,0.0,0.0,0.0,0.0,0.0,0.0,0.0,0.0,0.0,0.0,1.2223,1.228,1.2215,0.0,0.0,0.0,0.0,0.0,0.0,0.0,0.0,0.0,1.1957,1.1543,1.1487,1.2182,1.2319,1.2448,1.2556,1.3998,1.5003,1.4755,1.578,1.6669,0.0,0.0,0.0,0.0,0.0,0.0,0.0,0.0,0.0,0.0,0.0,0.0,0.0,0.0,0.0,0.0,0.0,0.0,0.0,0.0,0.0,0.0,0.0,0.0,0.0,0.0,0.0,0.2357,0.232,0.0,0.0,0.0,0.0,0.0,0.0,0.0,0.0,0.0,0.0,0.0,0.2125,0.2135,0.0,0.0,0.0,0.0,0.0,0.0,0.0,0.0,0.0,0.0,0.0,0.0,0.1911,0.1954,0.184,0.1761,0.1763,0.1782,0.1764,0.1764,0.1772,0.1759,0.1809,0.0,0.0,0.0,0.0,0.0,0.0,0.0,0.0,0.0,0.0,0.0,0.0,0.0,0.0,0.0,0.0,0.0,0.0,0.0,0.0,0.0,0.0,0.0,0.0,0.0,1.2036,0.0,0.0,0.0,0.0,0.0,0.0,0.0,0.0,0.0,0.0,1.1947,1.1874,1.1695,1.1931,1.2158,1.2296,1.241,1.245,0.0,0.0,0.0,0.0,0.0,0.0,0.0,0.0,0.0,0.0,0.0,0.0,0.0,0.0,2.2535,2.2668,2.2213,2.1876,2.1993,0.0,0.0,0.0,0.0,0.0,0.0,0.0,0.0,0.0,0.0,0.0,0.0,0.0,0.0,0.2292,0.2316,0.2277,0.0,0.0,0.0,0.0,0.0,0.0,0.0,0.0,0.1763,0.1822,0.1904,0.193,0.1989,0.2053,0.2121,0.2142,0.0,0.0,0.0,0.0,0.0,0.0,0.0,0.0,0.194,0.1984,0.1871,0.1793,0.1794,0.1795,0.1805,0.1795,0.1804,0.1797,0.1807,0.228,0.2968,0.0,0.0,0.0,0.0,0.0,0.0,0.0,0.0,0.0,0.0,0.0,0.0,0.0,0.0,0.0,0.0,0.0,0.0,0.0,0.0,0.0,0.0,0.0,1.2025,0.0,0.0,0.0,0.0,0.0,0.0,0.0,0.0,0.0,1.2108,1.2036,1.1932,1.1801,1.202,1.2295,1.2435,0.0,0.0,0.0,0.0,0.0,0.0,0.0,1.6904,1.6335,1.8537,2.038,2.0226,2.1115,2.1899,2.2157,0.0,0.0,2.2301,2.1906,2.1613,2.1832,2.2125,2.2271,2.2052,2.233,2.2535,0.0,0.0,0.0,0.0,0.23,0.0,0.0,0.0,0.2197,0.2289,0.0,0.2249,0.0,0.0,0.0,0.0,0.1789,0.1736,0.0,0.0,0.1021,0.113,0.1576,0.1664,0.1813,0.2059,0.2294,0.2371,0.2377,0.2216,0.0,0.0,0.0,0.0,0.0,0.0,0.2019,0.2014,0.1872,0.1797,0.18,0.1797,0.1797,0.1795,0.1849,0.189,0.1919,0.3086,0.3669,0.3485,0.3779,0.0,0.0,0.0,0.0,0.0,0.0,0.0,0.0,0.0,0.0,0.0,0.0,0.0,0.0,0.0,0.0,0.0,0.0,0.0,0.0,1.1783,0.0,0.0,0.0,0.0,0.0,0.0,0.0,0.0,0.0,1.258,1.2572,1.2272,1.2086,1.2288,0.0,0.0,0.0,0.0,1.2369,1.3223,1.4751,1.574,1.5711,1.5569,1.5728,1.6523,0.0,0.0,2.0187,2.1488,2.2225,2.2862,2.2241,2.1876,2.2417,2.2257,2.2242,2.2813,2.2636,2.2564,2.2519,2.2417,2.2432,0.2298,0.0,0.0,0.0,0.0,0.2272,0.2264,0.22,0.221,0.2215,0.2253,0.2206,0.0,0.0,0.0,0.0,0.0,0.0,0.1298,0.1144,0.1059,0.1188,0.1478,0.2434,0.3107,0.3509,0.4394,0.489,0.4899,0.4674,0.3797,0.2318,0.0,0.0,0.0,0.0,0.2041,0.2012,0.1863,0.1838,0.1859,0.1818,0.1797,0.1795,0.2602,0.3017,0.303,0.4211,0.4847,0.4828,0.4817,0.0,0.0,0.0,0.0,0.0,0.0,0.0,0.0,0.0,0.0,0.0,0.0,0.0,0.0,0.0,0.0,0.0,0.0,0.0,1.2266,1.1541,1.158,0.0,0.0,0.0,0.0,0.0,0.0,0.0,0.0,0.0,1.258,1.2596,1.2548,0.0,0.0,1.2929,1.3181,1.297,1.2791,1.2824,1.3327,0.0,1.3382,1.4498,1.5156,1.4485,1.5337,1.714,2.0217,2.0978,2.1144,2.1154,2.1422,2.1686,2.1598,2.1364,2.132,2.1642,2.1642,2.1613,2.1584,2.1613,2.1569,0.2255,0.2256,0.2273,0.2244,0.2244,0.2262,0.2214,0.2179,0.2747,0.3038,0.3107,0.3602,0.3881,0.3978,0.3956,0.0,0.0,0.0,0.1731,0.1084,0.0797,0.0878,0.1274,0.2075,0.2668,0.3094,0.3981,0.4416,0.4481,0.4323,0.3588,0.2316,0.0,0.3463,0.294,0.289,0.283,0.28,0.2733,0.2706,0.2703,0.2602,0.2547,0.2595,0.3667,0.4265,0.4265,0.5366,0.6,0.6,0.602,0.6862,0.0,0.0,0.0,0.0,0.0,0.0,0.0,0.0,0.0,0.0,0.0,1.0331,1.0414,0.0,0.0,0.0,1.1027,1.1453,1.1735,1.122,0.0,0.0,0.0,0.0,0.0,0.0,0.0,1.3042,1.2694,1.2442,1.2588,1.2726,1.271,1.2531,1.2686,1.2938,1.3222,0.0,1.2775,1.2808,1.2865,1.2807,1.2564,1.3842,1.492,1.5029,1.6432,1.8087,1.9909,2.0374,2.0449,2.0669,2.1103,2.1554,2.173,2.1569,2.1394,2.1423,2.1613,2.1686,2.1467,2.1511,2.1525,0.2105,0.2177,0.2184,0.2206,0.2202,0.2198,0.2151,0.2205,0.3493,0.4187,0.4468,0.5478,0.6103,0.6268,0.6206,0.0,0.3524,0.3197,0.2268,0.0985,0.0326,0.036,0.097,0.108,0.1309,0.1647,0.2093,0.232,0.2396,0.2545,0.2494,0.2441,0.4842,0.5287,0.3854,0.3833,0.3841,0.3867,0.3915,0.3877,0.3746,0.3634,0.3623,0.369,0.48,0.5433,0.5556,0.6644,0.7183,0.7089,0.7279,0.8037,0.9312,0.0,0.0,0.0,0.0,0.0,0.0,0.0,0.0,0.0,0.0,0.0,0.0,0.0,0.0,1.0148,1.0379,0.0,1.0507,1.0859,0.0,0.0,0.0,1.2224,1.2048,1.2215,1.232,1.2345,0.0,0.0,1.258,1.2686,1.2629,1.2312,1.2135,1.2297,1.2978,1.2645,1.2483,1.2913,1.302,1.2929,1.2702,1.3561,1.4896,1.6733,1.8424,1.9219,1.9728,1.9875,2.0206,2.0899,2.1188,2.1493,2.2386,2.2446,2.2447,2.1832,2.2154,2.2418,2.1891,2.1906,2.1876,0.153,0.1817,0.1516,0.168,0.2198,0.2208,0.22,0.2199,0.2543,0.3301,0.4273,0.3499,0.305,0.2782,0.2528,0.1997,0.1259,0.094,0.0604,0.0266,0.01,0.0233,0.0656,0.1675,0.2363,0.2844,0.3794,0.4279,0.4408,0.5279,0.5353,0.4799,0.7628,0.6947,0.276,0.2609,0.2621,0.2627,0.2648,0.2583,0.2467,0.2393,0.2812,0.3669,0.4846,0.5847,0.6659,0.7848,0.845,0.8412,0.8382,0.8743,0.9508,0.9594,0.0,0.0,0.0,0.0,0.0,0.0,0.0,0.0,0.0,1.0697,1.0887,0.0,1.0478,0.0,1.0129,1.0044,1.0524,1.0359,0.0,0.0,1.1827,1.2074,1.2272,1.2314,1.241,1.2645,1.2507,1.2369,1.2369,1.2402,1.2304,1.1963,1.2337,1.2678,1.284,1.2532,1.2345,1.245,1.2296,1.2125,1.238,1.3331,1.4791,1.6333,1.7468,1.8466,1.9634,2.0017,2.0256,2.051,2.1128,2.1608,2.189,2.2286,2.2476,2.2184,2.2374,2.252,2.214,2.195,2.173,0.3258,0.3954,0.3915,0.4099,0.4326,0.3212,0.2778,0.3019,0.432,0.5211,0.5712,0.5621,0.5443,0.5215,0.5047,0.4518,0.3687,0.3344,0.2959,0.2531,0.2176,0.2203,0.2604,0.3237,0.3694,0.4016,0.4783,0.5165,0.5264,0.6032,0.6122,0.5631,0.7549,0.7042,0.4298,0.5046,0.5144,0.4366,0.4875,0.501,0.4741,0.4611,0.4599,0.4731,0.6554,0.7547,0.7604,0.8968,0.9704,0.9697,0.9623,0.9724,1.0062,1.0414,1.0724,0.0,0.0,0.0,0.0,0.0,0.0,0.0,0.0,0.0,0.0,0.0,1.046,1.0602,1.0059,0.9912,1.0417,1.0224,1.0386,1.1173,1.1376,1.1603,1.1956,1.2048,1.215,1.2337,1.219,1.2069,1.2069,1.2069,1.2036,1.1898,1.2166,1.2393,1.2418,1.2273,1.2151,1.2143,1.202,1.2339,1.3368,1.4781,1.6098,1.7396,1.8108,1.8771,1.9625,1.9948,2.0146,2.0462,2.1133,2.1759,2.1919,2.2418,2.2738,2.2681,2.2725,2.2667,2.2271,2.217,2.1979,0.5807,0.6849,0.7141,0.7272,0.7067,0.4956,0.413,0.4374,0.6906,0.7801,0.7507,0.8985,0.952,0.9257,0.9255,0.8565,0.7385,0.7073,0.6463,0.5628,0.4905,0.4805,0.5172,0.4913,0.4854,0.5046,0.5261,0.54,0.5467,0.5934,0.6078,0.5941,0.6667,0.6876,0.6692,0.8903,0.9081,0.7128,0.7848,0.806,0.7627,0.7461,0.6928,0.6171,0.8586,0.9543,0.8623,0.9927,1.0717,1.0717,1.0717,1.065,1.059,1.1029,1.1185,0.0,1.1382,0.0,0.0,0.0,0.0,0.0,0.0,0.0,0.0,1.0202,1.0304,1.0371,0.9994,0.9852,1.0124,1.0138,1.0273,1.0611,1.0776,1.1004,1.1397,1.1597,1.1746,1.1806,1.1806,1.1806,1.1823,1.1806,1.1841,1.1939,1.189,1.1898,1.1971,1.1973,1.1965,1.1965,1.1965,1.2638,1.461,1.6231,1.7491,1.8732,1.9195,1.9481,1.965,1.9792,2.0012,2.0668,2.1298,2.1807,2.2225,2.274,2.3076,2.3062,2.3076,2.2901,2.2432,2.2359,2.2374,0.6615,0.7025,0.6789,0.6928,0.734,0.752,0.7112,0.6363,0.6887,0.7044,0.6957,0.8374,0.8165,0.6783,0.6459,0.6092,0.567,0.5601,0.5472,0.5276,0.5121,0.5121,0.5169,0.4869,0.4863,0.515,0.5207,0.5408,0.5753,0.6996,0.7196,0.6454,0.9037,0.9254,0.7359,0.0,0.0,0.0,0.6012,0.524,0.5121,0.5446,0.5925,0.6642,0.8423,0.0,1.0367,1.0585,1.0717,1.0717,1.0717,0.0,0.0,0.0,0.0,0.0,0.0,0.0,0.0,0.0,0.0,0.0,1.1084,1.0839,1.0329,1.0295,1.0141,0.9808,0.97,0.9494,0.9197,0.9163,0.9342,0.9753,0.9985,1.0361,1.1012,1.1286,1.1488,1.1776,1.1806,1.1806,1.1815,1.1806,1.1831,1.1857,1.1801,1.1823,1.1872,1.1849,1.1825,1.1855,1.1985,1.2444,1.3854,1.5302,1.675,1.7572,1.8765,1.937,1.9495,1.9683,2.0123,2.0924,2.1435,2.1992,2.2766,2.3032,2.312,2.3106,2.3106,2.2988,2.2592,2.2389,2.2228,0.9061,0.9664,0.9698,0.9793,0.0,1.0357,1.0142,0.9445,0.9181,0.8959,0.8793,0.9319,0.9007,0.8169,0.8014,0.795,0.7907,0.7907,0.7971,0.8018,0.793,0.7935,0.8018,0.7701,0.7682,0.7907,0.7851,0.7875,0.8073,0.8984,0.912,0.855,1.0352,1.0563,0.9286,1.0951,1.1099,0.9531,0.8509,0.7829,0.7553,0.7606,0.7626,0.7647,0.9057,0.0,0.0,0.0,0.0,0.0,0.0,0.0,0.0,1.0894,0.0,1.0521,1.0704,1.0765,1.0622,1.0609,1.0575,1.0507,1.05,1.05,1.0493,1.0365,1.0154,0.9825,0.9798,0.9677,0.9386,0.9345,0.9555,0.9993,1.0297,1.0717,1.127,1.1541,1.1715,1.1868,1.1898,1.1898,1.1906,1.21,1.2189,1.2197,1.2197,1.2189,1.2173,1.1969,1.1988,1.2634,1.3345,1.4152,1.5381,1.6632,1.7584,1.8402,1.8981,1.9397,1.9559,1.9811,2.0321,2.1243,2.181,2.2369,2.2923,2.3237,2.331,2.3149,2.3106,2.3062,2.2886,2.274,2.2593,1.1741,1.2545,1.2923,1.2914,1.2617,1.2596,1.2486,1.2203,1.1676,0.0,0.0,1.0689,1.0547,1.0588,1.0623,1.0711,1.0841,1.0841,1.0903,1.1008,1.0897,1.0903,1.1002,1.0706,1.0663,1.0835,1.073,1.0654,1.0626,1.0941,1.1018,1.0914,1.1216,1.1356,1.1356,1.1356,1.1479,1.1644,1.1332,1.0947,1.0454,1.0311,0.9716,0.8651,1.001,1.0259,0.9293,1.0505,1.1268,1.1382,1.1431,1.1409,1.1457,1.1428,1.1355,1.1131,1.1111,1.0955,1.0487,1.0485,1.0317,0.9967,0.9978,1.0116,1.0541,1.0337,1.0148,0.9988,0.9981,0.9927,0.9798,0.9785,0.9958,1.0408,1.0719,1.1113,1.164,1.1846,1.1931,1.2031,1.2111,1.2127,1.215,1.2402,1.2613,1.2605,1.2613,1.2645,1.258,1.2158,1.2271,1.3384,1.4271,1.5623,1.7203,1.8173,1.915,1.9227,1.9372,1.9481,1.9722,1.999,2.0615,2.1608,2.2237,2.2737,2.3199,2.3457,2.3471,2.3164,2.3106,2.3106,2.3106,2.3106,2.3003,1.3385,1.34,1.3355,1.3241,1.3064,1.2989,1.2914,1.2833,1.2226,1.1895,1.1659,1.1623,1.1587,1.1587,1.1315,1.1259,1.1394,1.14,1.1406,1.1426,1.1406,1.1406,1.1388,1.1015,1.1039,1.1356,1.1374,1.1541,1.1817,1.1891,1.1915,1.1895,1.1932,1.1962,1.1975,1.1968,1.1996,1.1999,1.0383,0.9482,0.9429,0.9753,0.984,0.966,1.0877,1.1559,1.1365,1.125,1.1268,1.1382,1.1431,1.1233,1.084,1.086,1.0569,1.0062,1.0015,1.0114,1.0297,1.0342,1.0392,1.0542,1.0595,1.0387,0.9961,0.9879,0.9876,0.9825,0.9859,0.9819,0.9792,0.9812,0.9971,1.0265,1.0228,1.0538,1.1456,1.1624,1.1836,1.2193,1.254,1.2605,1.2515,1.2678,1.2799,1.2775,1.3021,1.2873,1.2841,1.2305,1.2476,1.3409,1.4027,1.5192,1.7256,1.7838,1.8597,1.9283,1.9441,1.9481,1.9522,1.9937,2.0728,2.1908,2.2366,2.2909,2.3653,2.3735,2.3486,2.3179,2.3106,2.3106,2.3106,2.3091,2.3062,1.3835,1.37,1.3626,1.3559,1.3403,1.3173,1.3118,1.3077,1.2617,1.2338,1.2182,1.2026,1.1999,1.2037,1.1894,1.1899,1.2031,1.2031,1.2031,1.2031,1.2038,1.2031,1.2031,1.1841,1.1841,1.2031,1.2038,1.2105,1.2189,1.2189,1.2186,1.2104,1.2098,1.2098,1.2098,1.2098,1.2098,1.2098,1.1232,1.0785,1.0761,1.0711,1.0699,1.0669,1.0959,1.1104,1.1104,1.0833,1.0784,1.09,1.09,1.0846,1.0731,1.0717,1.0562,1.0299,1.0278,1.0371,1.0507,1.0521,1.0575,1.0671,1.0717,1.0576,1.0331,1.031,1.0278,1.0278,1.0278,1.031,1.0278,1.0278,1.0365,1.0507,1.0582,1.0919,1.1522,1.1738,1.1984,1.2387,1.2637,1.2767,1.2718,1.3002,1.3237,1.3271,1.384,1.4302,1.4035,1.4576,1.5001,1.5267,1.5883,1.7169,1.8839,1.9159,1.9361,1.978,1.984,1.9773,1.9709,2.0126,2.0866,2.171,2.2276,2.2804,2.3486,2.3609,2.3425,2.3193,2.3106,2.3106,2.3091,2.2974,2.2915,1.4116,1.3903,1.3862,1.379,1.3572,1.3376,1.3295,1.3336,1.301,1.2794,1.2712,1.2338,1.2268,1.2332,1.2338,1.24,1.2494,1.2501,1.2501,1.2501,1.2501,1.2515,1.2542,1.2522,1.2535,1.2583,1.2535,1.2461,1.2393,1.2359,1.2277,1.2207,1.22,1.22,1.22,1.22,1.22,1.22,1.22,1.2166,1.2091,1.1757,1.1567,1.1457,1.0982,1.0677,1.0643,1.0473,1.0446,1.0582,1.0561,1.0609,1.0758,1.0704,1.0717,1.0717,1.0717,1.0717,1.0717,1.0717,1.0717,1.0717,1.0717,1.0717,1.0717,1.0717,1.0717,1.0717,1.069,1.0697,1.069,1.0671,1.0717,1.0717,1.0916,1.1193,1.1604,1.1859,1.2141,1.2458,1.2783,1.2921,1.2953,1.3261,1.3496,1.3669,1.4605,1.5112,1.5201,1.6458,1.7217,1.746,1.7933,1.8914,2.0394,2.045,2.0247,2.0237,2.0184,2.0064,1.9997,2.0334,2.0997,2.1685,2.2243,2.2762,2.311,2.3412,2.3425,2.3193,2.3106,2.3091,2.2974,2.2886,2.2694,1.4509,1.4258,1.4116,1.3885,1.3605,1.3558,1.3612,1.3673,1.3464,1.3417,1.3348,1.2773,1.2474,1.2481,1.2501,1.2515,1.2522,1.2501,1.2515,1.2515,1.2501,1.2576,1.2691,1.2576,1.2651,1.2887,1.2644,1.2583,1.2632,1.2549,1.2481,1.2461,1.2461,1.2461,1.2461,1.2461,1.2461,1.2461,1.2461,1.237,1.2111,1.2057,1.1932,1.1753,1.1477,1.1274,1.1125,1.0833,1.0718,1.0846,1.0738,1.0738,1.086,1.0765,1.0724,1.0724,1.0724,1.0717,1.0717,1.0717,1.0717,1.0717,1.0717,1.0717,1.0717,1.0717,1.0717,1.0717,1.0717,1.0717,1.0717,1.0724,1.0704,1.0738,1.0804,1.0883,1.1302,1.1695,1.2078,1.2297,1.2932,1.3296,1.3157,1.3414,1.3563,1.3691,1.438,1.4994,1.5697,1.6923,1.8103,1.8773,1.9177,1.9568,2.0508,2.0699,2.0548,2.0304,2.0224,2.0224,2.0264,2.0498,2.0962,2.175,2.2264,2.2702,2.3206,2.3588,2.3471,2.3208,2.3091,2.3032,2.2798,2.2842,2.2828,1.4626,1.4543,1.4394,1.4217,1.4027,1.3933,1.3871,1.3768,1.3526,1.339,1.3315,1.2982,1.2868,1.303,1.3037,1.2983,1.2901,1.2935,1.2854,1.2819,1.2812,1.2807,1.2854,1.2846,1.2887,1.2989,1.2873,1.2807,1.2847,1.2846,1.2773,1.2812,1.2812,1.2812,1.2812,1.2812,1.2773,1.2812,1.2812,1.2671,1.2467,1.2322,1.2169,1.2081,1.1809,1.1586,1.1436,1.1226,1.1104,1.1077,1.105,1.1043,1.107,1.1016,1.0941,1.0826,1.0738,1.0717,1.0717,1.0717,1.0717,1.0717,1.0717,1.0717,1.0717,1.0717,1.0717,1.0717,1.0717,1.0717,1.0698,1.0765,1.0819,1.0853,1.1021,1.1289,1.1624,1.2079,1.2456,1.2751,1.3201,1.3471,1.3604,1.4336,1.484,1.5107,1.6015,1.712,1.7751,1.9033,2.0076,2.0526,2.0625,2.076,2.1126,2.106,2.0882,2.0757,2.0717,2.0691,2.0561,2.0735,2.1155,2.1788,2.1961,2.2316,2.284,2.2987,2.2986,2.2995,2.3091,2.3018,2.2681,2.2694,2.255,1.4769,1.4681,1.4618,1.4468,1.4299,1.4224,1.4082,1.3892,1.3675,1.3498,1.3356,1.3329,1.3383,1.3532,1.3383,1.3214,1.3159,1.3159,1.3105,1.3009,1.3043,1.3084,1.3118,1.3118,1.3166,1.318,1.3125,1.3057,1.3064,1.3057,1.3057,1.3057,1.3057,1.3077,1.3118,1.3118,1.3098,1.3057,1.3057,1.2989,1.2786,1.2583,1.2451,1.2284,1.2074,1.1891,1.1748,1.1633,1.156,1.1451,1.1404,1.1328,1.1322,1.1281,1.1158,1.1023,1.0874,1.0839,1.0839,1.0839,1.0839,1.0839,1.0812,1.0745,1.0745,1.0711,1.0724,1.0717,1.0717,1.0698,1.0759,1.0846,1.0955,1.1097,1.1417,1.1689,1.2029,1.2429,1.2733,1.2994,1.3281,1.3536,1.3684,1.444,1.5041,1.5141,1.6696,1.8744,1.8914,1.9811,2.074,2.1441,2.1582,2.1582,2.1601,2.1301,2.1136,2.1109,2.1037,2.0989,2.086,2.1015,2.1217,2.1629,2.1606,2.1859,2.255,2.2674,2.2745,2.301,2.3149,2.3062,2.2696,2.2696,2.2535,1.4997,1.4701,1.4687,1.4505,1.4312,1.4421,1.4319,1.4041,1.4071,1.3939,1.3768,1.3912,1.4057,1.4003,1.3384,1.3037,1.3043,1.3084,1.3077,1.3071,1.3166,1.3247,1.3376,1.339,1.3519,1.3646,1.3492,1.3315,1.3227,1.3214,1.3159,1.322,1.3248,1.3254,1.3383,1.3417,1.3322,1.3288,1.3261,1.3112,1.3023,1.2982,1.2764,1.2372,1.2284,1.2196,1.2091,1.207,1.205,1.205,1.1857,1.1735,1.1606,1.1463,1.1321,1.122,1.1186,1.1166,1.1159,1.1152,1.1152,1.1145,1.0968,1.0907,1.0894,1.0799,1.0765,1.0698,1.0758,1.0772,1.0894,1.0934,1.1125,1.1517,1.1668,1.1909,1.2227,1.2639,1.2769,1.2914,1.3245,1.3482,1.3459,1.3453,1.3966,1.4018,1.4019,1.5273,1.787,1.8351,1.9426,2.0987,2.1622,2.1596,2.1601,2.1341,2.1136,2.1109,2.1096,2.1096,2.1096,2.1141,2.1326,2.1466,2.1515,2.1786,2.2352,2.2697,2.2822,2.3068,2.3294,2.3208,2.2828,2.2945,2.2813,1.4735,1.4597,1.4545,1.4482,1.4319,1.4353,1.4258,1.4125,1.4119,1.3987,1.3822,1.3856,1.3926,1.3862,1.3648,1.358,1.371,1.3717,1.362,1.3539,1.358,1.3627,1.3632,1.3639,1.3729,1.3761,1.3693,1.3612,1.3607,1.36,1.3654,1.3778,1.3749,1.3867,1.3953,1.398,1.3946,1.3885,1.3797,1.3634,1.339,1.3295,1.3111,1.2778,1.2623,1.2461,1.2254,1.221,1.22,1.2104,1.2043,1.1959,1.1898,1.1755,1.1606,1.1463,1.1362,1.1302,1.1213,1.12,1.12,1.1193,1.1152,1.1084,1.1077,1.1036,1.1036,1.1002,1.1002,1.107,1.1172,1.1145,1.1214,1.1483,1.1936,1.2285,1.2502,1.2913,1.3295,1.3346,1.3558,1.3709,1.3966,1.4509,1.5424,1.6191,1.7087,1.8361,1.9814,2.0443,2.0696,2.1496,2.1863,2.1863,2.183,2.1403,2.1109,2.1109,2.1096,2.1096,2.1109,2.1109,2.1217,2.1415,2.1438,2.1683,2.2234,2.2726,2.2897,2.3274,2.3501,2.3325,2.2988,2.312,2.2974,1.4726,1.4597,1.4539,1.4502,1.4373,1.4367,1.4251,1.4132,1.4112,1.3987,1.3829,1.3896,1.3944,1.3957,1.4034,1.4143,1.4245,1.4095,1.3939,1.3808,1.3849,1.3912,1.3926,1.3923,1.3944,1.3957,1.3998,1.4034,1.3957,1.3991,1.4109,1.4204,1.4217,1.4265,1.4353,1.4367,1.4333,1.4231,1.4122,1.3939,1.3715,1.3558,1.3431,1.32,1.303,1.2779,1.2447,1.2386,1.2318,1.2261,1.2241,1.222,1.2128,1.1993,1.1864,1.1762,1.1667,1.1574,1.1402,1.141,1.1362,1.1307,1.1302,1.1274,1.1268,1.1227,1.12,1.12,1.12,1.1295,1.1503,1.1503,1.1545,1.1854,1.2377,1.2808,1.295,1.3373,1.3655,1.3706,1.3779,1.4058,1.46,1.5478,1.6531,1.7877,1.9049,2.0097,2.1225,2.1556,2.1771,2.2051,2.2124,2.2058,2.1991,2.167,2.139,2.1349,2.1189,2.1162,2.1176,2.1162,2.1176,2.1323,2.1509,2.171,2.21,2.2657,2.3087,2.3513,2.353,2.3398,2.3281,2.3281,2.3149,1.4862,1.4674,1.4687,1.4611,1.4482,1.4468,1.4333,1.4116,1.4132,1.4021,1.3939,1.4163,1.4272,1.4312,1.4401,1.457,1.4525,1.4119,1.3889,1.3876,1.4021,1.4119,1.4119,1.4197,1.4265,1.4278,1.4421,1.4421,1.4312,1.4407,1.4482,1.4509,1.4516,1.4536,1.4529,1.4557,1.4407,1.4282,1.4221,1.4041,1.3822,1.3795,1.3749,1.3558,1.3451,1.3173,1.272,1.2603,1.2515,1.2494,1.2488,1.2433,1.2336,1.2193,1.2104,1.2091,1.2084,1.2009,1.18,1.1766,1.1728,1.1633,1.1491,1.1436,1.1409,1.1342,1.1261,1.1254,1.1254,1.1392,1.1839,1.1931,1.2115,1.2716,1.2973,1.3329,1.3666,1.386,1.3896,1.3888,1.3896,1.4501,1.5558,1.5983,1.665,1.7928,1.872,1.9473,2.0887,2.1264,2.1364,2.206,2.2418,2.2365,2.2178,2.1964,2.1836,2.1676,2.1416,2.1283,2.1336,2.1349,2.1309,2.1435,2.1523,2.1738,2.2322,2.2836,2.3273,2.3577,2.3539,2.3603,2.3603,2.3574,2.3413,1.4624,1.457,1.4475,1.4407,1.4367,1.4367,1.4306,1.4231,1.4231,1.4204,1.4197,1.436,1.4441,1.4482,1.4552,1.4654,1.4667,1.4434,1.4299,1.4292,1.4251,1.4231,1.4245,1.4285,1.4346,1.4441,1.4489,1.455,1.4611,1.4613,1.4674,1.4808,1.4828,1.4882,1.495,1.497,1.4909,1.4828,1.4631,1.4455,1.4299,1.4102,1.3933,1.3734,1.3634,1.3396,1.32,1.2949,1.2773,1.2625,1.2618,1.2589,1.2454,1.2393,1.2318,1.223,1.2216,1.2186,1.2057,1.1993,1.2009,1.1955,1.1907,1.1832,1.1708,1.1611,1.1565,1.1497,1.1477,1.1575,1.1716,1.2016,1.233,1.2753,1.3111,1.3361,1.3555,1.3734,1.3868,1.3904,1.3904,1.4145,1.4715,1.539,1.7007,1.8425,1.9344,2.0503,2.1725,2.2061,2.2229,2.2705,2.2712,2.2659,2.2532,2.2385,2.2205,2.2037,2.1764,2.1537,2.1563,2.1577,2.1523,2.1515,2.1622,2.1906,2.2493,2.2978,2.3339,2.3807,2.3995,2.4013,2.3954,2.3899,2.3749,1.4645,1.459,1.4502,1.4417,1.4462,1.4462,1.4462,1.4462,1.4462,1.4462,1.4489,1.4618,1.4679,1.4699,1.478,1.4855,1.4875,1.4647,1.4624,1.4638,1.4462,1.4407,1.4462,1.4529,1.4624,1.4753,1.4821,1.4896,1.4984,1.4998,1.5073,1.5201,1.516,1.514,1.5174,1.5173,1.5086,1.4997,1.4782,1.4647,1.457,1.436,1.419,1.4031,1.3899,1.3749,1.3634,1.3363,1.3085,1.2861,1.2766,1.2684,1.2589,1.2528,1.2461,1.2393,1.2359,1.2298,1.2207,1.2186,1.2152,1.2118,1.2098,1.2057,1.1932,1.1918,1.1864,1.1803,1.1782,1.1798,1.1932,1.2155,1.2554,1.303,1.3221,1.34,1.3582,1.3878,1.4063,1.4224,1.465,1.5103,1.5828,1.7,1.8441,1.9866,2.0957,2.1773,2.2791,2.3012,2.3033,2.2993,2.292,2.288,2.2867,2.276,2.2592,2.2392,2.2164,2.1951,2.1877,2.1877,2.1817,2.1796,2.184,2.2016,2.2549,2.2916,2.3312,2.3825,2.4309,2.4335,2.4294,2.4294,2.4177,1.4909,1.4728,1.4708,1.4687,1.4674,1.4667,1.466,1.4681,1.4674,1.4667,1.4746,1.4855,1.4989,1.5003,1.4964,1.5038,1.5106,1.4882,1.4848,1.4875,1.4719,1.4611,1.4654,1.4794,1.4916,1.5092,1.5221,1.533,1.5337,1.537,1.5566,1.5533,1.5391,1.5316,1.5187,1.5052,1.4957,1.4816,1.4741,1.4714,1.4701,1.4552,1.4509,1.4489,1.4258,1.4102,1.405,1.3749,1.3403,1.3064,1.284,1.2759,1.2679,1.2603,1.2556,1.2522,1.2515,1.244,1.2338,1.2298,1.2257,1.2186,1.2173,1.2111,1.2118,1.2111,1.2091,1.205,1.205,1.2127,1.2302,1.2425,1.2808,1.3394,1.3496,1.3697,1.4107,1.4318,1.4461,1.4854,1.5984,1.7309,1.818,1.9729,2.1084,2.2045,2.2671,2.3139,2.3235,2.3354,2.3354,2.3273,2.3215,2.3073,2.3108,2.3006,2.2873,2.2679,2.2472,2.2385,2.2198,2.2138,2.2084,2.2064,2.2083,2.2248,2.2553,2.2998,2.3393,2.3876,2.4214,2.4498,2.4583,2.4517,2.4466,1.5208,1.5059,1.4957,1.4848,1.4701,1.4694,1.4701,1.4694,1.4708,1.4748,1.4741,1.4903,1.5044,1.503,1.5086,1.5147,1.5133,1.5011,1.5059,1.5221,1.4991,1.4801,1.4708,1.4787,1.4909,1.5059,1.516,1.5201,1.5384,1.5384,1.5398,1.5466,1.535,1.5235,1.5174,1.5147,1.5113,1.5052,1.4957,1.4909,1.4882,1.4714,1.4633,1.4626,1.459,1.4441,1.4245,1.3946,1.358,1.3193,1.3023,1.2901,1.2901,1.2894,1.2773,1.2684,1.2618,1.2603,1.2481,1.244,1.242,1.24,1.2359,1.2377,1.2275,1.2268,1.2213,1.2139,1.2098,1.2128,1.2206,1.2263,1.2628,1.3237,1.3738,1.4163,1.4285,1.4399,1.4831,1.6039,1.66,1.7597,1.8953,2.0373,2.1531,2.2109,2.2917,2.3661,2.3661,2.3647,2.3647,2.3647,2.3603,2.3407,2.3313,2.3247,2.3113,2.2907,2.28,2.2773,2.2599,2.2458,2.2378,2.2298,2.2311,2.2445,2.2774,2.3158,2.3565,2.3857,2.4175,2.4444,2.4588,2.4622,2.4644,1.5452,1.5371,1.5289,1.5201,1.508,1.5066,1.5073,1.5086,1.5187,1.5208,1.5215,1.5228,1.5248,1.5255,1.5208,1.5181,1.5181,1.5235,1.535,1.5466,1.5466,1.5337,1.5194,1.5167,1.5289,1.5459,1.5411,1.5534,1.5628,1.5479,1.5466,1.554,1.5384,1.5282,1.5282,1.5208,1.5181,1.516,1.5146,1.5105,1.5045,1.4916,1.4848,1.4821,1.4735,1.4618,1.4387,1.4156,1.3851,1.3505,1.3309,1.3186,1.3173,1.3057,1.2962,1.2827,1.2773,1.2645,1.261,1.2542,1.2501,1.2501,1.2501,1.2461,1.24,1.2379,1.2325,1.2271,1.225,1.2216,1.2244,1.2494,1.2898,1.3416,1.4132,1.4589,1.4562,1.4619,1.5056,1.5955,1.6731,1.765,1.9189,2.0712,2.1715,2.2494,2.3418,2.3807,2.3955,2.3955,2.3941,2.3941,2.3884,2.3674,2.3581,2.3527,2.346,2.3268,2.3041,2.3027,2.2893,2.2726,2.2645,2.2579,2.2592,2.2686,2.293,2.3188,2.3433,2.3726,2.4088,2.4272,2.4374,2.4563,2.4603,1.5627,1.5614,1.5614,1.5607,1.5566,1.558,1.5588,1.5669,1.5703,1.5833,1.5784,1.5689,1.5615,1.5614,1.5404,1.5255,1.5289,1.5486,1.5553,1.5737,1.5872,1.5934,1.571,1.5689,1.5764,1.5852,1.5908,1.5942,1.5906,1.5757,1.5744,1.5764,1.5588,1.5438,1.5377,1.5276,1.5208,1.5181,1.5167,1.5153,1.514,1.5052,1.4997,1.497,1.4855,1.474,1.4584,1.4414,1.416,1.3876,1.3614,1.3464,1.3417,1.3186,1.3098,1.3017,1.2929,1.2801,1.2745,1.2651,1.2556,1.2556,1.2542,1.2508,1.2494,1.2474,1.2467,1.2447,1.2494,1.2413,1.2453,1.2989,1.342,1.3808,1.4544,1.5146,1.5071,1.5138,1.5344,1.5765,1.7198,1.8388,1.9809,2.115,2.2543,2.3355,2.3987,2.4113,2.4249,2.4249,2.4249,2.4249,2.4102,2.3901,2.3884,2.3857,2.379,2.3656,2.3327,2.318,2.302,2.2913,2.2893,2.2853,2.2752,2.2786,2.2861,2.3119,2.3304,2.3441,2.3679,2.3816,2.3966,2.4238,2.439,1.592,1.5854,1.5854,1.5744,1.56,1.5593,1.571,1.5805,1.5723,1.5852,1.5934,1.5764,1.5784,1.5961,1.5669,1.5601,1.5642,1.5683,1.5689,1.5859,1.6246,1.632,1.6137,1.6001,1.5839,1.5805,1.5723,1.5839,1.5974,1.594,1.5928,1.603,1.5839,1.5642,1.5452,1.5418,1.5296,1.5208,1.5241,1.5194,1.5194,1.5153,1.512,1.5113,1.4991,1.4962,1.4855,1.4726,1.4512,1.4319,1.4007,1.3734,1.3673,1.3661,1.3519,1.3336,1.3261,1.3146,1.2963,1.2907,1.28,1.2691,1.2618,1.2591,1.2508,1.2501,1.2501,1.2501,1.2501,1.2494,1.2544,1.3185,1.3599,1.406,1.536,1.6644,1.6828,1.6846,1.7806,1.9623,2.0526,2.1676,2.3041,2.3126,2.3912,2.4376,2.4462,2.4492,2.4479,2.4466,2.4439,2.4412,2.4382,2.4209,2.4128,2.4088,2.4044,2.3964,2.3661,2.342,2.326,2.3121,2.3081,2.2987,2.288,2.2893,2.2893,2.2928,2.3065,2.3167,2.3304,2.3441,2.3611,2.3918,2.4088,1.6035,1.601,1.601,1.5913,1.5852,1.5852,1.5893,1.5954,1.5967,1.6042,1.6117,1.594,1.594,1.6049,1.5791,1.5683,1.5784,1.592,1.6117,1.6374,1.6646,1.6646,1.653,1.6361,1.6148,1.6013,1.5988,1.6096,1.6185,1.609,1.6042,1.6164,1.6035,1.59,1.573,1.5649,1.5636,1.5493,1.535,1.5289,1.5289,1.5215,1.5181,1.5181,1.516,1.5119,1.5052,1.493,1.4821,1.4672,1.4428,1.415,1.398,1.3946,1.3831,1.3605,1.3451,1.3356,1.3234,1.3077,1.2962,1.2847,1.2779,1.2652,1.2603,1.2549,1.2501,1.2522,1.2562,1.261,1.2656,1.3201,1.3625,1.4019,1.5167,1.6433,1.7376,1.8103,1.8981,2.0677,2.0752,2.17,2.2744,2.3772,2.424,2.4272,2.4506,2.4546,2.4559,2.4546,2.4559,2.4546,2.4559,2.4492,2.4436,2.4356,2.4262,2.4142,2.3968,2.3754,2.3567,2.3429,2.3268,2.3134,2.3,2.2907,2.2893,2.2893,2.2907,2.2996,2.3099,2.3133,2.327,2.3509,2.3645,1.6133,1.6133,1.6133,1.6133,1.6133,1.6119,1.6133,1.6137,1.6225,1.6252,1.63,1.6164,1.6083,1.609,1.5859,1.5681,1.5866,1.6178,1.653,1.6781,1.6876,1.6856,1.6768,1.672,1.6615,1.6578,1.6347,1.6368,1.6381,1.6279,1.6205,1.6293,1.6191,1.6069,1.6035,1.5976,1.5833,1.5703,1.5499,1.5418,1.5398,1.5282,1.5187,1.5181,1.5174,1.516,1.514,1.5105,1.503,1.497,1.4862,1.459,1.4299,1.4163,1.4082,1.3889,1.3722,1.3587,1.3458,1.3254,1.3132,1.3071,1.2895,1.276,1.2713,1.2678,1.263,1.2637,1.2698,1.2766,1.2773,1.327,1.3641,1.405,1.4484,1.5808,1.7361,1.8899,1.9822,2.0376,2.1052,2.1887,2.2595,2.3426,2.3809,2.4179,2.4451,2.4599,2.4599,2.4599,2.4599,2.4599,2.4599,2.4599,2.4519,2.4479,2.4436,2.4342,2.4195,2.4035,2.3848,2.3683,2.3482,2.3255,2.3121,2.3054,2.2974,2.2934,2.2934,2.2907,2.2928,2.2996,2.3065,2.3167,2.3283,1.6133,1.6133,1.6133,1.6133,1.6133,1.6133,1.6151,1.6239,1.6164,1.6266,1.6415,1.6212,1.6212,1.6293,1.6137,1.6076,1.6205,1.6425,1.6642,1.6836,1.6917,1.6944,1.6931,1.691,1.6904,1.6802,1.6571,1.6449,1.649,1.6368,1.6402,1.6442,1.6368,1.6259,1.6123,1.599,1.5859,1.5778,1.5574,1.5513,1.5527,1.535,1.5208,1.5201,1.5194,1.5181,1.5181,1.5153,1.5092,1.5037,1.5059,1.4909,1.4692,1.4566,1.4437,1.4265,1.4122,1.396,1.3777,1.3565,1.3458,1.3336,1.3186,1.3051,1.2969,1.2935,1.2887,1.2894,1.2881,1.2922,1.2962,1.3323,1.3589,1.4104,1.5201,1.6546,1.7368,1.8513,1.9961,2.0547,2.1245,2.1961,2.2645,2.324,2.3772,2.4179,2.4488,2.4599,2.4599,2.4599,2.4599,2.4599,2.4599,2.4599,2.4572,2.4572,2.4532,2.4466,2.4346,2.4226,2.4075,2.3875,2.371,2.3607,2.342,2.3287,2.318,2.3108,2.3067,2.3108,2.3027,2.2934,2.3083,2.3246,2.3077,1.6133,1.6133,1.6133,1.6133,1.6133,1.6133,1.6123,1.6171,1.6117,1.6157,1.6218,1.6151,1.6198,1.6307,1.6191,1.6205,1.6422,1.6493,1.6669,1.6842,1.6944,1.6978,1.6985,1.6985,1.6978,1.6924,1.6761,1.6673,1.6748,1.6707,1.6673,1.6727,1.668,1.6578,1.6429,1.6293,1.6117,1.5961,1.5764,1.5662,1.571,1.5452,1.5323,1.5282,1.5221,1.5187,1.5181,1.5181,1.5153,1.5106,1.5147,1.5092,1.5011,1.493,1.4835,1.457,1.4394,1.4251,1.4061,1.3842,1.3653,1.3585,1.3492,1.339,1.3281,1.318,1.3098,1.3043,1.3084,1.3077,1.3009,1.3327,1.3538,1.3846,1.4863,1.5546,1.6025,1.6871,1.8251,1.9779,2.0239,2.1019,2.2608,2.3166,2.3735,2.4142,2.4451,2.4502,2.4428,2.4639,2.4666,2.4693,2.4706,2.4666,2.4639,2.4613,2.4599,2.4546,2.4506,2.4386,2.4319,2.4195,2.4195,2.4222,2.3981,2.3599,2.3527,2.3496,2.3415,2.3335,2.3362,2.3375,2.3335,2.3295,2.3188,1.6171,1.6171,1.6171,1.6171,1.6164,1.6137,1.613,1.6123,1.6137,1.6117,1.6133,1.6117,1.6185,1.6232,1.6246,1.6307,1.653,1.6578,1.6775,1.6931,1.7019,1.7026,1.7032,1.706,1.7093,1.7114,1.7019,1.6992,1.6876,1.6863,1.691,1.6856,1.689,1.6863,1.6648,1.6425,1.6422,1.6259,1.6064,1.5901,1.575,1.5615,1.5459,1.5411,1.5289,1.5235,1.5248,1.5248,1.5276,1.5269,1.5262,1.5228,1.5221,1.5194,1.5072,1.4835,1.455,1.4407,1.4272,1.4055,1.3835,1.3858,1.37,1.3639,1.3565,1.3417,1.3227,1.3146,1.318,1.3186,1.3139,1.3261,1.3473,1.3671,1.3833,1.4071,1.4523,1.528,1.6199,1.7477,1.8521,1.9891,2.1386,2.1843,2.213,2.2608,2.2905,2.3702,2.3789,2.4648,2.4823,2.4826,2.4826,2.4759,2.4706,2.4639,2.4626,2.4586,2.4572,2.4506,2.4519,2.4506,2.4532,2.4406,2.4342,2.4035,2.3941,2.3794,2.3669,2.3629,2.375,2.375,2.3616,2.3536,2.3469,1.6469,1.6418,1.6469,1.6469,1.6435,1.632,1.6273,1.6266,1.6266,1.6205,1.611,1.6212,1.6218,1.6198,1.6381,1.6469,1.6592,1.6775,1.6917,1.7012,1.7114,1.7161,1.7182,1.7317,1.729,1.7283,1.7216,1.7012,1.691,1.6804,1.675,1.6795,1.6741,1.6581,1.6675,1.6493,1.6334,1.6266,1.6071,1.5818,1.573,1.575,1.5635,1.5493,1.5404,1.5384,1.5384,1.5391,1.5425,1.5527,1.5432,1.5384,1.5364,1.5248,1.5194,1.5059,1.4869,1.4631,1.4489,1.4238,1.4068,1.4048,1.3926,1.3795,1.3727,1.3639,1.3505,1.337,1.337,1.3329,1.3288,1.3363,1.3424,1.3535,1.3755,1.3927,1.416,1.4393,1.5262,1.5932,1.721,1.8553,1.9941,2.0173,2.0402,2.0902,2.1461,2.2279,2.3066,2.3844,2.4473,2.4412,2.4991,2.5037,2.4943,2.4863,2.477,2.4666,2.4613,2.4626,2.4666,2.4679,2.4441,2.4375,2.4242,2.4027,2.3723,2.3602,2.3754,2.391,2.3995,2.395,2.379,2.375,2.375,1.6754,1.6524,1.6517,1.6476,1.6395,1.6334,1.6259,1.6212,1.6273,1.6273,1.6232,1.6273,1.6266,1.6266,1.6442,1.6513,1.668,1.6883,1.7026,1.7121,1.7236,1.7277,1.7236,1.7331,1.7392,1.7365,1.7378,1.7311,1.7088,1.6958,1.6883,1.6876,1.6815,1.6775,1.673,1.6581,1.6466,1.6402,1.6225,1.6042,1.5927,1.5859,1.5847,1.5711,1.5588,1.5499,1.5492,1.5492,1.5519,1.556,1.5493,1.5411,1.5377,1.5276,1.5181,1.5214,1.4991,1.4848,1.4753,1.4475,1.4353,1.4285,1.4183,1.4075,1.3994,1.3899,1.3715,1.3417,1.3485,1.3458,1.3356,1.3356,1.339,1.3486,1.3652,1.3652,1.3852,1.4106,1.4609,1.5184,1.5951,1.7443,1.8838,1.9501,2.0234,2.1218,2.1086,2.1022,2.1858,2.2699,2.3296,2.3729,2.452,2.5317,2.5224,2.513,2.4997,2.4903,2.4679,2.4706,2.4836,2.4762,2.4525,2.3827,2.3203,2.3103,2.3187,2.3611,2.3908,2.409,2.4262,2.4182,2.4102,2.4035,2.3815,1.6971,1.6639,1.6632,1.6571,1.6476,1.6435,1.6368,1.6279,1.6381,1.6402,1.6368,1.6368,1.6368,1.6402,1.6524,1.6621,1.6815,1.6965,1.7114,1.7256,1.7378,1.7352,1.7419,1.746,1.7494,1.7344,1.7467,1.744,1.7399,1.7216,1.7053,1.7087,1.7093,1.7012,1.6844,1.675,1.6655,1.6497,1.6402,1.6293,1.6191,1.6049,1.6024,1.5928,1.5784,1.5689,1.5641,1.5689,1.5696,1.5744,1.5533,1.5493,1.5466,1.5303,1.5194,1.5214,1.5059,1.5071,1.4923,1.4746,1.4604,1.4523,1.4421,1.4258,1.4082,1.4105,1.3953,1.3573,1.3559,1.3492,1.3376,1.3383,1.3376,1.3397,1.3438,1.3397,1.3445,1.3762,1.4443,1.5426,1.6122,1.6766,1.7981,1.8906,2.0022,2.134,2.1135,2.0163,2.0704,2.1637,2.2225,2.2753,2.3785,2.4637,2.4726,2.4801,2.4898,2.5017,2.4794,2.4893,2.5039,2.484,2.4499,2.3618,2.2488,2.2039,2.2017,2.3079,2.4142,2.4295,2.4426,2.4506,2.4466,2.4372,2.3732,1.71,1.6944,1.6944,1.6924,1.689,1.6781,1.6648,1.6574,1.6628,1.6567,1.6517,1.6459,1.651,1.6544,1.6601,1.675,1.6971,1.7114,1.7256,1.7412,1.7541,1.7527,1.7589,1.765,1.7745,1.7725,1.7575,1.748,1.7473,1.7311,1.7283,1.7365,1.7324,1.727,1.7141,1.6978,1.6842,1.6673,1.6585,1.6551,1.6469,1.6347,1.6218,1.6069,1.5983,1.5888,1.5888,1.5888,1.5928,1.5974,1.573,1.5546,1.5492,1.5323,1.5201,1.5167,1.5207,1.5173,1.5065,1.4896,1.4708,1.4633,1.4577,1.4407,1.4224,1.4159,1.3973,1.3838,1.3777,1.3619,1.3524,1.3505,1.3526,1.3539,1.3566,1.3539,1.3519,1.3451,1.4253,1.5489,1.6114,1.6295,1.6695,1.7499,1.9054,2.0403,1.9897,1.8946,1.9793,2.0682,2.1228,2.19,2.2902,2.359,2.3776,2.3886,2.4021,2.4418,2.4531,2.4951,2.5413,2.5068,2.4708,2.3181,2.2058,2.144,2.0878,2.1399,2.2277,2.3911,2.4552,2.4348,2.4337,2.4282,2.3427,1.7331,1.7107,1.7071,1.6924,1.6836,1.6723,1.6642,1.6588,1.6655,1.6669,1.6621,1.6608,1.6608,1.6635,1.6669,1.6883,1.7107,1.7263,1.7419,1.7561,1.769,1.7663,1.765,1.7636,1.7629,1.7521,1.7419,1.7379,1.7412,1.7351,1.7392,1.744,1.7453,1.7263,1.7127,1.7114,1.7026,1.6971,1.6904,1.6897,1.6775,1.6653,1.651,1.6354,1.6212,1.6083,1.6064,1.5995,1.6035,1.5988,1.5784,1.5648,1.5566,1.5357,1.5228,1.5194,1.5194,1.5194,1.516,1.4991,1.4848,1.4701,1.4633,1.459,1.4434,1.4394,1.4278,1.4136,1.398,1.3871,1.3714,1.379,1.3844,1.386,1.3826,1.3743,1.3682,1.3627,1.3713,1.4828,1.498,1.4979,1.5473,1.5999,1.7702,1.9273,1.8508,1.8105,1.8979,1.9745,2.0331,2.1141,2.2202,2.2765,2.2968,2.3064,2.3144,2.3589,2.4095,2.4366,2.4752,2.5468,2.484,2.3196,2.1519,2.0656,2.0015,1.9543,2.0446,2.2402,2.3442,2.3895,2.3932,2.3944,2.3002,1.7379,1.7195,1.7134,1.6998,1.6836,1.6811,1.6822,1.6761,1.6844,1.6899,1.6899,1.6892,1.6899,1.6899,1.6912,1.7041,1.7331,1.7494,1.7643,1.7792,1.7901,1.7826,1.7738,1.769,1.7704,1.7412,1.7351,1.7426,1.7433,1.7378,1.7385,1.7365,1.7399,1.7311,1.729,1.7216,1.7243,1.7202,1.7182,1.7121,1.6971,1.6815,1.6655,1.65,1.6388,1.6252,1.6151,1.6103,1.6112,1.6008,1.5872,1.573,1.5622,1.5486,1.5323,1.5269,1.5248,1.5235,1.5167,1.5092,1.4964,1.4855,1.4821,1.478,1.4726,1.4593,1.4451,1.436,1.4217,1.4095,1.393,1.4014,1.4061,1.4071,1.4061,1.4027,1.396,1.3892,1.3783,1.4041,1.407,1.4292,1.4731,1.5311,1.6303,1.7788,1.7882,1.7679,1.8316,1.9035,1.9623,2.0494,2.1552,2.1954,2.2206,2.206,2.1987,2.2316,2.2744,2.3048,2.3536,2.4403,2.43,2.2421,2.0906,1.9858,1.9026,1.8385,1.9478,2.1128,2.1945,2.2599,2.2752,2.2625,2.2239,1.7344,1.7222,1.7338,1.7229,1.6998,1.7121,1.7168,1.7148,1.7283,1.7338,1.7311,1.7277,1.7358,1.7365,1.7277,1.7399,1.7623,1.7772,1.7907,1.8057,1.8111,1.8138,1.805,1.7935,1.7758,1.7582,1.7446,1.7419,1.7419,1.7331,1.7283,1.7344,1.746,1.7487,1.7541,1.7419,1.7338,1.7222,1.7216,1.7141,1.7039,1.6858,1.6797,1.6689,1.6558,1.6422,1.6341,1.6191,1.6144,1.609,1.5976,1.5867,1.5833,1.5662,1.552,1.5418,1.5411,1.5337,1.5208,1.5234,1.5106,1.4991,1.4964,1.4923,1.4755,1.4681,1.4647,1.457,1.4414,1.4319,1.4245,1.4261,1.4316,1.4292,1.4333,1.434,1.4272,1.415,1.4048,1.3885,1.3831,1.3904,1.4301,1.4722,1.5285,1.6139,1.6804,1.7296,1.765,1.835,1.8952,1.944,2.0403,2.0484,2.0646,2.0777,2.0856,2.1109,2.1358,2.1665,2.2185,2.2964,2.2481,2.1259,2.038,1.9394,1.8191,1.7078,1.8233,1.9319,2.039,2.1029,2.1263,2.1402,2.1162,1.7426,1.7209,1.7358,1.7304,1.7154,1.7277,1.7344,1.7351,1.7392,1.7365,1.7311,1.7365,1.7433,1.7487,1.7534,1.7642,1.7907,1.7968,1.8097,1.8219,1.8226,1.8063,1.7989,1.7914,1.7738,1.7487,1.7433,1.7439,1.7419,1.7344,1.7365,1.7453,1.7541,1.7609,1.7494,1.7365,1.7263,1.7331,1.7344,1.7317,1.727,1.7195,1.7121,1.6973,1.6829,1.6673,1.6564,1.6354,1.6232,1.6171,1.6051,1.5928,1.5901,1.5737,1.5587,1.5519,1.5506,1.5493,1.5377,1.5323,1.5262,1.5167,1.5092,1.5072,1.5031,1.4936,1.4869,1.4794,1.4652,1.455,1.4448,1.4624,1.4699,1.4638,1.4645,1.4665,1.4604,1.4448,1.4306,1.4102,1.3994,1.3939,1.4123,1.433,1.4808,1.523,1.5943,1.6153,1.6493,1.7554,1.835,1.8463,1.8952,1.8952,1.9033,1.887,1.9033,1.9308,1.9704,2.017,2.0797,2.1424,2.1009,1.9978,1.9501,1.8923,1.7598,1.6546,1.6603,1.7315,1.8665,2.002,2.0747,2.0776,2.0488,1.748,1.7365,1.746,1.7446,1.7372,1.7406,1.7521,1.7555,1.7521,1.7385,1.7405,1.7514,1.7589,1.7602,1.7717,1.7785,1.8016,1.8077,1.8172,1.8301,1.8287,1.8226,1.8118,1.7955,1.7894,1.7656,1.7555,1.7555,1.7426,1.7419,1.7399,1.7534,1.7663,1.7561,1.7446,1.7392,1.7344,1.7372,1.7338,1.7365,1.7324,1.7297,1.7297,1.7216,1.7073,1.689,1.6669,1.6486,1.6334,1.6218,1.6076,1.5983,1.59,1.5852,1.5764,1.5737,1.56,1.5594,1.5465,1.5411,1.5343,1.5276,1.5221,1.5181,1.5174,1.5086,1.5057,1.4989,1.4875,1.4787,1.4726,1.4989,1.4936,1.4862,1.4903,1.4916,1.4882,1.4726,1.4624,1.4407,1.4265,1.4177,1.4075,1.4066,1.4256,1.4686,1.5108,1.529,1.5532,1.6593,1.7548,1.7672,1.7627,1.76,1.7264,1.6722,1.6968,1.741,1.7973,1.8504,1.883,1.9318,1.9033,1.8952,1.882,1.83,1.6886,1.6106,1.6246,1.6589,1.7426,1.8725,2.0038,1.9977,1.9483,1.7588,1.7582,1.7588,1.7575,1.7561,1.7527,1.7677,1.7874,1.7642,1.7582,1.7588,1.7758,1.7792,1.7724,1.7819,1.7983,1.8009,1.8118,1.8253,1.8342,1.8403,1.8366,1.8409,1.8335,1.805,1.7956,1.7854,1.7663,1.7467,1.7507,1.7514,1.7494,1.7575,1.7534,1.7521,1.7453,1.7453,1.7372,1.7365,1.7365,1.7317,1.729,1.7365,1.7331,1.7236,1.7053,1.6817,1.6635,1.6429,1.6259,1.6117,1.6103,1.609,1.609,1.6044,1.5928,1.5744,1.5703,1.5587,1.5533,1.5432,1.5371,1.5276,1.5215,1.5174,1.5153,1.5153,1.5091,1.4984,1.5017,1.5017,1.5051,1.5078,1.5052,1.5113,1.512,1.5113,1.5031,1.4943,1.4814,1.4685,1.4577,1.4428,1.4319,1.4255,1.4423,1.4872,1.5241,1.5489,1.5774,1.6559,1.6776,1.6668,1.6303,1.5882,1.5599,1.565,1.6328,1.6377,1.6804,1.705,1.7501,1.7696,1.7942,1.83,1.7737,1.6492,1.6007,1.604,1.6426,1.6811,1.722,1.8432,1.8513,1.8253,1.7467,1.7351,1.75,1.7467,1.7338,1.7331,1.7473,1.7629,1.7609,1.7595,1.7602,1.7799,1.7867,1.7975,1.8118,1.8219,1.8348,1.8484,1.863,1.8586,1.847,1.8409,1.8335,1.824,1.8016,1.7983,1.7915,1.784,1.7806,1.7772,1.7717,1.7745,1.7711,1.767,1.7636,1.7575,1.7534,1.7453,1.7406,1.7399,1.7405,1.7433,1.746,1.7453,1.7406,1.729,1.7161,1.6944,1.6693,1.6456,1.6402,1.6368,1.6246,1.6239,1.6178,1.6092,1.5967,1.592,1.586,1.5799,1.5642,1.5479,1.5377,1.5282,1.5228,1.5187,1.5167,1.5113,1.5132,1.5119,1.5091,1.5112,1.5119,1.5139,1.5194,1.5174,1.5167,1.514,1.5065,1.4991,1.4875,1.4814,1.4685,1.4624,1.4536,1.4512,1.4689,1.5047,1.5301,1.5519,1.5578,1.5801,1.5766,1.5462,1.5421,1.5165,1.5104,1.5143,1.5358,1.5577,1.5917,1.6369,1.6648,1.6912,1.7225,1.6961,1.6246,1.6015,1.6056,1.6015,1.6311,1.6402,1.6616,1.6985,1.7141,1.7629,1.7473,1.7453,1.7372,1.7372,1.7311,1.7487,1.7683,1.7575,1.7467,1.7595,1.7738,1.786,1.7996,1.8131,1.8247,1.8321,1.8437,1.8552,1.8572,1.8484,1.8504,1.8382,1.8287,1.8213,1.8097,1.8009,1.7996,1.7963,1.7922,1.7908,1.7908,1.7956,1.7894,1.7874,1.7852,1.7845,1.771,1.7595,1.7541,1.7555,1.7554,1.7602,1.7697,1.7656,1.7467,1.7419,1.7175,1.6951,1.672,1.6673,1.6527,1.6449,1.6388,1.63,1.6164,1.6083,1.6029,1.5996,1.5922,1.5799,1.5628,1.5533,1.5466,1.5357,1.5289,1.5221,1.516,1.5207,1.5207,1.518,1.5113,1.5139,1.5126,1.5173,1.5174,1.5181,1.5181,1.5126,1.5065,1.5011,1.4964,1.4903,1.4862,1.4821,1.478,1.4674,1.4746,1.485,1.481,1.4779,1.4801,1.4764,1.46,1.4664,1.4827,1.4732,1.4779,1.4991,1.5173,1.5195,1.541,1.5838,1.6045,1.6162,1.6021,1.5956,1.6104,1.612,1.6047,1.594,1.6154,1.627,1.632,1.6353,1.7895,1.7765,1.7365,1.7351,1.7534,1.7453,1.7623,1.7968,1.7494,1.7405,1.7615,1.7642,1.7819,1.8016,1.8158,1.8213,1.8314,1.843,1.8559,1.8494,1.8467,1.8538,1.8586,1.8674,1.8335,1.8287,1.8233,1.8077,1.7935,1.7936,1.7929,1.7936,1.7968,1.7989,1.7975,1.8057,1.8063,1.8043,1.7833,1.7622,1.7636,1.7656,1.7717,1.784,1.7656,1.7473,1.7426,1.7304,1.7154,1.7005,1.689,1.675,1.6588,1.6524,1.6402,1.6273,1.6185,1.6144,1.6069,1.5981,1.5969,1.5818,1.5744,1.5642,1.552,1.5364,1.5276,1.5235,1.5228,1.5187,1.5153,1.5153,1.514,1.5173,1.5153,1.5181,1.5181,1.5181,1.516,1.512,1.5106,1.5065,1.5059,1.5011,1.4984,1.4957,1.4916,1.4789,1.4699,1.4547,1.4449,1.4322,1.4327,1.4402,1.4347,1.4441,1.4429,1.4507,1.4696,1.4799,1.4845,1.4994,1.5108,1.5409,1.5695,1.5842,1.5894,1.5899,1.5881,1.5826,1.581,1.5961,1.5987,1.5929,1.6013,1.7731,1.75,1.7168,1.7202,1.7439,1.7311,1.7453,1.7683,1.7561,1.7711,1.7941,1.7989,1.8057,1.8199,1.8321,1.8389,1.843,1.8518,1.8654,1.8647,1.8599,1.8538,1.847,1.8525,1.8308,1.8104,1.8043,1.8104,1.8016,1.7941,1.7928,1.8009,1.8036,1.7996,1.8009,1.8084,1.8118,1.8206,1.7989,1.7874,1.7928,1.786,1.7888,1.7895,1.7731,1.7656,1.7609,1.7494,1.7365,1.7188,1.7127,1.6971,1.6702,1.6621,1.6524,1.6354,1.6286,1.6252,1.6205,1.6117,1.6049,1.603,1.5893,1.5764,1.5622,1.5452,1.535,1.5316,1.5276,1.5221,1.5181,1.5181,1.5181,1.5181,1.5181,1.5181,1.5187,1.5194,1.5194,1.5194,1.5194,1.5181,1.5221,1.5207,1.5194,1.5173,1.5166,1.5059,1.4957,1.4853,1.4772,1.4622,1.4479,1.4449,1.4323,1.4244,1.4295,1.4334,1.4486,1.4536,1.4542,1.4789,1.5016,1.5145,1.5358,1.5551,1.557,1.542,1.5412,1.5505,1.5539,1.5631,1.5539,1.5448,1.5764,1.7765,1.7589,1.7297,1.7344,1.7582,1.7595,1.7724,1.7879,1.7953,1.8131,1.824,1.8179,1.8213,1.8389,1.844,1.8481,1.8565,1.8687,1.8728,1.8715,1.8681,1.862,1.8538,1.847,1.8355,1.8165,1.8009,1.7996,1.8063,1.7975,1.7997,1.8131,1.8091,1.8077,1.8118,1.8158,1.8172,1.828,1.807,1.803,1.8084,1.7962,1.7922,1.7915,1.7799,1.7751,1.7751,1.7704,1.7602,1.7453,1.7378,1.7188,1.6978,1.6757,1.6621,1.6493,1.6398,1.6374,1.6327,1.6279,1.6198,1.6117,1.611,1.6008,1.5872,1.571,1.5506,1.5459,1.5364,1.5309,1.5208,1.5181,1.5181,1.5181,1.5194,1.5208,1.5262,1.5309,1.5309,1.5309,1.5269,1.5181,1.5174,1.5174,1.516,1.5167,1.5174,1.5174,1.5092,1.5038,1.4984,1.4889,1.4706,1.4618,1.4543,1.4414,1.4309,1.4352,1.4364,1.4324,1.4384,1.465,1.4871,1.4987,1.5095,1.5308,1.5308,1.5138,1.5207,1.5338,1.531,1.5298,1.517,1.5034,1.5323,1.7888,1.7772,1.7568,1.7629,1.7887,1.8023,1.8172,1.8335,1.8407,1.8467,1.8518,1.8301,1.8362,1.8484,1.8559,1.8501,1.8599,1.8708,1.8813,1.882,1.8807,1.8633,1.862,1.8647,1.8437,1.8213,1.8016,1.8057,1.8138,1.803,1.805,1.828,1.8348,1.8312,1.8413,1.8498,1.845,1.8382,1.8247,1.8118,1.8043,1.7955,1.7942,1.7868,1.7765,1.7751,1.7779,1.7785,1.7765,1.769,1.7568,1.7351,1.7161,1.6965,1.677,1.6648,1.6547,1.6459,1.6442,1.6449,1.6334,1.6252,1.6293,1.6225,1.6076,1.592,1.5716,1.5588,1.5499,1.5404,1.5303,1.5255,1.5255,1.5228,1.5248,1.5242,1.5316,1.5391,1.5398,1.5391,1.5296,1.5194,1.5221,1.5215,1.5201,1.5201,1.5194,1.5187,1.5167,1.5133,1.5092,1.4991,1.4848,1.4787,1.4767,1.4631,1.4462,1.4434,1.4449,1.4309,1.4258,1.4488,1.4663,1.4691,1.4822,1.5003,1.5075,1.4966,1.506,1.5081,1.4945,1.4865,1.4887,1.4837,1.4966,1.7724,1.7521,1.7697,1.7887,1.8043,1.8084,1.824,1.8413,1.8461,1.8599,1.8667,1.8687,1.8745,1.8715,1.8715,1.8708,1.8687,1.8813,1.8813,1.882,1.882,1.8613,1.8525,1.8572,1.8389,1.8186,1.803,1.8057,1.8192,1.8131,1.8192,1.847,1.8355,1.8292,1.8305,1.8389,1.8409,1.8375,1.8267,1.8097,1.8131,1.8036,1.7942,1.7902,1.784,1.784,1.7846,1.784,1.784,1.7799,1.769,1.7473,1.729,1.7121,1.6978,1.679,1.6696,1.6628,1.6632,1.6598,1.649,1.6402,1.6388,1.6266,1.6144,1.6062,1.5893,1.584,1.5696,1.556,1.5479,1.5527,1.552,1.5425,1.5398,1.5323,1.5316,1.5371,1.5404,1.535,1.5262,1.5282,1.5364,1.5337,1.5282,1.5269,1.5248,1.5242,1.5221,1.5201,1.5187,1.5086,1.4977,1.4996,1.4969,1.4794,1.4665,1.4606,1.4566,1.4451,1.4394,1.4306,1.4418,1.4571,1.4561,1.4671,1.4694,1.4836,1.4713,1.4671,1.4539,1.4458,1.4518,1.4601,1.4669]},{"header":{"parameterUnit":"m.s-1","parameterCategory":1,"la1":31.0,"la2":29.5877,"lo1":-88.7671,"lo2":-86.6584,"dy":0.0162,"dx":0.0185,"nx":115,"ny":88,"refTime":"2023-04-08T12:00:00:Z","depth":0,"parameterNumber":3,"parameterNumberName":"V-component_of_WINDS"},"data":[0.0,0.0,0.0,0.0,0.0,0.0,0.0,0.0,0.0,0.0,0.0,0.0,0.0,0.0,0.0,0.0,0.0,0.0,0.0,0.0,0.0,0.0,0.0,0.0,0.0,0.0,0.0,0.0,0.0,0.0,0.0,0.0,0.0,0.0,0.0,0.0,0.0,0.0,0.0,0.0,0.0,0.0,0.0,0.0,0.0,0.0,0.0,0.0,0.0,0.0,0.0,0.0,0.0,0.0,0.0,0.0,0.0,0.0,0.0,0.0,0.0,0.0,0.0,0.0,0.0,0.0,0.0,0.0,0.0,0.0,0.0,0.0,0.0,0.0,0.0,0.0,0.0,0.0,0.0,0.0,0.0,0.0,0.0,0.0,0.0,0.0,0.0,0.0,0.0,0.0,0.0,0.0,0.0,0.0,0.0,0.0,0.0,0.0,0.0,0.0,0.0,0.0,0.0,0.0,0.0,0.0,0.0,0.0,0.0,0.0,0.0,0.0,0.0,0.0,0.0,0.0,0.0,0.0,0.0,0.0,0.0,0.0,0.0,0.0,0.0,0.0,0.0,0.0,0.0,0.0,0.0,0.0,0.0,0.0,0.0,0.0,0.0,0.0,0.0,0.0,0.0,0.0,0.0,0.0,0.0,0.0,0.0,0.0,0.0,0.0,0.0,0.0,0.0,0.0,0.0,0.0,0.0,0.0,0.0,0.0,0.0,0.0,0.0,0.0,0.0,0.0,0.0,0.0,0.0,0.0,0.0,0.0,0.0,0.0,0.0,0.0,0.0,0.0,0.0,0.0,0.0,0.0,0.0,0.0,0.0,0.0,0.0,0.0,0.0,0.0,0.0,0.0,0.0,0.0,0.0,0.0,0.0,0.0,0.0,0.0,0.0,0.0,0.0,0.0,0.0,0.0,0.0,0.0,0.0,0.0,0.0,0.0,0.0,0.0,0.0,0.0,0.0,0.0,0.0,0.0,0.0,0.0,0.0,0.0,0.0,0.0,0.0,0.0,0.0,0.0,0.0,0.0,0.0,0.0,0.0,0.0,0.0,0.0,0.0,0.0,0.0,0.0,0.0,0.0,0.0,0.0,0.0,0.0,0.0,0.0,0.0,0.0,0.0,0.0,0.0,0.0,0.0,0.0,0.0,0.0,0.0,0.0,0.0,0.0,0.0,0.0,0.0,0.0,0.0,0.0,0.0,0.0,0.0,0.0,0.0,0.0,0.0,0.0,0.0,0.0,0.0,0.0,0.0,0.0,0.0,0.0,0.0,0.0,0.0,0.0,0.0,0.0,0.0,0.0,0.0,0.0,0.0,0.0,0.0,0.0,0.0,0.0,0.0,0.0,0.0,0.0,0.0,0.0,0.0,0.0,0.0,0.0,0.0,0.0,0.0,0.0,0.0,0.0,0.0,0.0,0.0,0.0,0.0,0.0,0.0,0.0,0.0,0.0,0.0,0.0,0.0,0.0,0.0,0.0,0.0,0.0,0.0,0.0,0.0,0.0,0.0,0.0,0.0,0.0,0.0,0.0,0.0,0.0,0.0,0.0,0.0,0.0,0.0,0.0,0.0,0.0,0.0,0.0,0.0,0.0,0.0,0.0,0.0,0.0,0.0,0.0,0.0,0.0,0.0,0.0,0.0,0.0,0.0,0.0,0.0,0.0,0.0,0.0,0.0,0.0,0.0,0.0,0.0,0.0,0.0,0.0,0.0,0.0,0.0,0.0,0.0,0.0,0.0,0.0,0.0,0.0,0.0,0.0,0.0,0.0,0.0,0.0,0.0,0.0,0.0,0.0,0.0,0.0,0.0,0.0,0.0,0.0,0.0,0.0,0.0,0.0,0.0,0.0,0.0,0.0,0.0,0.0,0.0,0.0,0.0,0.0,0.0,0.0,0.0,0.0,0.0,0.0,0.0,0.0,0.0,0.0,0.0,0.0,0.0,0.0,0.0,0.0,0.0,0.0,0.0,0.0,0.0,0.0,0.0,0.0,0.0,0.0,0.0,0.0,0.0,0.0,0.0,0.0,0.0,0.0,0.0,0.0,0.0,0.0,0.0,0.0,0.0,0.0,0.0,0.0,0.0,0.0,0.0,0.0,0.0,0.0,0.0,0.0,0.0,0.0,0.0,0.0,0.0,0.0,0.0,0.0,0.0,0.0,0.0,0.0,0.0,0.0,0.0,0.0,0.0,0.0,0.0,0.0,0.0,0.0,0.0,0.0,0.0,0.0,0.0,0.0,0.0,0.0,0.0,0.0,0.0,0.0,0.0,0.0,0.0,0.0,0.0,0.0,0.0,0.0,0.0,0.0,0.0,0.0,0.0,0.0,0.0,0.0,0.0,0.0,0.0,0.0,0.0,0.0,0.0,0.0,0.0,0.0,0.0,0.0,0.0,0.0,0.0,0.0,0.0,0.0,0.0,0.0,0.0,0.0,0.0,0.0,0.0,0.0,0.0,0.0,0.0,0.0,0.0,0.0,0.0,0.0,0.0,0.0,0.0,0.0,0.0,0.0,0.0,0.0,0.0,0.0,0.0,0.0,0.0,0.0,0.0,0.0,0.0,0.0,0.0,0.0,0.0,0.0,0.0,0.0,0.0,0.0,0.0,0.0,0.0,0.0,0.0,0.0,0.0,0.0,0.0,0.0,0.0,0.0,0.0,0.0,0.0,0.0,0.0,0.0,0.0,0.0,0.0,0.0,0.0,0.0,0.0,0.0,0.0,0.0,0.0,0.0,0.0,0.0,0.0,0.0,0.0,0.0,0.0,0.0,0.0,0.0,0.0,0.0,0.0,0.0,0.0,0.0,0.0,0.0,0.0,0.0,0.0,0.0,0.0,0.0,0.0,0.0,0.0,0.0,0.0,0.0,0.0,0.0,0.0,0.0,0.0,0.0,0.0,0.0,0.0,0.0,0.0,0.0,0.0,0.0,0.0,0.0,0.0,0.0,0.0,0.0,0.0,0.0,0.0,0.0,0.0,0.0,0.0,0.0,0.0,0.0,0.0,0.0,0.0,0.0,0.0,0.0,0.0,0.0,0.0,0.0,0.0,0.0,0.0,0.0,0.0,0.0,0.0,0.0,0.0,0.0,0.0,0.0,0.0,0.0,0.0,0.0,0.0,0.0,0.0,0.0,0.0,0.0,0.0,0.0,0.0,0.0,0.0,0.0,0.0,0.0,0.0,0.0,0.0,0.0,0.0,0.0,0.0,0.0,0.0,0.0,0.0,0.0,0.0,0.0,0.0,0.0,0.0,0.0,0.0,0.0,0.0,0.0,0.0,0.0,0.0,0.0,0.0,0.0,0.0,0.0,0.0,0.0,0.0,0.0,0.0,0.0,0.0,0.0,0.0,0.0,0.0,0.0,0.0,0.0,0.0,0.0,0.0,0.0,0.0,0.0,0.0,0.0,0.0,0.0,0.0,0.0,0.0,0.0,0.0,0.0,0.0,0.0,0.0,0.0,0.0,0.0,0.0,0.0,0.0,0.0,0.0,0.0,0.0,0.0,0.0,0.0,0.0,0.0,0.0,0.0,0.0,0.0,0.0,0.0,0.0,0.0,0.0,0.0,0.0,0.0,0.0,0.0,0.0,0.0,0.0,0.0,0.0,0.0,0.0,0.0,0.0,0.0,0.0,0.0,0.0,0.0,0.0,0.0,0.0,0.0,0.0,0.0,0.0,0.0,0.0,0.0,0.0,0.0,0.0,0.0,0.0,0.0,0.0,0.0,0.0,0.0,0.0,0.0,0.0,0.0,0.0,0.0,0.0,0.0,0.0,0.0,0.0,0.0,0.0,0.0,0.0,0.0,0.0,0.0,0.0,0.0,0.0,0.0,0.0,0.0,0.0,0.0,0.0,0.0,0.0,0.0,0.0,0.0,0.0,0.0,0.0,0.0,0.0,0.0,0.0,0.0,0.0,0.0,0.0,0.0,0.0,0.0,0.0,0.0,0.0,0.0,0.0,0.0,0.0,0.0,0.0,0.0,0.0,0.0,0.0,0.0,0.0,0.0,0.0,0.0,0.0,0.0,0.0,0.0,0.0,0.0,0.0,0.0,0.0,0.0,0.0,0.0,0.0,0.0,0.0,0.0,0.0,0.0,0.0,0.0,0.0,0.0,0.0,0.0,0.0,0.0,0.0,0.0,0.0,0.0,0.0,0.0,0.0,0.0,0.0,0.0,0.0,0.0,0.0,0.0,0.0,0.0,0.0,0.0,0.0,0.0,0.0,0.0,0.0,0.0,0.0,0.0,0.0,0.0,4.8058,0.0,0.0,0.0,4.8229,0.0,0.0,0.0,0.0,0.0,0.0,0.0,0.0,0.0,0.0,0.0,0.0,0.0,0.0,0.0,0.0,0.0,0.0,0.0,0.0,0.0,0.0,0.0,0.0,0.0,0.0,0.0,0.0,0.0,0.0,0.0,0.0,0.0,0.0,0.0,0.0,0.0,0.0,0.0,0.0,0.0,0.0,0.0,0.0,0.0,0.0,0.0,0.0,0.0,0.0,0.0,0.0,0.0,0.0,0.0,0.0,0.0,0.0,0.0,0.0,0.0,0.0,0.0,0.0,0.0,0.0,0.0,0.0,0.0,0.0,0.0,0.0,0.0,0.0,0.0,0.0,0.0,0.0,0.0,0.0,0.0,0.0,0.0,0.0,0.0,0.0,0.0,0.0,0.0,0.0,0.0,0.0,0.0,0.0,0.0,0.0,0.0,0.0,0.0,0.0,0.0,0.0,0.0,0.0,0.0,0.0,0.0,0.0,0.0,0.0,4.8138,4.8187,4.8148,4.8168,4.8256,0.0,0.0,0.0,0.0,0.0,0.0,0.0,0.0,0.0,0.0,0.0,0.0,0.0,0.0,0.0,0.0,0.0,0.0,0.0,0.0,0.0,0.0,0.0,0.0,0.0,0.0,0.0,0.0,0.0,0.0,0.0,0.0,0.0,0.0,0.0,0.0,0.0,0.0,0.0,0.0,0.0,0.0,0.0,0.0,0.0,0.0,0.0,0.0,0.0,0.0,0.0,0.0,0.0,0.0,0.0,0.0,0.0,0.0,0.0,0.0,0.0,0.0,0.0,0.0,0.0,0.0,0.0,0.0,0.0,0.0,0.0,0.0,0.0,0.0,0.0,0.0,0.0,0.0,0.0,0.0,0.0,0.0,0.0,0.0,0.0,0.0,0.0,0.0,0.0,0.0,0.0,0.0,0.0,0.0,0.0,0.0,0.0,0.0,0.0,0.0,0.0,0.0,0.0,0.0,0.0,0.0,0.0,0.0,0.0,0.0,0.0,0.0,4.8766,4.8776,4.8786,0.0,0.0,0.0,0.0,0.0,0.0,0.0,0.0,0.0,0.0,0.0,0.0,0.0,0.0,0.0,0.0,0.0,0.0,0.0,0.0,0.0,0.0,0.0,0.0,0.0,0.0,0.0,0.0,0.0,0.0,0.0,0.0,0.0,0.0,0.0,0.0,0.0,0.0,0.0,0.0,0.0,0.0,0.0,0.0,0.0,0.0,0.0,0.0,0.0,0.0,0.0,0.0,0.0,0.0,0.0,0.0,0.0,0.0,0.0,0.0,0.0,0.0,0.0,0.0,0.0,0.0,0.0,0.0,0.0,0.0,0.0,0.0,0.0,0.0,0.0,0.0,0.0,0.0,0.0,0.0,0.0,0.0,0.0,0.0,0.0,0.0,0.0,0.0,0.0,0.0,0.0,0.0,0.0,0.0,0.0,0.0,0.0,0.0,0.0,0.0,0.0,0.0,0.0,0.0,0.0,0.0,0.0,0.0,0.0,0.0,5.0521,5.0393,5.0485,0.0,5.0498,0.0,0.0,0.0,0.0,0.0,0.0,0.0,0.0,0.0,0.0,0.0,0.0,0.0,0.0,0.0,0.0,0.0,0.0,0.0,0.0,0.0,0.0,0.0,0.0,0.0,0.0,0.0,0.0,0.0,0.0,0.0,0.0,0.0,0.0,0.0,0.0,0.0,0.0,0.0,0.0,0.0,0.0,0.0,0.0,0.0,0.0,0.0,0.0,0.0,0.0,0.0,0.0,0.0,0.0,0.0,0.0,0.0,0.0,0.0,0.0,0.0,0.0,0.0,0.0,0.0,0.0,0.0,0.0,0.0,0.0,0.0,0.0,0.0,0.0,0.0,0.0,0.0,0.0,0.0,0.0,0.0,0.0,0.0,0.0,0.0,0.0,0.0,0.0,0.0,0.0,0.0,0.0,0.0,0.0,0.0,0.0,0.0,0.0,0.0,0.0,0.0,0.0,0.0,0.0,0.0,0.0,0.0,0.0,0.0,0.0,5.0278,5.0705,5.0782,5.0802,0.0,0.0,0.0,0.0,0.0,0.0,0.0,0.0,0.0,0.0,0.0,0.0,0.0,0.0,0.0,0.0,0.0,0.0,0.0,0.0,0.0,0.0,0.0,0.0,0.0,0.0,0.0,0.0,0.0,0.0,0.0,0.0,0.0,0.0,0.0,0.0,0.0,0.0,0.0,0.0,0.0,0.0,0.0,0.0,0.0,0.0,0.0,0.0,0.0,0.0,0.0,0.0,0.0,0.0,0.0,0.0,0.0,0.0,0.0,0.0,0.0,0.0,0.0,0.0,0.0,0.0,0.0,0.0,0.0,0.0,0.0,0.0,0.0,0.0,0.0,0.0,0.0,0.0,0.0,0.0,0.0,0.0,0.0,0.0,0.0,0.0,0.0,0.0,0.0,0.0,0.0,0.0,0.0,0.0,0.0,0.0,0.0,0.0,0.0,0.0,0.0,0.0,0.0,0.0,0.0,0.0,0.0,0.0,0.0,0.0,5.0865,5.0875,5.1416,5.1022,5.1012,5.1453,0.0,0.0,0.0,0.0,0.0,0.0,0.0,0.0,0.0,0.0,0.0,0.0,0.0,0.0,0.0,0.0,0.0,0.0,0.0,0.0,0.0,0.0,0.0,0.0,0.0,0.0,0.0,0.0,0.0,0.0,0.0,0.0,0.0,0.0,0.0,0.0,0.0,0.0,0.0,0.0,0.0,0.0,0.0,0.0,0.0,0.0,0.0,0.0,0.0,0.0,0.0,0.0,0.0,0.0,0.0,0.0,0.0,0.0,0.0,0.0,0.0,0.0,0.0,0.0,0.0,0.0,0.0,0.0,0.0,0.0,0.0,0.0,0.0,0.0,0.0,0.0,0.0,0.0,0.0,0.0,0.0,0.0,0.0,0.0,0.0,0.0,0.0,0.0,0.0,0.0,0.0,0.0,0.0,0.0,0.0,0.0,0.0,0.0,0.0,0.0,0.0,0.0,0.0,0.0,0.0,0.0,0.0,0.0,5.2819,5.2978,5.3031,5.2994,5.1599,5.1536,0.0,0.0,0.0,0.0,0.0,0.0,0.0,0.0,0.0,0.0,0.0,0.0,0.0,0.0,0.0,0.0,0.0,0.0,0.0,0.0,0.0,0.0,0.0,0.0,0.0,0.0,0.0,0.0,0.0,0.0,0.0,0.0,0.0,0.0,0.0,0.0,0.0,0.0,0.0,0.0,0.0,0.0,0.0,0.0,0.0,0.0,0.0,0.0,0.0,0.0,0.0,0.0,0.0,0.0,0.0,0.0,0.0,0.0,0.0,0.0,0.0,0.0,0.0,0.0,0.0,0.0,0.0,0.0,0.0,0.0,0.0,0.0,0.0,0.0,0.0,0.0,0.0,0.0,0.0,0.0,0.0,0.0,0.0,0.0,0.0,0.0,0.0,0.0,0.0,0.0,0.0,0.0,0.0,0.0,0.0,0.0,0.0,0.0,0.0,0.0,0.0,0.0,0.0,0.0,0.0,0.0,0.0,0.0,0.0,5.3051,5.3156,5.2957,5.2454,5.1867,5.2087,0.0,0.0,0.0,0.0,0.0,0.0,0.0,0.0,0.0,0.0,0.0,0.0,0.0,0.0,0.0,0.0,0.0,0.0,0.0,0.0,0.0,0.0,0.0,0.0,0.0,0.0,0.0,0.0,0.0,0.0,0.0,0.0,0.0,0.0,0.0,0.0,0.0,0.0,0.0,0.0,0.0,0.0,0.0,0.0,0.0,0.0,0.0,0.0,0.0,0.0,0.0,0.0,0.0,0.0,0.0,0.0,0.0,0.0,0.0,0.0,0.0,0.0,0.0,0.0,0.0,0.0,0.0,0.0,0.0,0.0,0.0,0.0,0.0,0.0,0.0,0.0,0.0,0.0,0.0,0.0,0.0,0.0,0.0,0.0,0.0,0.0,0.0,0.0,0.0,0.0,0.0,0.0,0.0,0.0,0.0,0.0,0.0,0.0,0.0,0.0,0.0,0.0,0.0,0.0,0.0,0.0,0.0,0.0,0.0,5.3141,0.0,5.2664,5.238,5.1877,5.1977,0.0,0.0,0.0,0.0,0.0,0.0,0.0,0.0,0.0,0.0,0.0,0.0,0.0,0.0,0.0,0.0,0.0,0.0,0.0,0.0,0.0,0.0,0.0,0.0,0.0,0.0,0.0,0.0,0.0,0.0,0.0,0.0,0.0,0.0,0.0,0.0,0.0,0.0,0.0,0.0,0.0,0.0,0.0,0.0,0.0,0.0,0.0,0.0,0.0,0.0,0.0,0.0,0.0,0.0,0.0,0.0,0.0,0.0,0.0,0.0,0.0,0.0,0.0,0.0,0.0,0.0,0.0,0.0,0.0,0.0,0.0,0.0,0.0,0.0,0.0,0.0,0.0,0.0,0.0,0.0,0.0,0.0,0.0,0.0,0.0,0.0,0.0,0.0,0.0,0.0,0.0,0.0,0.0,0.0,0.0,0.0,0.0,0.0,0.0,0.0,0.0,0.0,0.0,0.0,0.0,0.0,0.0,0.0,5.2375,5.3151,5.2448,5.2443,5.3115,5.1724,5.1273,0.0,0.0,0.0,0.0,0.0,0.0,0.0,0.0,0.0,0.0,0.0,0.0,0.0,0.0,0.0,0.0,0.0,0.0,0.0,0.0,0.0,0.0,0.0,0.0,0.0,0.0,0.0,0.0,0.0,0.0,0.0,0.0,0.0,0.0,0.0,0.0,0.0,0.0,0.0,0.0,0.0,0.0,0.0,0.0,0.0,0.0,0.0,0.0,0.0,0.0,0.0,0.0,0.0,0.0,0.0,0.0,0.0,0.0,0.0,0.0,0.0,0.0,0.0,0.0,0.0,0.0,0.0,0.0,0.0,0.0,0.0,0.0,0.0,0.0,0.0,0.0,0.0,0.0,0.0,0.0,0.0,0.0,0.0,0.0,0.0,0.0,0.0,0.0,0.0,0.0,0.0,0.0,0.0,0.0,0.0,0.0,0.0,0.0,0.0,0.0,0.0,0.0,0.0,0.0,0.0,0.0,0.0,0.0,0.0,5.3489,5.3005,5.294,5.3509,5.2772,5.2641,0.0,0.0,0.0,0.0,0.0,0.0,0.0,0.0,0.0,0.0,0.0,0.0,0.0,0.0,0.0,0.0,0.0,0.0,0.0,0.0,0.0,0.0,0.0,0.0,0.0,0.0,0.0,0.0,0.0,0.0,0.0,0.0,0.0,0.0,0.0,0.0,0.0,0.0,0.0,0.0,0.0,0.0,0.0,0.0,0.0,0.0,0.0,0.0,0.0,0.0,0.0,0.0,0.0,0.0,0.0,0.0,0.0,0.0,0.0,0.0,0.0,0.0,0.0,0.0,0.0,0.0,0.0,0.0,0.0,0.0,0.0,0.0,0.0,0.0,0.0,0.0,0.0,0.0,0.0,0.0,0.0,0.0,0.0,0.0,0.0,0.0,0.0,0.0,0.0,0.0,0.0,0.0,0.0,0.0,0.0,0.0,0.0,0.0,0.0,0.0,0.0,0.0,0.0,0.0,0.0,0.0,0.0,0.0,0.0,5.3138,5.2457,5.251,5.3403,5.2902,5.2731,5.2965,0.0,0.0,0.0,0.0,0.0,0.0,0.0,0.0,0.0,0.0,0.0,0.0,0.0,0.0,0.0,0.0,0.0,0.0,0.0,0.0,0.0,0.0,0.0,0.0,0.0,0.0,0.0,0.0,0.0,0.0,0.0,0.0,0.0,0.0,0.0,0.0,0.0,0.0,0.0,0.0,0.0,0.0,0.0,0.0,0.0,0.0,0.0,0.0,0.0,0.0,0.0,0.0,0.0,0.0,0.0,0.0,0.0,0.0,0.0,0.0,0.0,0.0,0.0,0.0,0.0,0.0,0.0,0.0,0.0,0.0,0.0,0.0,0.0,0.0,0.0,0.0,0.0,0.0,0.0,0.0,0.0,0.0,0.0,0.0,0.0,0.0,0.0,0.0,0.0,0.0,0.0,0.0,0.0,0.0,0.0,0.0,0.0,0.0,0.0,0.0,0.0,0.0,0.0,0.0,0.0,0.0,0.0,0.0,5.2357,5.1111,5.1279,5.2794,5.2272,5.1888,0.0,0.0,0.0,0.0,0.0,0.0,0.0,0.0,0.0,0.0,0.0,0.0,0.0,0.0,0.0,0.0,0.0,0.0,0.0,0.0,0.0,0.0,0.0,0.0,0.0,0.0,0.0,0.0,0.0,0.0,0.0,0.0,0.0,0.0,0.0,0.0,0.0,0.0,0.0,0.0,0.0,0.0,0.0,0.0,0.0,0.0,0.0,0.0,0.0,0.0,0.0,0.0,0.0,0.0,0.0,0.0,0.0,0.0,0.0,0.0,0.0,0.0,0.0,0.0,0.0,0.0,0.0,0.0,0.0,0.0,0.0,0.0,0.0,0.0,0.0,0.0,0.0,0.0,0.0,0.0,0.0,0.0,0.0,0.0,0.0,0.0,0.0,0.0,0.0,0.0,0.0,0.0,0.0,0.0,0.0,0.0,0.0,0.0,0.0,0.0,0.0,0.0,0.0,0.0,0.0,0.0,0.0,0.0,0.0,5.2584,5.1135,5.0719,5.151,5.2807,5.3062,0.0,0.0,0.0,0.0,0.0,0.0,0.0,0.0,0.0,0.0,0.0,0.0,0.0,0.0,0.0,0.0,0.0,0.0,0.0,0.0,0.0,0.0,0.0,0.0,0.0,0.0,0.0,0.0,0.0,0.0,0.0,0.0,0.0,0.0,0.0,0.0,0.0,0.0,0.0,0.0,0.0,0.0,0.0,0.0,0.0,0.0,0.0,0.0,0.0,0.0,0.0,0.0,0.0,0.0,0.0,0.0,0.0,0.0,0.0,0.0,0.0,0.0,0.0,0.0,0.0,0.0,0.0,0.0,0.0,0.0,0.0,0.0,0.0,0.0,0.0,0.0,0.0,0.0,0.0,0.0,0.0,0.0,0.0,0.0,0.0,0.0,0.0,0.0,0.0,0.0,0.0,0.0,0.0,0.0,0.0,0.0,0.0,0.0,0.0,0.0,0.0,0.0,0.0,0.0,0.0,0.0,0.0,0.0,5.2308,5.2772,5.1544,5.0619,5.0221,5.2755,5.3608,0.0,0.0,0.0,0.0,0.0,0.0,0.0,0.0,0.0,0.0,0.0,0.0,0.0,0.0,0.0,0.0,0.0,0.0,0.0,0.0,0.0,0.0,0.0,0.0,0.0,0.0,0.0,0.0,0.0,0.0,0.0,0.0,0.0,0.0,0.0,0.0,0.0,0.0,0.0,0.0,0.0,0.0,0.0,0.0,0.0,0.0,0.0,0.0,0.0,0.0,0.0,0.0,0.0,0.0,0.0,0.0,0.0,0.0,0.0,0.0,0.0,0.0,0.0,0.0,0.0,0.0,0.0,0.0,0.0,0.0,0.0,0.0,0.0,0.0,0.0,0.0,0.0,0.0,0.0,0.0,0.0,0.0,0.0,0.0,0.0,0.0,0.0,0.0,0.0,0.0,0.0,0.0,0.0,0.0,0.0,0.0,0.0,0.0,0.0,0.0,0.0,0.0,0.0,0.0,0.0,0.0,0.0,0.0,5.2658,5.2658,5.1888,5.0741,4.9371,5.2308,5.3569,0.0,0.0,0.0,0.0,0.0,0.0,0.0,0.0,0.0,0.0,0.0,0.0,0.0,0.0,0.0,0.0,0.0,0.0,0.0,0.0,0.0,0.0,0.0,0.0,0.0,0.0,0.0,0.0,0.0,0.0,0.0,0.0,0.0,0.0,0.0,0.0,0.0,0.0,0.0,0.0,0.0,0.0,0.0,0.0,0.0,0.0,0.0,0.0,0.0,0.0,0.0,0.0,0.0,0.0,0.0,0.0,0.0,0.0,0.0,0.0,0.0,0.0,0.0,0.0,0.0,0.0,0.0,0.0,0.0,0.0,0.0,0.0,0.0,0.0,0.0,0.0,0.0,0.0,0.0,0.0,0.0,0.0,0.0,0.0,0.0,0.0,0.0,0.0,0.0,0.0,0.0,0.0,0.0,0.0,0.0,0.0,0.0,0.0,0.0,0.0,0.0,0.0,0.0,0.0,0.0,0.0,0.0,0.0,5.1843,5.1849,5.1003,5.0392,5.0092,5.2002,5.269,0.0,0.0,0.0,0.0,0.0,0.0,0.0,0.0,0.0,0.0,0.0,0.0,0.0,0.0,0.0,0.0,0.0,0.0,0.0,0.0,0.0,0.0,0.0,0.0,0.0,0.0,0.0,0.0,0.0,0.0,0.0,0.0,0.0,0.0,0.0,0.0,0.0,0.0,0.0,0.0,0.0,0.0,0.0,0.0,0.0,0.0,0.0,0.0,5.274,0.0,0.0,0.0,0.0,0.0,0.0,0.0,0.0,0.0,0.0,0.0,0.0,0.0,0.0,0.0,0.0,0.0,0.0,0.0,0.0,0.0,0.0,0.0,0.0,0.0,0.0,0.0,0.0,0.0,0.0,0.0,0.0,0.0,0.0,0.0,0.0,0.0,0.0,0.0,0.0,0.0,0.0,0.0,0.0,0.0,0.0,0.0,0.0,0.0,0.0,0.0,0.0,0.0,0.0,0.0,0.0,0.0,0.0,0.0,5.2185,5.2117,5.0932,5.0277,5.0359,5.1544,5.2231,0.0,0.0,0.0,0.0,0.0,0.0,0.0,0.0,0.0,0.0,0.0,0.0,0.0,0.0,0.0,0.0,0.0,0.0,0.0,0.0,0.0,0.0,0.0,0.0,0.0,0.0,0.0,0.0,0.0,0.0,0.0,0.0,0.0,0.0,0.0,0.0,0.0,0.0,0.0,0.0,0.0,0.0,0.0,0.0,0.0,0.0,0.0,0.0,0.0,0.0,0.0,0.0,0.0,0.0,0.0,0.0,0.0,0.0,0.0,0.0,0.0,0.0,0.0,0.0,0.0,0.0,0.0,0.0,0.0,0.0,0.0,0.0,0.0,0.0,0.0,0.0,0.0,0.0,0.0,0.0,0.0,0.0,0.0,0.0,0.0,0.0,0.0,0.0,0.0,0.0,0.0,0.0,0.0,0.0,0.0,0.0,0.0,0.0,0.0,0.0,0.0,0.0,0.0,0.0,0.0,0.0,0.0,5.359,5.2736,5.242,5.1076,5.0344,5.0333,5.1288,5.2123,5.2766,0.0,0.0,0.0,0.0,0.0,0.0,0.0,0.0,0.0,0.0,0.0,0.0,0.0,0.0,0.0,0.0,0.0,0.0,0.0,0.0,0.0,0.0,0.0,0.0,0.0,0.0,0.0,0.0,0.0,0.0,0.0,0.0,0.0,0.0,0.0,0.0,0.0,0.0,5.3402,5.3953,0.0,0.0,0.0,0.0,0.0,0.0,0.0,0.0,5.3208,0.0,0.0,0.0,0.0,0.0,0.0,0.0,0.0,0.0,0.0,0.0,0.0,0.0,0.0,0.0,0.0,0.0,0.0,0.0,0.0,0.0,0.0,0.0,0.0,0.0,0.0,0.0,0.0,0.0,0.0,0.0,0.0,0.0,0.0,0.0,0.0,0.0,0.0,0.0,0.0,0.0,0.0,0.0,0.0,0.0,0.0,0.0,0.0,0.0,0.0,0.0,0.0,0.0,0.0,0.0,0.0,5.2493,5.2746,5.2267,5.0895,5.0626,5.0446,5.0428,5.1882,5.2706,5.2849,0.0,0.0,0.0,0.0,0.0,0.0,0.0,0.0,0.0,0.0,0.0,0.0,0.0,0.0,0.0,0.0,0.0,0.0,0.0,0.0,0.0,0.0,0.0,0.0,0.0,0.0,0.0,0.0,0.0,0.0,0.0,0.0,0.0,0.0,0.0,0.0,0.0,0.0,0.0,5.6263,5.6255,0.0,0.0,0.0,0.0,0.0,0.0,0.0,0.0,5.1995,0.0,0.0,0.0,0.0,0.0,0.0,0.0,0.0,0.0,0.0,0.0,0.0,0.0,0.0,0.0,0.0,0.0,0.0,0.0,0.0,0.0,0.0,0.0,0.0,0.0,0.0,0.0,0.0,0.0,0.0,0.0,0.0,0.0,0.0,0.0,0.0,0.0,0.0,0.0,0.0,0.0,0.0,0.0,0.0,0.0,0.0,0.0,0.0,0.0,0.0,0.0,0.0,0.0,0.0,0.0,5.3372,5.3242,5.2343,5.0683,5.0661,5.07,5.0674,5.2269,5.3306,0.0,0.0,0.0,0.0,0.0,0.0,0.0,0.0,0.0,0.0,0.0,0.0,0.0,0.0,0.0,0.0,0.0,0.0,0.0,0.0,0.0,0.0,0.0,0.0,0.0,0.0,0.0,0.0,0.0,0.0,0.0,0.0,0.0,0.0,0.0,0.0,0.0,0.0,0.0,0.0,5.7586,5.7406,5.6355,0.0,0.0,0.0,0.0,0.0,0.0,5.2576,5.202,0.0,0.0,0.0,0.0,0.0,0.0,0.0,0.0,0.0,0.0,0.0,0.0,0.0,0.0,0.0,0.0,0.0,0.0,0.0,0.0,0.0,0.0,0.0,0.0,0.0,0.0,0.0,0.0,0.0,0.0,0.0,0.0,0.0,0.0,0.0,0.0,0.0,0.0,0.0,0.0,0.0,0.0,0.0,0.0,0.0,0.0,0.0,0.0,0.0,0.0,0.0,0.0,0.0,0.0,0.0,5.4381,5.3455,5.2196,5.06,5.0636,5.0655,5.0687,5.2637,5.391,0.0,0.0,0.0,0.0,0.0,0.0,0.0,0.0,0.0,0.0,0.0,0.0,0.0,0.0,0.0,0.0,0.0,0.0,0.0,0.0,0.0,0.0,0.0,0.0,0.0,0.0,0.0,0.0,0.0,0.0,0.0,0.0,0.0,0.0,0.0,0.0,0.0,0.0,0.0,0.0,0.0,5.8208,5.6701,5.6821,0.0,0.0,0.0,0.0,5.312,5.3022,0.0,0.0,0.0,0.0,0.0,0.0,0.0,0.0,0.0,0.0,0.0,0.0,0.0,0.0,0.0,0.0,0.0,0.0,0.0,0.0,0.0,0.0,0.0,0.0,0.0,0.0,0.0,0.0,0.0,0.0,0.0,0.0,0.0,0.0,0.0,0.0,0.0,0.0,0.0,0.0,0.0,0.0,0.0,0.0,0.0,0.0,0.0,0.0,0.0,0.0,0.0,0.0,0.0,0.0,0.0,0.0,5.3847,5.2102,5.0791,4.9956,4.9894,4.9888,4.9892,5.2961,5.4647,0.0,0.0,0.0,0.0,0.0,0.0,0.0,0.0,0.0,0.0,0.0,0.0,0.0,0.0,0.0,0.0,0.0,0.0,0.0,0.0,0.0,0.0,0.0,0.0,0.0,0.0,0.0,0.0,0.0,0.0,0.0,0.0,0.0,0.0,0.0,0.0,0.0,0.0,0.0,0.0,0.0,5.869,5.6309,5.6593,5.642,0.0,0.0,5.3327,5.4827,5.4473,0.0,0.0,0.0,0.0,0.0,0.0,0.0,0.0,0.0,0.0,0.0,0.0,0.0,0.0,0.0,0.0,0.0,0.0,0.0,0.0,0.0,0.0,0.0,0.0,0.0,0.0,0.0,0.0,0.0,0.0,0.0,0.0,0.0,0.0,0.0,0.0,0.0,0.0,0.0,0.0,0.0,0.0,0.0,0.0,0.0,0.0,0.0,0.0,0.0,0.0,0.0,0.0,0.0,0.0,0.0,5.4909,5.4445,5.1357,4.9543,4.9192,4.9204,4.9223,4.9214,5.2993,5.4984,0.0,0.0,0.0,0.0,0.0,0.0,0.0,0.0,0.0,0.0,0.0,0.0,0.0,0.0,0.0,0.0,0.0,0.0,0.0,0.0,0.0,0.0,0.0,0.0,0.0,0.0,0.0,0.0,0.0,0.0,0.0,0.0,0.0,0.0,0.0,0.0,0.0,0.0,0.0,0.0,0.0,0.0,5.7322,5.7238,0.0,0.0,0.0,5.4333,5.5741,0.0,0.0,0.0,0.0,0.0,0.0,0.0,0.0,0.0,0.0,0.0,0.0,0.0,0.0,0.0,0.0,0.0,0.0,0.0,0.0,0.0,0.0,0.0,0.0,0.0,0.0,0.0,0.0,0.0,0.0,0.0,0.0,0.0,0.0,0.0,0.0,0.0,0.0,0.0,0.0,0.0,0.0,0.0,0.0,0.0,0.0,0.0,0.0,0.0,0.0,0.0,0.0,0.0,0.0,0.0,0.0,0.0,5.5062,5.0772,4.8468,4.8423,4.8467,4.8485,4.8564,5.2078,0.0,0.0,0.0,0.0,0.0,0.0,0.0,0.0,0.0,0.0,0.0,0.0,0.0,0.0,0.0,0.0,0.0,0.0,0.0,0.0,0.0,0.0,0.0,0.0,0.0,0.0,0.0,5.5129,0.0,0.0,0.0,0.0,0.0,0.0,0.0,0.0,0.0,0.0,0.0,0.0,0.0,0.0,5.9414,5.8082,5.7856,5.7727,0.0,0.0,5.5329,5.6061,5.5416,5.4768,0.0,0.0,0.0,0.0,0.0,0.0,0.0,0.0,0.0,0.0,0.0,0.0,0.0,0.0,0.0,0.0,0.0,0.0,0.0,0.0,0.0,0.0,0.0,0.0,0.0,0.0,0.0,0.0,0.0,0.0,0.0,0.0,0.0,0.0,0.0,0.0,0.0,0.0,0.0,0.0,0.0,0.0,0.0,0.0,0.0,0.0,0.0,0.0,0.0,0.0,0.0,0.0,0.0,0.0,5.4458,5.508,5.0241,4.7702,4.766,4.7663,4.7664,4.7703,4.9499,5.1996,0.0,0.0,0.0,0.0,0.0,0.0,0.0,0.0,0.0,0.0,0.0,0.0,0.0,0.0,0.0,0.0,0.0,0.0,0.0,0.0,0.0,0.0,0.0,0.0,0.0,0.0,0.0,0.0,0.0,0.0,0.0,0.0,0.0,0.0,0.0,0.0,0.0,0.0,0.0,0.0,0.0,5.714,5.781,5.8175,5.8075,0.0,5.683,5.6256,5.5679,5.5193,5.4845,5.4615,0.0,0.0,0.0,0.0,0.0,0.0,0.0,0.0,0.0,0.0,0.0,0.0,0.0,0.0,0.0,0.0,0.0,0.0,0.0,0.0,0.0,0.0,0.0,0.0,0.0,0.0,0.0,0.0,0.0,0.0,0.0,0.0,0.0,0.0,0.0,0.0,0.0,0.0,0.0,0.0,0.0,0.0,0.0,0.0,0.0,0.0,0.0,0.0,0.0,0.0,0.0,0.0,0.0,5.4147,5.442,4.9968,4.7625,4.7625,4.8095,4.8329,4.8329,5.0008,5.2273,0.0,0.0,0.0,0.0,0.0,0.0,0.0,0.0,0.0,0.0,0.0,0.0,0.0,0.0,0.0,0.0,0.0,0.0,0.0,0.0,0.0,0.0,0.0,0.0,0.0,0.0,0.0,0.0,5.3989,5.4639,5.6014,0.0,0.0,0.0,0.0,0.0,0.0,0.0,0.0,0.0,0.0,5.7542,5.5823,5.6313,0.0,0.0,5.6806,5.6533,5.7567,5.67,5.6004,5.64,5.6375,0.0,0.0,0.0,0.0,0.0,0.0,0.0,0.0,0.0,0.0,0.0,0.0,0.0,0.0,0.0,0.0,0.0,0.0,0.0,0.0,0.0,0.0,0.0,0.0,0.0,0.0,0.0,0.0,0.0,0.0,0.0,0.0,0.0,0.0,0.0,0.0,0.0,0.0,0.0,0.0,0.0,0.0,0.0,0.0,0.0,0.0,0.0,0.0,0.0,0.0,0.0,0.0,5.4381,5.4342,5.0164,4.7978,4.7978,4.8485,4.8798,4.8837,4.9969,5.1843,0.0,0.0,0.0,0.0,0.0,0.0,0.0,0.0,0.0,0.0,0.0,0.0,0.0,0.0,0.0,0.0,0.0,0.0,0.0,0.0,0.0,0.0,0.0,0.0,0.0,0.0,0.0,0.0,5.4868,5.5594,5.6511,0.0,0.0,0.0,0.0,0.0,0.0,0.0,0.0,0.0,0.0,5.674,5.5441,5.595,5.6912,5.8082,5.7346,5.7065,5.8279,5.7188,5.6313,5.6752,0.0,0.0,0.0,0.0,0.0,0.0,0.0,0.0,0.0,0.0,0.0,0.0,0.0,0.0,0.0,0.0,0.0,0.0,0.0,0.0,0.0,0.0,0.0,0.0,0.0,0.0,0.0,6.7965,0.0,0.0,6.6757,0.0,0.0,0.0,0.0,0.0,0.0,0.0,0.0,0.0,0.0,0.0,0.0,0.0,0.0,0.0,0.0,0.0,0.0,0.0,0.0,0.0,0.0,5.528,5.5241,5.0984,4.8798,4.8759,4.8798,4.8837,4.8876,4.8876,5.0087,5.2703,0.0,0.0,0.0,0.0,0.0,0.0,0.0,0.0,0.0,0.0,0.0,0.0,0.0,0.0,0.0,0.0,0.0,0.0,0.0,0.0,0.0,0.0,0.0,0.0,0.0,0.0,5.7504,5.7772,5.7466,0.0,0.0,0.0,0.0,0.0,0.0,0.0,0.0,0.0,5.6403,5.4454,5.4186,5.7313,5.7803,5.8095,5.8911,5.8585,5.8013,5.7311,5.6185,5.5276,0.0,0.0,0.0,0.0,0.0,0.0,0.0,0.0,0.0,0.0,0.0,0.0,0.0,0.0,0.0,0.0,0.0,0.0,0.0,0.0,0.0,0.0,0.0,0.0,0.0,0.0,0.0,6.6442,6.6444,0.0,0.0,0.0,0.0,0.0,0.0,0.0,0.0,0.0,0.0,0.0,6.0861,6.1134,0.0,0.0,0.0,0.0,0.0,0.0,0.0,0.0,0.0,0.0,0.0,0.0,5.5592,5.5942,5.1881,4.9656,4.9695,5.0242,5.0516,5.0516,4.9968,5.036,5.1804,0.0,0.0,0.0,0.0,0.0,0.0,0.0,0.0,0.0,0.0,0.0,0.0,0.0,0.0,0.0,0.0,0.0,0.0,0.0,0.0,0.0,0.0,0.0,0.0,0.0,5.6625,0.0,0.0,0.0,0.0,0.0,0.0,0.0,0.0,0.0,0.0,5.6205,5.5861,5.5021,5.6129,5.7199,5.7848,5.8383,5.8414,0.0,0.0,0.0,0.0,0.0,0.0,0.0,0.0,0.0,0.0,0.0,0.0,0.0,0.0,5.5776,5.6017,5.4979,5.4146,5.4436,0.0,0.0,0.0,0.0,0.0,0.0,0.0,0.0,0.0,0.0,0.0,0.0,0.0,0.0,6.5624,6.6327,6.5194,0.0,0.0,0.0,0.0,0.0,0.0,0.0,0.0,6.2162,6.0715,5.9149,5.9969,5.9771,5.8792,6.0744,6.2307,0.0,0.0,0.0,0.0,0.0,0.0,0.0,0.0,5.6451,5.6801,5.274,5.0554,5.0593,5.1414,5.1687,5.1414,5.0866,5.0671,5.0944,5.288,5.4372,0.0,0.0,0.0,0.0,0.0,0.0,0.0,0.0,0.0,0.0,0.0,0.0,0.0,0.0,0.0,0.0,0.0,0.0,0.0,0.0,0.0,0.0,0.0,5.7187,0.0,0.0,0.0,0.0,0.0,0.0,0.0,0.0,0.0,5.681,5.6625,5.6288,5.5517,5.6549,5.7689,5.8657,0.0,0.0,0.0,0.0,0.0,0.0,0.0,5.9318,6.0044,5.8459,5.7055,5.682,5.6287,5.5861,5.5801,0.0,0.0,5.5196,5.4218,5.3494,5.4037,5.4762,5.5124,5.4581,5.5269,5.5776,0.0,0.0,0.0,0.0,6.5858,0.0,0.0,0.0,6.3907,6.5546,0.0,6.4414,0.0,0.0,0.0,0.0,6.4311,6.3648,0.0,0.0,5.8468,5.7567,5.8963,5.982,5.9347,5.8049,6.1832,6.2963,6.136,5.8864,0.0,0.0,0.0,0.0,0.0,0.0,5.7816,5.766,5.36,5.1453,5.1531,5.2274,5.2274,5.1414,5.1334,5.0941,5.0237,5.2331,5.2881,5.1445,5.671,0.0,0.0,0.0,0.0,0.0,0.0,0.0,0.0,0.0,0.0,0.0,0.0,0.0,0.0,0.0,0.0,0.0,0.0,0.0,0.0,5.7436,0.0,0.0,0.0,0.0,0.0,0.0,0.0,0.0,0.0,5.9026,5.8988,5.7734,5.7014,5.781,0.0,0.0,0.0,0.0,5.8192,6.2044,6.2341,6.1978,6.1864,6.061,5.8954,5.7152,0.0,0.0,5.4173,5.5978,5.7243,5.7034,5.5136,5.4146,5.5571,5.5088,5.5051,5.6464,5.6114,5.5848,5.5824,5.5571,5.5522,6.5819,0.0,0.0,0.0,0.0,6.6094,6.4843,6.3008,6.3282,6.3438,6.3515,6.3164,0.0,0.0,0.0,0.0,0.0,0.0,6.4323,6.1708,6.0694,5.8855,5.6426,5.7175,5.6907,5.5866,5.7018,5.7331,5.6703,5.4801,5.7453,6.4372,0.0,0.0,0.0,0.0,5.8441,5.7621,5.4187,5.2624,5.3249,5.2898,5.2274,5.1414,5.0714,5.0222,4.9986,5.0018,5.0628,5.1924,5.3063,0.0,0.0,0.0,0.0,0.0,0.0,0.0,0.0,0.0,0.0,0.0,0.0,0.0,0.0,0.0,0.0,0.0,0.0,0.0,5.8334,5.6569,5.692,0.0,0.0,0.0,0.0,0.0,0.0,0.0,0.0,0.0,5.9026,5.9262,5.9192,0.0,0.0,6.0828,6.2013,6.1019,6.0179,6.0172,6.0583,0.0,5.929,5.9389,5.995,6.0919,5.8774,5.6725,5.6118,5.5462,5.4813,5.4223,5.3865,5.3675,5.3458,5.2878,5.277,5.3566,5.3651,5.3494,5.3506,5.3494,5.347,6.457,6.4609,6.5077,6.5274,6.5274,6.4765,6.3399,6.1446,6.1384,6.1839,6.254,6.1653,6.2888,6.5622,6.5271,0.0,0.0,0.0,6.3453,6.0224,6.0854,5.9603,5.6978,5.7619,5.7516,5.6673,5.6931,5.6899,5.6541,5.6906,5.9188,6.3356,0.0,6.3421,6.3369,6.0165,5.8251,5.7627,5.501,5.3877,5.4425,5.357,5.3025,5.2827,5.1236,5.0327,5.0327,4.975,4.9993,5.1173,5.2075,5.394,0.0,0.0,0.0,0.0,0.0,0.0,0.0,0.0,0.0,0.0,0.0,5.8588,5.9248,0.0,0.0,0.0,5.7228,5.7742,5.8164,5.739,0.0,0.0,0.0,0.0,0.0,0.0,0.0,6.1523,5.972,5.8536,5.9064,5.9873,5.9957,5.8797,5.9682,6.0867,6.2204,0.0,6.0102,6.0095,6.0523,6.0415,5.9109,5.8783,5.8881,5.9176,5.7543,5.5978,5.5357,5.4312,5.3532,5.3322,5.3487,5.377,5.3868,5.347,5.3035,5.3023,5.3494,5.3675,5.3132,5.3241,5.3277,6.3246,6.3322,6.5628,6.5197,6.3047,6.293,6.1603,5.9412,5.9233,6.0832,6.3397,6.0338,6.1966,6.7012,6.6351,0.0,6.1461,6.2301,6.113,5.8273,5.9804,6.0038,5.925,5.999,5.9986,5.9196,5.9924,5.9877,5.9327,6.2174,6.2606,6.0458,5.7884,5.7884,6.0307,5.8977,5.8115,5.8035,5.6427,5.545,5.5303,5.4527,5.4371,5.4915,5.2555,5.1157,5.0987,5.0896,5.0507,4.985,5.2624,5.3975,5.3492,0.0,0.0,0.0,0.0,0.0,0.0,0.0,0.0,0.0,0.0,0.0,0.0,0.0,0.0,5.5089,5.5999,0.0,5.6691,5.8771,0.0,0.0,0.0,5.942,5.7142,5.7466,5.7963,5.8077,0.0,0.0,5.9026,5.9682,5.9574,5.7925,5.7243,5.8008,6.1058,5.9491,5.8727,6.0752,6.1089,6.0828,5.9759,5.8447,5.683,5.5052,5.3602,5.3529,5.3385,5.3247,5.3332,5.3568,5.379,5.4215,5.5583,5.5643,5.5558,5.4037,5.4919,5.5486,5.4182,5.4218,5.4146,6.5216,6.4037,6.4631,6.4158,6.293,6.2265,6.2031,6.1992,6.1314,6.1083,6.1101,6.1032,6.1409,6.2164,6.2605,6.2038,6.0729,6.1555,6.1559,6.0859,6.1211,6.0937,6.0113,6.0211,6.0149,5.9893,5.9371,5.9338,5.9759,5.9218,5.9682,6.0983,6.0222,6.0973,6.3221,6.2915,6.2367,6.1702,6.0645,5.9162,5.7212,5.6942,5.5984,5.4173,5.3374,5.2331,5.1012,5.0804,5.0667,5.0436,5.0599,5.1727,5.4093,5.6575,0.0,0.0,0.0,0.0,0.0,0.0,0.0,0.0,0.0,6.0666,6.1743,0.0,5.9236,0.0,5.672,5.5028,5.4939,5.489,0.0,0.0,5.8623,5.8852,5.9489,5.8563,5.8383,5.9651,5.8842,5.8192,5.8192,5.8345,5.7886,5.6282,5.8039,5.9804,6.0568,5.9116,5.8077,5.8574,5.7848,5.7046,5.7471,5.7458,5.6938,5.6149,5.5192,5.4495,5.4127,5.3986,5.373,5.3257,5.3981,5.4506,5.4351,5.516,5.5631,5.4907,5.5377,5.574,5.4798,5.4327,5.3699,6.7069,6.5819,6.5782,6.5262,6.4386,6.3278,6.2829,6.2857,6.2272,6.1498,6.0708,6.1541,6.1439,6.0753,6.1551,6.171,6.1374,6.1863,6.2312,6.2683,6.2306,6.2109,6.1976,6.1125,6.0943,6.1275,6.0357,6.0169,6.0553,5.9578,5.949,6.0206,6.0389,6.1512,6.3448,6.4569,6.4914,6.4462,6.2819,6.0692,5.8206,5.7393,5.6845,5.656,5.5631,5.5229,5.5418,5.5253,5.5208,5.517,5.4747,5.5324,5.7247,5.9248,6.0819,0.0,0.0,0.0,0.0,0.0,0.0,0.0,0.0,0.0,0.0,0.0,5.9319,6.0127,5.7049,5.533,5.6032,5.567,5.6038,5.7479,5.7519,5.7513,5.764,5.7142,5.716,5.8039,5.7351,5.6778,5.6778,5.6778,5.6625,5.5976,5.7237,5.8307,5.8581,5.7893,5.732,5.7282,5.6549,5.58,5.5683,5.5648,5.5567,5.5174,5.4615,5.4226,5.438,5.4345,5.4063,5.3568,5.4608,5.5328,5.4508,5.5486,5.6368,5.6138,5.6247,5.6102,5.5124,5.4786,5.4399,6.8975,6.8015,6.7946,6.7421,6.654,6.5242,6.4086,6.3051,6.2746,6.2129,6.1418,6.1969,6.185,6.1257,6.1929,6.2423,6.2691,6.2688,6.3147,6.3932,6.3208,6.3255,6.3932,6.2424,6.2115,6.2805,6.2082,6.1717,6.1711,6.1629,6.1026,5.998,6.0572,6.1845,6.3673,6.5688,6.6728,6.6769,6.4209,6.1742,5.9434,5.8392,5.8812,6.0624,5.8988,5.8999,6.1113,6.0955,6.0781,6.0781,6.0781,6.0594,6.0248,6.2551,6.3435,0.0,6.4551,0.0,0.0,0.0,0.0,0.0,0.0,0.0,0.0,5.7857,5.8434,5.8819,5.6863,5.6055,5.7236,5.7313,5.6813,5.5558,5.5924,5.58,5.4644,5.5002,5.5409,5.5396,5.5396,5.5396,5.5473,5.5396,5.5708,5.6167,5.5938,5.5976,5.632,5.6479,5.6441,5.6441,5.6441,5.5853,5.4764,5.4143,5.3831,5.3453,5.3372,5.3434,5.408,5.4194,5.4155,5.4284,5.5214,5.5897,5.5269,5.6283,5.7116,5.708,5.7116,5.6681,5.5522,5.5341,5.5377,7.1138,6.9764,6.9709,6.9185,6.8396,6.7984,6.6613,6.4609,6.3848,6.3045,6.2269,6.2291,6.2279,6.2249,6.244,6.2909,6.3615,6.3621,6.375,6.3923,6.374,6.374,6.3893,6.3642,6.3564,6.3659,6.3498,6.3402,6.3372,6.3247,6.4089,6.5895,6.5867,6.7178,6.9651,0.0,0.0,0.0,6.7035,6.5219,6.4171,6.6418,6.6886,6.5249,6.3979,0.0,6.1951,6.1201,6.0781,6.0781,6.0781,0.0,0.0,0.0,0.0,0.0,0.0,0.0,0.0,0.0,0.0,0.0,6.266,6.1473,5.839,5.8198,5.7511,5.5626,5.5011,5.4016,5.2323,5.213,5.2813,5.4446,5.4205,5.4413,5.5998,5.5784,5.5383,5.5403,5.5396,5.5396,5.5435,5.5396,5.5511,5.5785,5.5517,5.5473,5.5702,5.5747,5.5632,5.5626,5.5638,5.5417,5.4799,5.4372,5.3944,5.3682,5.3359,5.3309,5.3471,5.3444,5.3822,5.4688,5.5119,5.574,5.6525,5.7007,5.7224,5.7188,5.7188,5.6899,5.6005,5.5414,5.5015,7.3467,7.1892,7.1848,7.1086,0.0,6.9822,6.8629,6.6678,6.5847,6.4774,6.3574,6.3539,6.3584,6.3658,6.411,6.4748,6.558,6.558,6.5808,6.6196,6.5773,6.5812,6.6196,6.5368,6.5213,6.558,6.5114,6.4718,6.43,6.4179,6.4633,6.5499,6.5357,6.5996,6.741,6.7239,6.7452,6.8086,6.6883,6.5235,6.3222,6.3963,6.4433,6.4312,6.2945,0.0,0.0,0.0,0.0,0.0,0.0,0.0,0.0,6.1979,0.0,5.9665,6.0704,6.105,6.0242,6.0165,5.9973,5.9588,5.955,5.955,5.9511,5.8781,5.7588,5.5901,5.5747,5.5054,5.34,5.3169,5.3846,5.5434,5.522,5.5617,5.6982,5.6569,5.6015,5.5982,5.5976,5.5976,5.6014,5.6772,5.7192,5.723,5.723,5.7192,5.7116,5.616,5.5357,5.5133,5.4925,5.4723,5.4309,5.398,5.3719,5.3444,5.3324,5.3382,5.3739,5.4063,5.4624,5.5612,5.6357,5.7061,5.7094,5.7514,5.7695,5.7297,5.7188,5.708,5.6645,5.6283,5.5921,7.5736,7.4221,7.3997,7.3007,7.1552,7.1437,7.0584,6.9206,6.7949,0.0,0.0,6.5184,6.5207,6.524,6.5907,6.6684,6.7494,6.7494,6.788,6.8535,6.7841,6.788,6.8497,6.712,6.685,6.7456,6.68,6.61,6.5471,6.538,6.4971,6.4354,6.4223,6.4199,6.4199,6.4199,6.4891,6.625,6.6383,6.4983,6.2055,6.1208,6.178,6.383,6.1891,6.1929,6.4095,6.3631,6.3698,6.4551,6.4622,6.4705,6.4974,6.5019,6.4397,6.3128,6.3012,6.1929,5.9473,5.9275,5.8511,5.6709,5.6588,5.7555,5.9781,5.8627,5.755,5.6824,5.6786,5.6478,5.5747,5.567,5.6115,5.7027,5.6969,5.7172,5.8023,5.7583,5.7047,5.6906,5.7129,5.7205,5.716,5.8345,5.9338,5.93,5.9179,5.9331,5.9026,5.7199,5.5495,5.4956,5.4813,5.4484,5.3842,5.3728,5.3429,5.3277,5.3225,5.3434,5.4095,5.4829,5.5598,5.6476,5.7741,5.8092,5.7782,5.8058,5.8094,5.7333,5.7188,5.7188,5.7188,5.7188,5.6935,7.7644,7.6729,7.5984,7.5091,7.4091,7.343,7.3007,7.2545,6.9559,6.7673,6.6763,6.6769,6.6775,6.6775,6.6941,6.7505,6.8314,6.8353,6.8391,6.8507,6.8391,6.8391,6.8513,6.8337,6.8253,6.832,6.8198,6.8052,6.7885,6.7872,6.7789,6.7673,6.7667,6.7622,6.7699,6.766,6.7814,6.8052,6.8198,6.7738,6.6562,6.912,7.0291,6.9843,6.7251,6.6186,6.6576,6.4416,6.3698,6.4551,6.4622,6.3705,6.1672,6.1589,6.0133,5.7247,5.6978,5.7357,5.8396,5.8467,5.8934,5.9979,6.0089,5.9094,5.667,5.6209,5.6011,5.5901,5.6093,5.5862,5.5708,5.5824,5.6549,5.7846,5.7456,5.7559,5.8936,5.8943,5.8502,5.783,5.8994,5.946,5.888,5.9644,6.0377,6.0262,6.0449,6.0241,5.9769,5.8046,5.613,5.5191,5.536,5.5132,5.4317,5.4293,5.4203,5.334,5.3324,5.3434,5.3544,5.4224,5.5347,5.7072,5.7607,5.8066,5.8821,5.8746,5.813,5.7369,5.7188,5.7188,5.7188,5.7152,5.708,7.8715,7.7946,7.7522,7.6899,7.6015,7.4707,7.4161,7.393,7.1552,6.9975,6.909,6.8205,6.8052,6.8481,6.8546,6.9021,6.9791,6.9791,6.9791,6.9791,6.9829,6.9791,6.9791,6.9823,6.9823,6.9791,6.9829,6.954,6.9129,6.9129,6.8891,6.843,6.8391,6.8391,6.8391,6.8391,6.8391,6.8391,6.8499,6.8334,6.7942,6.8108,6.8031,6.7601,6.4624,6.2974,6.2974,6.1435,6.0967,6.182,6.182,6.1512,6.0858,6.0781,6.0094,5.8594,5.8478,5.8819,5.9588,5.9665,5.9973,6.071,6.0781,6.0171,5.8588,5.8473,5.8478,5.8478,5.8478,5.8473,5.8478,5.8478,5.8781,5.9588,5.9258,5.9276,5.9798,5.9518,5.907,5.8747,5.9613,6.0224,5.9835,6.1332,6.244,6.2433,6.2269,6.1644,6.0342,5.9289,5.8135,5.6853,5.6319,5.594,5.54,5.5249,5.5054,5.4531,5.4509,5.4326,5.4058,5.4737,5.6088,5.7398,5.7935,5.8359,5.9056,5.8712,5.807,5.7406,5.7188,5.7188,5.7152,5.6862,5.6717,8.0054,7.91,7.8869,7.8207,7.7215,7.5861,7.5399,7.5392,7.3783,7.279,7.2091,6.9975,6.9353,6.9937,6.9975,7.0321,7.086,7.0898,7.0898,7.0898,7.0898,7.0975,7.1129,7.1014,7.1091,7.136,7.1091,7.0667,7.0283,7.009,6.9629,6.9007,6.8968,6.8968,6.8968,6.8968,6.8968,6.8968,6.8968,6.8776,6.8353,6.6468,6.5391,6.4974,6.2281,6.055,6.0358,5.9396,5.9242,6.0012,5.9896,6.0165,6.1012,6.0902,6.0781,6.0781,6.0781,6.0781,6.0781,6.0781,6.0781,6.0781,6.0781,6.0781,6.0781,6.0781,6.0781,6.0781,6.0627,6.0666,6.0627,6.071,6.0781,6.0781,6.0746,6.0576,6.0578,6.0131,5.9676,5.957,6.03,6.095,6.1103,6.2555,6.3663,6.3626,6.3578,6.2496,6.0825,6.0496,5.9797,5.8709,5.7421,5.6735,5.6801,5.6282,5.5816,5.5695,5.5548,5.5218,5.5034,5.5868,5.6914,5.7617,5.8324,5.8627,5.8574,5.8497,5.807,5.7406,5.7188,5.7152,5.6862,5.6645,5.6259,8.2285,8.0862,8.0054,7.8746,7.7407,7.7138,7.7445,7.7792,7.6361,7.6092,7.5945,7.2437,7.0744,7.0783,7.0898,7.0975,7.1014,7.0898,7.0975,7.0975,7.0898,7.1321,7.1975,7.1321,7.1745,7.2853,7.1706,7.136,7.1867,7.1168,7.0783,7.0667,7.0667,7.0667,7.0667,7.0667,7.0667,7.0667,7.0667,6.993,6.8468,6.816,6.7667,6.6865,6.5089,6.3737,6.2891,6.1435,6.0979,6.171,6.1095,6.1095,6.1787,6.1248,6.0819,6.0819,6.0819,6.0781,6.0781,6.0781,6.0781,6.0781,6.0781,6.0781,6.0781,6.0781,6.0781,6.0781,6.0781,6.0781,6.0781,6.0819,6.0902,6.0896,6.0885,6.0752,6.0794,6.1237,6.1242,6.0441,6.1666,6.2388,6.1898,6.2602,6.313,6.3222,6.3069,6.2604,6.1666,6.0895,6.0269,5.9655,5.891,5.7957,5.7217,5.6774,5.6455,5.5879,5.5658,5.5658,5.5768,5.6223,5.7011,5.7884,5.8191,5.8566,5.8537,5.8383,5.8094,5.7442,5.7152,5.7007,5.6428,5.6536,5.65,8.3216,8.2477,8.1631,8.0631,7.9554,7.9015,7.8669,7.833,7.6707,7.5938,7.5515,7.3392,7.2976,7.3899,7.3937,7.363,7.3168,7.3122,7.2899,7.2469,7.243,7.2629,7.2899,7.2622,7.2853,7.343,7.2776,7.2629,7.286,7.2622,7.2437,7.243,7.243,7.243,7.243,7.243,7.2437,7.243,7.243,7.186,7.0706,6.9661,6.9013,6.8513,6.6974,6.5705,6.4859,6.3666,6.2974,6.282,6.2468,6.2429,6.2781,6.2474,6.205,6.1595,6.1095,6.0781,6.0781,6.0781,6.0781,6.0781,6.0781,6.0781,6.0781,6.0781,6.0781,6.0781,6.0781,6.0781,6.0864,6.1248,6.1556,6.155,6.1521,6.1472,6.1409,6.16,6.1565,6.1305,6.2608,6.3549,6.3321,6.3679,6.3805,6.3381,6.2915,6.2259,6.1147,6.0597,6.0218,5.9612,5.9164,5.8827,5.824,5.7765,5.7373,5.7127,5.7017,5.6943,5.6492,5.6969,5.773,5.8371,5.8348,5.8422,5.8638,5.8077,5.7615,5.7275,5.7152,5.6971,5.6138,5.6259,5.5812,8.4024,8.3524,8.2901,8.2054,8.1093,8.0669,7.9862,7.8784,7.7553,7.6553,7.5745,7.5353,7.5899,7.6746,7.5899,7.4938,7.4392,7.4392,7.4084,7.3546,7.3738,7.3969,7.4161,7.4161,7.443,7.4745,7.4437,7.4053,7.3853,7.3815,7.3815,7.3815,7.3815,7.393,7.4161,7.4161,7.4046,7.3815,7.3815,7.343,7.2514,7.136,7.0391,6.9667,6.8475,6.7436,6.6628,6.5974,6.5352,6.4737,6.4468,6.4243,6.4006,6.3775,6.3281,6.2512,6.1864,6.1473,6.1473,6.1473,6.1473,6.1473,6.132,6.1133,6.1133,6.0941,6.0819,6.0781,6.0781,6.0864,6.121,6.171,6.2127,6.234,6.2362,6.2311,6.2247,6.2128,6.2067,6.2132,6.299,6.3854,6.3863,6.3976,6.3878,6.3372,6.2859,6.2035,6.0797,6.0635,6.0447,5.9413,5.9196,5.9196,5.9148,5.8425,5.807,5.7997,5.7898,5.7666,5.7214,5.774,5.7999,5.8138,5.798,5.7885,5.8081,5.7655,5.7375,5.7311,5.7297,5.708,5.6174,5.6174,5.5776,8.5055,8.364,8.3563,8.2524,8.117,8.1785,8.1208,7.9631,7.9546,7.9054,7.833,7.89,7.9469,7.9162,7.5661,7.3699,7.3738,7.3969,7.393,7.3892,7.443,7.513,7.5861,7.5938,7.6669,7.7638,7.6515,7.5515,7.4776,7.47,7.463,7.4738,7.4892,7.5168,7.5899,7.6092,7.5553,7.5123,7.4969,7.4361,7.3623,7.3392,7.2161,7.0167,6.9667,6.9167,6.8353,6.8237,6.8122,6.8122,6.7244,6.6551,6.582,6.5013,6.4205,6.3429,6.3237,6.3121,6.3083,6.3045,6.3045,6.3006,6.2403,6.2056,6.1979,6.1441,6.105,6.0864,6.1012,6.1287,6.1979,6.221,6.2494,6.3098,6.315,6.3105,6.3084,6.3002,6.2936,6.2947,6.3157,6.3427,6.3152,6.2953,6.3162,6.307,6.291,6.2416,6.156,6.1459,6.08,5.9782,5.9306,5.9233,5.9148,5.8535,5.807,5.7997,5.796,5.796,5.796,5.7985,5.8,5.799,5.793,5.7787,5.7571,5.7436,5.7386,5.7456,5.7744,5.7442,5.65,5.679,5.6464,8.3832,8.2785,8.2755,8.2131,8.1208,8.14,8.0862,7.9854,7.9815,7.9323,7.8638,7.883,7.8977,7.8869,7.74,7.7015,7.7507,7.7546,7.7246,7.6784,7.7015,7.7284,7.7561,7.7599,7.7861,7.8292,7.7907,7.7445,7.7169,7.713,7.7438,7.7892,7.7977,7.8392,7.9131,7.9285,7.9092,7.8746,7.8246,7.7323,7.5938,7.5399,7.4123,7.2238,7.1591,7.0667,6.9276,6.9244,6.8968,6.843,6.8084,6.7821,6.7475,6.6667,6.582,6.5013,6.4436,6.3891,6.3391,6.3314,6.3314,6.3275,6.3045,6.2858,6.282,6.2589,6.2391,6.2397,6.2397,6.2781,6.3358,6.3205,6.3192,6.3898,6.4014,6.3948,6.3945,6.3824,6.3745,6.3815,6.4129,6.4496,6.4322,6.4281,6.3786,6.3032,6.2673,6.2108,6.1209,6.0878,6.0751,6.0182,5.9967,5.9967,5.9979,5.8804,5.7997,5.7997,5.796,5.796,5.7997,5.7997,5.7999,5.8342,5.8209,5.7993,5.7826,5.7508,5.7482,5.7878,5.8166,5.7732,5.6899,5.7224,5.6862,8.3516,8.2785,8.2716,8.2247,8.1516,8.1477,8.0823,7.9892,7.9777,7.9323,7.8677,7.9061,7.9331,7.9408,7.9592,8.0208,8.0785,7.9939,7.9054,7.8561,7.8792,7.89,7.8977,7.9215,7.9331,7.9408,7.9638,7.9592,7.9408,7.96,8.0015,8.0554,8.0631,8.09,8.14,8.1477,8.1285,8.0708,8.0092,7.9054,7.7784,7.7138,7.6169,7.4861,7.3899,7.2476,7.0591,7.0244,6.986,6.9314,6.9199,6.9084,6.8783,6.8013,6.7282,6.6705,6.6167,6.5429,6.4666,6.4506,6.4436,6.4128,6.3891,6.3737,6.3698,6.3468,6.3314,6.3314,6.3314,6.3654,6.4212,6.4014,6.4046,6.4744,6.4805,6.4761,6.4733,6.4647,6.4588,6.4657,6.5001,6.5261,6.5182,6.4939,6.4356,6.3387,6.3044,6.2431,6.1643,6.1404,6.1162,6.0896,6.0786,6.0603,6.0419,5.9538,5.8767,5.8657,5.8217,5.8143,5.818,5.8143,5.818,5.8584,5.8599,5.8358,5.8044,5.7703,5.7869,5.8288,5.8239,5.7913,5.7623,5.7623,5.7297,8.4286,8.3486,8.3563,8.2862,8.2131,8.2054,8.1285,8.0054,7.9892,7.9515,7.9054,8.0323,8.0939,8.117,8.167,8.2631,8.2639,8.0331,7.9023,7.8946,7.9515,7.9815,7.9815,8.0516,8.09,8.0977,8.1785,8.1785,8.117,8.1708,8.2131,8.2285,8.2324,8.2439,8.2401,8.2554,8.1708,8.0739,8.0392,7.9631,7.8638,7.8484,7.7977,7.7138,7.6284,7.4707,7.2367,7.1475,7.0975,7.086,7.0821,7.0514,6.9738,6.893,6.843,6.8353,6.8314,6.7891,6.7135,6.6942,6.6513,6.5974,6.5166,6.4859,6.4705,6.4122,6.366,6.3622,6.3622,6.3795,6.4469,6.4571,6.4775,6.5416,6.5405,6.5334,6.5344,6.5383,6.5375,6.5337,6.5375,6.5244,6.496,6.4856,6.4527,6.4103,6.3835,6.3569,6.2995,6.2868,6.2711,6.1972,6.1594,6.1447,6.0933,6.0346,5.9893,5.9453,5.8841,5.8474,5.8621,5.8657,5.8547,5.8792,5.8635,5.8431,5.8629,5.8346,5.8426,5.8725,5.8445,5.842,5.842,5.8347,5.7949,8.2939,8.2631,8.2093,8.1708,8.1477,8.1477,8.1131,8.0708,8.0708,8.0554,8.0516,8.1439,8.19,8.2131,8.2793,8.337,8.3447,8.1862,8.1093,8.1054,8.0823,8.0708,8.0785,8.1016,8.1362,8.19,8.217,8.2516,8.2862,8.3139,8.3486,8.3978,8.4093,8.4401,8.4786,8.4901,8.4555,8.4093,8.2978,8.1977,8.1093,7.9977,7.9015,7.8138,7.7323,7.6214,7.4861,7.3437,7.2437,7.1828,7.179,7.1398,7.0629,7.0283,6.986,6.936,6.9283,6.8891,6.816,6.8013,6.7891,6.7583,6.7314,6.6891,6.6397,6.6058,6.559,6.5205,6.5089,6.5231,6.5404,6.5429,6.553,6.5608,6.5537,6.5487,6.5527,6.5489,6.5421,6.5413,6.5413,6.5322,6.5196,6.504,6.4595,6.4124,6.3894,6.3572,6.3206,6.3173,6.299,6.2487,6.2401,6.2254,6.1802,6.1398,6.1006,6.0444,5.9795,5.9171,5.9245,5.9281,5.9134,5.9013,5.8807,5.8785,5.8981,5.9088,5.9156,5.939,5.9483,5.9434,5.9289,5.9059,5.8782,8.3054,8.2747,8.2247,8.2024,8.2016,8.2016,8.2016,8.2016,8.2016,8.2016,8.217,8.2901,8.3247,8.3362,8.3824,8.4247,8.4362,8.3332,8.2939,8.3016,8.2016,8.1708,8.2016,8.2401,8.2939,8.367,8.4055,8.4478,8.4978,8.5332,8.5756,8.6209,8.5978,8.5863,8.6055,8.5778,8.5555,8.5055,8.4101,8.3332,8.2631,8.1439,8.0477,7.9831,7.8823,7.7977,7.7323,7.5784,7.4207,7.2937,7.2399,7.1937,7.1398,7.1052,7.0667,7.0283,7.009,6.9744,6.9007,6.8891,6.8699,6.8507,6.8391,6.816,6.7667,6.759,6.7282,6.6936,6.6821,6.6699,6.6397,6.6595,6.6521,6.6071,6.5714,6.5678,6.584,6.6178,6.6338,6.6384,6.6251,6.5909,6.5457,6.5001,6.4444,6.3856,6.3671,6.3685,6.337,6.3332,6.3282,6.3172,6.2866,6.2756,6.2719,6.2426,6.2071,6.152,6.0896,6.0309,6.0003,6.0003,5.9942,5.9783,5.9601,5.9578,5.9712,5.9698,5.9754,6.0098,6.0452,6.0231,6.0036,6.0036,5.9747,8.4555,8.3793,8.3678,8.3563,8.3486,8.3447,8.3409,8.3524,8.3486,8.3447,8.3632,8.4247,8.4739,8.4816,8.4863,8.5286,8.567,8.4401,8.4209,8.4362,8.3478,8.2862,8.337,8.3901,8.4593,8.5593,8.6324,8.694,8.6978,8.7448,8.8564,8.8094,8.7286,8.6863,8.6132,8.5363,8.4824,8.4294,8.387,8.3717,8.364,8.2793,8.2285,8.217,8.0862,7.9977,7.9431,7.7977,7.6015,7.3853,7.2822,7.236,7.2136,7.1475,7.1206,7.1014,7.0975,7.0552,6.9975,6.9744,6.9513,6.8891,6.8814,6.8468,6.8507,6.8468,6.8353,6.8122,6.8122,6.791,6.7402,6.7657,6.7665,6.6955,6.6336,6.6215,6.6728,6.7362,6.7491,6.7526,6.7388,6.6777,6.5695,6.5165,6.441,6.3798,6.391,6.4116,6.4165,6.4163,6.4163,6.3943,6.3673,6.3392,6.338,6.3209,6.2842,6.2205,6.1741,6.1398,6.0884,6.0823,6.0676,6.0517,6.0469,6.0408,6.042,6.0503,6.0644,6.1002,6.1079,6.0923,6.0846,6.0873,6.0557,8.6247,8.5401,8.4824,8.4209,8.364,8.3601,8.364,8.3601,8.3678,8.3909,8.387,8.4516,8.5047,8.497,8.5555,8.5901,8.5824,8.5132,8.5401,8.6324,8.5016,8.3939,8.3678,8.3862,8.4555,8.5401,8.5978,8.6209,8.7248,8.7248,8.7325,8.7709,8.7055,8.6401,8.6055,8.5901,8.5709,8.5363,8.4824,8.4555,8.4401,8.3717,8.3255,8.3216,8.2747,8.19,8.0785,7.9092,7.7015,7.4584,7.3623,7.3168,7.3168,7.2892,7.2437,7.1937,7.179,7.1475,7.0783,7.0552,7.0437,7.0321,7.009,6.9968,6.9391,6.9353,6.9045,6.8622,6.8391,6.8346,6.8134,6.8243,6.8136,6.7901,6.7523,6.7355,6.7569,6.7744,6.7771,6.7455,6.736,6.6985,6.637,6.5866,6.5415,6.5015,6.4942,6.5007,6.5007,6.4971,6.4971,6.4971,6.4738,6.431,6.4053,6.387,6.3503,6.2829,6.2536,6.2462,6.1985,6.1704,6.1484,6.1263,6.13,6.1251,6.1422,6.1528,6.1792,6.1847,6.1766,6.166,6.1728,6.1715,6.1285,8.7632,8.7171,8.6709,8.6209,8.5794,8.5717,8.5756,8.5833,8.6132,8.6247,8.6286,8.6363,8.6478,8.6517,8.6247,8.6094,8.6094,8.6401,8.7055,8.7709,8.7709,8.6978,8.617,8.6017,8.6709,8.7393,8.7124,8.7816,8.8632,8.7786,8.7709,8.8132,8.7248,8.6671,8.6671,8.6247,8.6094,8.5978,8.5624,8.5393,8.5324,8.4593,8.4209,8.4055,8.3832,8.2901,8.1593,8.0285,7.8554,7.6592,7.5238,7.4546,7.4469,7.3815,7.3276,7.2745,7.2437,7.1944,7.1514,7.1129,7.0898,7.0898,7.0898,7.0667,7.0321,7.0206,6.9898,6.959,6.9475,6.9283,6.9,6.8876,6.896,6.922,6.9077,6.8822,6.8508,6.8776,6.8801,6.8598,6.8373,6.794,6.7196,6.6702,6.6218,6.5792,6.5676,6.5744,6.5815,6.5815,6.5778,6.5778,6.5508,6.5044,6.4787,6.464,6.4457,6.382,6.3196,6.316,6.2793,6.2438,6.2218,6.2034,6.2071,6.212,6.2155,6.2226,6.226,6.2316,6.2344,6.2315,6.2275,6.2158,6.1765,8.891,8.8833,8.8833,8.8795,8.8564,8.8641,8.8402,8.8863,8.9056,8.9509,8.9517,8.8979,8.8556,8.8833,8.7363,8.6517,8.6709,8.7825,8.8487,8.9248,9.0017,9.0364,8.9094,8.8979,8.9402,8.9902,8.9932,9.0124,9.021,8.9363,8.9286,8.9402,8.8402,8.7555,8.7209,8.6632,8.6247,8.6094,8.6017,8.594,8.5863,8.5363,8.5055,8.4901,8.4247,8.3593,8.2708,8.1747,8.0562,7.8946,7.7207,7.6361,7.6092,7.4784,7.4046,7.3822,7.3322,7.2829,7.2283,7.1745,7.1206,7.1206,7.1129,7.0937,7.086,7.0744,7.0706,7.0591,7.086,7.0398,6.9955,6.9659,6.9855,7.0218,7.0308,6.9941,6.9598,6.9903,7.0298,7.0205,6.9787,6.9079,6.8238,6.7465,6.6889,6.6527,6.6468,6.6589,6.6623,6.6623,6.6623,6.6623,6.6219,6.5668,6.5508,6.5435,6.5251,6.4884,6.409,6.3686,6.3246,6.2952,6.2793,6.2683,6.2511,6.2499,6.2597,6.2668,6.2641,6.259,6.25,6.2449,6.2433,6.2328,6.2017,9.0287,8.9624,8.9624,8.9286,8.8756,8.8718,8.9094,8.9633,8.9171,8.9902,9.0364,8.9402,8.9517,9.0517,8.8863,8.8479,8.8709,8.894,8.8979,8.994,9.2133,9.2556,9.1518,9.0748,8.9825,8.9633,8.9171,8.9825,9.0594,9.0402,9.0047,9.0624,8.9825,8.8709,8.7632,8.744,8.6748,8.6247,8.6162,8.617,8.617,8.594,8.5747,8.5709,8.5016,8.4585,8.4247,8.3516,8.2562,8.1208,7.9438,7.8138,7.7792,7.7476,7.6669,7.563,7.5207,7.4553,7.3514,7.2969,7.2591,7.1975,7.179,7.1636,7.0937,7.0898,7.0898,7.0898,7.0898,7.086,7.0692,7.0496,7.0577,7.0685,7.0374,7.0001,6.9757,6.9833,6.9634,6.9144,6.8882,6.8487,6.7875,6.7764,6.7408,6.72,6.721,6.7407,6.737,6.7333,6.726,6.7187,6.699,6.6512,6.6292,6.6182,6.5949,6.5729,6.5007,6.4347,6.3906,6.3417,6.3306,6.305,6.2756,6.2793,6.2793,6.278,6.273,6.2692,6.2641,6.259,6.2526,6.241,6.2344,9.0941,9.0509,9.0509,9.0248,8.9902,8.9902,9.0133,9.0479,9.0556,9.0979,9.1402,9.0402,9.0402,9.1018,8.9556,8.894,8.9517,9.0287,9.1402,9.2864,9.4403,9.4403,9.3749,9.2787,9.1873,9.1103,9.0671,9.1287,9.1787,9.1248,9.0979,9.1672,9.0941,9.0171,8.921,8.8748,8.8393,8.7863,8.7055,8.6709,8.6709,8.6286,8.6094,8.6094,8.5701,8.547,8.5363,8.467,8.4055,8.3208,8.1823,8.0246,7.9285,7.9092,7.8438,7.7407,7.6284,7.5745,7.4815,7.393,7.3276,7.286,7.2476,7.1982,7.1475,7.1168,7.0898,7.1014,7.1245,7.1514,7.1545,7.1884,7.1765,7.1291,7.0975,7.0653,7.0346,6.984,6.9323,6.8837,6.8814,6.8562,6.8222,6.7954,6.7747,6.7487,6.7444,6.7554,6.759,6.7554,6.759,6.7554,6.759,6.7407,6.7136,6.6916,6.6659,6.6329,6.5852,6.5264,6.4751,6.4261,6.382,6.3453,6.3086,6.2829,6.2793,6.2793,6.2829,6.2755,6.2717,6.2705,6.2654,6.2565,6.2513,9.1201,9.1201,9.1201,9.1201,9.1201,9.1124,9.1201,9.1518,9.2018,9.2172,9.2441,9.1672,9.121,9.1248,8.994,8.9218,8.9979,9.1748,9.3749,9.5172,9.5711,9.5595,9.5095,9.4826,9.4527,9.4018,9.271,9.2826,9.2903,9.2326,9.1902,9.2402,9.1825,9.1133,9.0941,9.0316,8.9509,8.9056,8.7902,8.744,8.7325,8.6671,8.6132,8.6094,8.6055,8.5978,8.5863,8.5393,8.497,8.4901,8.4286,8.2747,8.1093,8.0323,7.9862,7.9023,7.7823,7.7053,7.6322,7.5168,7.4238,7.3892,7.3129,7.2598,7.2329,7.1898,7.1629,7.1668,7.2014,7.2399,7.2437,7.2705,7.2716,7.228,7.1995,7.1676,7.1115,7.0074,6.9413,6.8926,6.8723,6.8502,6.8272,6.8033,6.7941,6.781,6.7754,6.77,6.77,6.77,6.77,6.77,6.77,6.77,6.748,6.737,6.7136,6.688,6.6476,6.6035,6.5521,6.4958,6.4407,6.3783,6.3417,6.3233,6.3013,6.2903,6.2903,6.2829,6.278,6.2755,6.273,6.2692,6.2691,9.1201,9.1201,9.1201,9.1201,9.1201,9.1201,9.1595,9.2095,9.1672,9.2249,9.3095,9.1941,9.1941,9.2402,9.1518,9.1171,9.1902,9.345,9.4681,9.548,9.5942,9.6095,9.6019,9.5903,9.5865,9.5288,9.398,9.3287,9.3518,9.2826,9.3018,9.3249,9.2826,9.221,9.1441,9.0393,8.994,8.9479,8.8325,8.7979,8.8055,8.7055,8.6247,8.6209,8.617,8.6094,8.6094,8.594,8.5593,8.5008,8.5401,8.4555,8.3324,8.287,8.2139,8.09,8.0092,7.9169,7.813,7.7176,7.6322,7.563,7.4784,7.4014,7.3553,7.3122,7.2853,7.2892,7.3053,7.3283,7.3276,7.345,7.3321,7.2985,7.2685,7.2391,7.1997,7.1106,6.9901,6.9364,6.895,6.8479,6.8297,6.8096,6.7954,6.781,6.7741,6.77,6.77,6.77,6.77,6.77,6.77,6.77,6.7627,6.7627,6.7517,6.7333,6.7003,6.6673,6.6145,6.5595,6.5031,6.4861,6.4347,6.398,6.3686,6.338,6.327,6.338,6.316,6.2903,6.3098,6.3329,6.2975,9.1201,9.1201,9.1201,9.1201,9.1201,9.1201,9.1441,9.171,9.1402,9.1633,9.1979,9.1595,9.1864,9.2479,9.1825,9.1902,9.3133,9.3835,9.4835,9.5518,9.6095,9.6288,9.6326,9.6326,9.6288,9.598,9.5057,9.4557,9.498,9.4749,9.4557,9.4864,9.4595,9.4018,9.3172,9.2402,9.1402,9.0517,8.9402,8.8825,8.9094,8.7632,8.6901,8.6671,8.6324,8.6132,8.6094,8.6094,8.594,8.567,8.5901,8.5593,8.5132,8.467,8.4132,8.2631,8.1631,8.0823,7.9746,7.8754,7.7676,7.7292,7.6515,7.5938,7.5322,7.4745,7.4046,7.3738,7.3969,7.393,7.3546,7.4163,7.4403,7.4029,7.3672,7.3531,7.3228,7.2356,7.1375,7.0277,6.9577,6.9019,6.8309,6.8122,6.7967,6.7823,6.7754,6.7777,6.7804,6.7811,6.7884,6.7958,6.7994,6.7884,6.7811,6.7737,6.77,6.7554,6.7444,6.7113,6.693,6.6476,6.6476,6.6549,6.5888,6.4947,6.464,6.4444,6.4224,6.4004,6.4077,6.4114,6.4004,6.3894,6.36,9.171,9.171,9.171,9.171,9.1672,9.1518,9.1479,9.1441,9.1518,9.1402,9.1201,9.1402,9.1787,9.2056,9.2133,9.2479,9.3749,9.4018,9.5134,9.6019,9.6519,9.6557,9.6596,9.6749,9.6942,9.7057,9.6519,9.6365,9.5711,9.5634,9.5903,9.5595,9.5788,9.5634,9.472,9.345,9.3133,9.221,9.0816,8.9893,8.9325,8.8556,8.7671,8.7401,8.6709,8.6401,8.6478,8.6478,8.6632,8.6594,8.6555,8.6363,8.6324,8.617,8.5478,8.4132,8.2516,8.1708,8.0939,7.9708,7.8715,7.8592,7.7946,7.7599,7.7176,7.6092,7.5014,7.4315,7.4507,7.4784,7.4514,7.5207,7.5447,7.5133,7.4865,7.4781,7.4496,7.3866,7.3069,7.1931,7.066,6.9799,6.9274,6.8885,6.8876,6.8309,6.821,6.8351,6.8362,6.8181,6.8201,6.8325,6.8325,6.8141,6.7994,6.7811,6.7774,6.7664,6.7627,6.7444,6.748,6.7444,6.7517,6.7397,6.688,6.6035,6.5778,6.5375,6.4921,6.4811,6.5141,6.5141,6.4774,6.4554,6.4371,9.3403,9.3412,9.3403,9.3403,9.321,9.2556,9.2287,9.2249,9.2249,9.1902,9.1364,9.1941,9.1979,9.1864,9.2903,9.3403,9.4095,9.5134,9.5942,9.648,9.7057,9.7326,9.7442,9.8211,9.8057,9.8019,9.7634,9.648,9.5903,9.5605,9.5297,9.5249,9.4941,9.4335,9.4874,9.3835,9.2633,9.2249,9.0855,8.971,8.921,8.9325,8.8671,8.7863,8.7363,8.7248,8.7248,8.7286,8.7478,8.8055,8.7517,8.7248,8.7132,8.6478,8.617,8.5401,8.4324,8.2978,8.217,8.0746,7.9785,7.9669,7.8977,7.8484,7.8099,7.7599,7.6592,7.5822,7.5822,7.5592,7.5361,7.5784,7.5892,7.5793,7.5595,7.5603,7.548,7.4919,7.4188,7.3768,7.2557,7.1418,7.0556,7.0206,6.9855,6.9177,6.8719,6.8951,6.9062,6.9004,6.8991,6.9178,6.9013,6.8788,6.8531,6.8311,6.8054,6.7884,6.7737,6.7774,6.7884,6.7921,6.7841,6.7657,6.729,6.7035,6.6646,6.6191,6.5597,6.5582,6.5925,6.5692,6.5251,6.5141,6.5141,9.5018,9.371,9.3672,9.3441,9.2979,9.2633,9.221,9.1941,9.2287,9.2287,9.2056,9.2287,9.2249,9.2249,9.3249,9.395,9.4595,9.5749,9.6557,9.7096,9.775,9.798,9.775,9.8288,9.8634,9.8481,9.8557,9.849,9.722,9.6172,9.5749,9.5711,9.5365,9.5134,9.5181,9.4335,9.3681,9.3018,9.2018,9.0979,9.0325,8.994,8.9586,8.8816,8.8402,8.8179,8.8141,8.8141,8.8295,8.8526,8.7863,8.7401,8.7209,8.6632,8.6094,8.6008,8.5016,8.4209,8.367,8.2093,8.14,8.1016,8.0439,7.9823,7.9361,7.8823,7.7784,7.6092,7.6476,7.6322,7.5745,7.5745,7.5938,7.6,7.597,7.597,7.5894,7.5649,7.5156,7.4842,7.4443,7.3184,7.203,7.153,7.1001,7.0224,7.006,7.0405,7.0395,7.0252,7.0262,7.0282,6.9968,6.9559,6.9302,6.9045,6.8678,6.8421,6.7921,6.7994,6.8238,6.8265,6.8309,6.8349,6.8233,6.7937,6.7578,6.7141,6.6704,6.6639,6.6659,6.6439,6.6219,6.6035,6.599,9.6249,9.4364,9.4326,9.398,9.3441,9.321,9.2826,9.2326,9.2903,9.3018,9.2826,9.2826,9.2826,9.3018,9.371,9.4566,9.5365,9.6211,9.7057,9.7865,9.8557,9.8721,9.8788,9.9019,9.9211,9.8365,9.9058,9.9221,9.8673,9.7634,9.6711,9.6903,9.6942,9.648,9.5835,9.5297,9.4758,9.3557,9.3018,9.2402,9.1825,9.1018,9.0586,9.0047,8.9517,8.8979,8.8987,8.8979,8.9017,8.9286,8.8372,8.7863,8.7709,8.6786,8.617,8.6008,8.5401,8.5201,8.4632,8.3632,8.2824,8.2362,8.1785,8.0862,7.9862,7.9738,7.9131,7.6976,7.6899,7.6515,7.5861,7.5899,7.5861,7.5976,7.5969,7.5976,7.6007,7.5871,7.5625,7.5192,7.4846,7.4664,7.3657,7.2941,7.2197,7.1329,7.135,7.1792,7.176,7.1607,7.1713,7.1752,7.1087,7.0672,7.0434,7.0035,6.9586,6.9086,6.8586,6.8508,6.8912,6.9067,6.9064,6.9082,6.9211,6.911,6.8912,6.8357,6.7823,6.7437,6.7223,6.7444,6.7333,6.7076,6.7016,9.698,9.6095,9.6095,9.598,9.5788,9.5172,9.472,9.4296,9.4604,9.4258,9.3672,9.3642,9.3633,9.3826,9.445,9.5297,9.6249,9.7057,9.7865,9.875,9.9481,9.9721,9.975,10.0096,10.0635,10.0202,9.9673,9.9452,9.9413,9.8173,9.8019,9.8481,9.825,9.7942,9.7211,9.6288,9.5518,9.4557,9.4057,9.3864,9.3403,9.271,9.1979,9.1133,9.0355,8.9816,8.9816,8.9816,9.0047,9.0594,8.921,8.8449,8.8141,8.6901,8.6209,8.6017,8.597,8.5778,8.544,8.4478,8.3678,8.3255,8.267,8.1708,8.0669,8.0046,7.9246,7.8477,7.813,7.7484,7.6945,7.6592,7.6707,7.6784,7.6938,7.6784,7.6669,7.6284,7.5979,7.5498,7.5207,7.5048,7.492,7.4134,7.3347,7.2496,7.2515,7.2931,7.307,7.3026,7.3276,7.32,7.2361,7.1934,7.1708,7.1259,7.0637,7.0169,6.9757,6.9733,6.994,6.994,6.9653,7.03,7.0497,7.0401,7.0203,6.972,6.9075,6.8112,6.7801,6.8165,6.8252,6.7981,6.8156,9.8288,9.7019,9.6509,9.598,9.548,9.5143,9.4681,9.4373,9.4758,9.4835,9.4566,9.4489,9.4489,9.4643,9.4835,9.5749,9.7019,9.7904,9.8788,9.9596,10.0327,10.0173,10.0096,10.0019,9.9981,9.9365,9.8788,9.8875,9.9067,9.8404,9.8952,9.9221,9.8981,9.7904,9.7134,9.7057,9.6557,9.6249,9.5865,9.5826,9.5134,9.4441,9.3633,9.2749,9.1941,9.121,9.0816,9.071,9.0941,9.0671,8.9517,8.9026,8.8564,8.7094,8.6363,8.617,8.617,8.617,8.5978,8.5016,8.4209,8.364,8.3255,8.2747,8.1862,8.1631,8.0977,8.0169,7.9285,7.8669,7.8023,7.8207,7.8515,7.8354,7.8161,7.7938,7.7592,7.7284,7.6793,7.6506,7.5959,7.5521,7.5421,7.5271,7.4448,7.3693,7.3889,7.3989,7.4052,7.4013,7.4097,7.4033,7.3191,7.2895,7.2708,7.2186,7.1627,7.1276,7.0983,7.1014,7.1004,7.0211,7.0146,7.0994,7.1642,7.1449,7.1266,7.1073,7.029,6.9075,6.8812,6.9028,6.9015,6.8928,6.9248,9.8875,9.7519,9.7173,9.6403,9.548,9.5643,9.5403,9.5057,9.5835,9.6143,9.6143,9.6105,9.6143,9.6143,9.622,9.6951,9.8288,9.9211,10.0058,10.0904,10.152,10.1096,10.0596,10.0327,10.0404,9.875,9.8404,9.8827,9.8865,9.8557,9.8596,9.8798,9.899,9.8173,9.8057,9.7634,9.7788,9.7557,9.7442,9.7096,9.6249,9.5365,9.4758,9.3873,9.2941,9.2172,9.1595,9.1325,9.1086,9.0787,9.0017,8.921,8.8594,8.7825,8.6901,8.6594,8.6478,8.6401,8.6017,8.5593,8.4863,8.4247,8.4055,8.3824,8.3516,8.3024,8.2216,8.1439,8.0631,7.9939,7.9254,7.9477,7.9746,7.9546,7.9746,7.9554,7.9169,7.8784,7.8169,7.7647,7.7086,7.6647,7.6007,7.5893,7.5286,7.4628,7.4485,7.4533,7.45,7.4441,7.4369,7.4214,7.3792,7.3673,7.3638,7.3152,7.2766,7.2707,7.241,7.2273,7.2034,7.1249,7.1202,7.2347,7.2759,7.2526,7.2425,7.2389,7.1293,6.9924,7.0,7.0202,7.0153,7.0153,7.0399,9.8365,9.7673,9.8327,9.7711,9.6403,9.7096,9.7365,9.725,9.8019,9.8327,9.8173,9.8298,9.8442,9.8481,9.8298,9.899,9.9942,10.0789,10.1558,10.2404,10.2712,10.2866,10.2366,10.1712,10.0712,10.0029,9.9259,9.8788,9.8788,9.8288,9.8019,9.8365,9.9019,9.9173,9.9798,9.9106,9.8327,9.7673,9.7634,9.7211,9.6634,9.5912,9.5566,9.4951,9.3903,9.3133,9.2672,9.1825,9.1556,9.1248,9.0316,8.9701,8.9509,8.8825,8.8017,8.744,8.7401,8.6978,8.6247,8.6124,8.567,8.5016,8.4863,8.4632,8.3947,8.3524,8.3332,8.2631,8.1747,8.1208,8.0785,8.0623,8.0931,8.1054,8.1285,8.1323,8.0939,8.0246,7.9669,7.8746,7.8438,7.8108,7.7162,7.6407,7.5978,7.5521,7.5216,7.5104,7.5142,7.4814,7.4623,7.4497,7.4199,7.4177,7.4132,7.4135,7.3951,7.392,7.3726,7.3433,7.3278,7.2833,7.3106,7.3836,7.38,7.35,7.3646,7.3791,7.279,7.1943,7.1403,7.1421,7.1352,7.1392,7.1586,9.8827,9.7596,9.8442,9.8134,9.7288,9.798,9.8365,9.8404,9.8634,9.8481,9.8173,9.8481,9.9183,9.949,9.976,10.0375,10.1558,10.1904,10.2635,10.3328,10.3366,10.2443,10.202,10.1597,10.0596,9.949,9.8865,9.8904,9.8788,9.8365,9.8798,9.9298,9.9481,9.9865,9.9211,9.8481,9.7904,9.8288,9.8365,9.8211,9.7942,9.7519,9.7096,9.6566,9.5441,9.4557,9.3941,9.2749,9.2056,9.171,9.074,9.0047,8.9893,8.9248,8.8679,8.8295,8.8218,8.7863,8.7209,8.6901,8.6555,8.6017,8.5593,8.5478,8.5247,8.4709,8.4324,8.3901,8.3093,8.2516,8.1939,8.2939,8.3362,8.3016,8.3054,8.317,8.2824,8.1939,8.1131,7.9977,7.9361,7.9054,7.8346,7.7792,7.7305,7.6785,7.6441,7.6197,7.6164,7.5285,7.4814,7.4745,7.4623,7.4623,7.4602,7.4644,7.4602,7.4491,7.4347,7.4141,7.4049,7.3951,7.4029,7.4234,7.4401,7.4509,7.4553,7.4633,7.47,7.4258,7.3326,7.2805,7.2804,7.2756,7.2797,9.9452,9.8481,9.9019,9.8942,9.8519,9.9029,9.9365,9.9558,9.9365,9.8913,9.8711,9.9327,9.975,10.0144,10.0481,10.0866,10.2174,10.252,10.3058,10.3789,10.3712,10.3366,10.2751,10.1827,10.1481,10.0135,9.9558,9.9558,9.8827,9.8788,9.899,9.9442,10.0173,9.9596,9.8942,9.8634,9.8365,9.8519,9.8327,9.8481,9.825,9.8096,9.8096,9.7634,9.6826,9.5788,9.4835,9.3796,9.2633,9.1979,9.1171,9.0355,9.0171,8.9902,8.9402,8.9248,8.8756,8.844,8.7987,8.7401,8.7017,8.6632,8.6324,8.6094,8.6055,8.5555,8.5124,8.4739,8.4362,8.3862,8.3516,8.4739,8.4709,8.4286,8.4516,8.4593,8.4401,8.3516,8.2939,8.1708,8.09,8.04,7.9823,7.9269,7.8838,7.8283,7.7725,7.753,7.7203,7.6222,7.5447,7.5418,7.5228,7.5114,7.5152,7.5234,7.5179,7.5038,7.4865,7.4735,7.4654,7.4529,7.4602,7.4623,7.4616,7.4786,7.5197,7.5368,7.5219,7.5024,7.4553,7.4237,7.4298,7.4072,7.384,10.0067,10.0029,10.0067,9.999,9.9913,9.9721,10.025,10.1048,10.0375,10.0029,10.0067,10.0712,10.0904,10.0519,10.1058,10.1664,10.2135,10.2751,10.352,10.402,10.4366,10.4492,10.4405,10.3982,10.2366,10.151,10.0933,10.0173,9.9058,9.9288,9.9327,9.9211,9.9673,9.9442,9.9365,9.9298,9.8981,9.8519,9.8481,9.8481,9.8211,9.8057,9.8481,9.8288,9.775,9.6711,9.5681,9.4643,9.3172,9.221,9.1402,9.1325,9.1248,9.1248,9.0701,9.0047,8.9286,8.9056,8.8679,8.8094,8.7517,8.7171,8.6632,8.6286,8.6055,8.594,8.5662,8.5316,8.4978,8.4893,8.4893,8.5085,8.5239,8.5363,8.5709,8.5747,8.5709,8.5247,8.4747,8.4016,8.3285,8.267,8.1823,8.1208,8.0585,8.0515,7.9996,7.933,7.8765,7.7313,7.6669,7.6462,7.6166,7.5686,7.5735,7.6033,7.5863,7.58,7.543,7.5216,7.516,7.5057,7.4971,7.4912,7.4786,7.4961,7.5365,7.5509,7.5462,7.5259,7.5054,7.4961,7.4793,7.4773,7.4596,9.9375,9.8404,9.9567,9.9375,9.8327,9.8288,9.9096,10.0298,10.0183,10.0106,10.0144,10.0943,10.1327,10.1943,10.2751,10.3328,10.4059,10.4828,10.5318,10.5405,10.4751,10.4405,10.3982,10.3443,10.2174,10.1664,10.1279,10.1173,10.0664,10.0471,10.0481,10.0635,10.0442,10.0212,10.0019,9.999,9.9442,9.8981,9.9029,9.8673,9.8711,9.8865,9.9336,9.9298,9.9029,9.8057,9.7326,9.6095,9.4672,9.3326,9.3018,9.2826,9.2133,9.2095,9.1748,9.097,9.0556,9.0287,8.9663,8.9316,8.8709,8.7786,8.7209,8.6671,8.6363,8.6132,8.6017,8.5709,8.5547,8.547,8.5316,8.5431,8.547,8.5585,8.5893,8.6055,8.6017,8.5863,8.544,8.5016,8.4362,8.4016,8.3285,8.2939,8.2439,8.2562,8.2253,8.1434,8.0353,7.8918,7.7871,7.7667,7.7275,7.6858,7.6867,7.7117,7.681,7.6564,7.6122,7.5719,7.5489,7.5392,7.529,7.5312,7.5361,7.5341,7.5418,7.5548,7.5739,7.5548,7.5324,7.5345,7.5338,7.5255,7.518,9.9981,9.9096,9.8981,9.8836,9.8519,9.8173,9.9173,10.0606,9.9673,9.9375,10.0106,10.0596,10.1289,10.2058,10.2828,10.3482,10.3905,10.4559,10.5213,10.5328,10.4828,10.4943,10.4251,10.3712,10.3289,10.2635,10.2135,10.2058,10.1548,10.1317,10.1241,10.1241,10.151,10.1481,10.1366,10.1568,10.1529,10.076,10.0106,9.9481,9.9558,9.9875,10.0144,10.0366,10.0135,9.9375,9.8788,9.7403,9.6134,9.4826,9.4557,9.4027,9.3287,9.2941,9.2441,9.1672,9.121,9.0902,9.0432,9.0009,8.9316,8.8632,8.8094,8.7709,8.7094,8.6709,8.6324,8.5978,8.597,8.597,8.5816,8.5709,8.5585,8.5508,8.5778,8.6055,8.6094,8.6094,8.5786,8.544,8.5132,8.4863,8.4516,8.4286,8.4055,8.3824,8.3486,8.2838,8.1867,8.0643,7.9497,7.8897,7.8467,7.806,7.8168,7.8097,7.7598,7.7152,7.6673,7.6279,7.5956,7.5952,7.6144,7.61,7.6036,7.5985,7.5879,7.5968,7.6044,7.59,7.5803,7.5797,7.5733,7.5562,7.5515,10.1164,10.075,9.8481,9.8404,9.976,9.8981,9.9942,10.1904,9.9211,9.8711,10.0221,10.0375,10.1058,10.2174,10.2981,10.3289,10.3866,10.452,10.5251,10.5223,10.5069,10.5136,10.5405,10.5905,10.3982,10.3712,10.3405,10.252,10.1712,10.1394,10.1356,10.1394,10.1904,10.202,10.1943,10.2404,10.2443,10.2327,10.1135,10.026,10.0337,10.0452,10.0481,10.0856,10.0135,9.9096,9.8827,9.8134,9.7288,9.6442,9.5788,9.5297,9.4373,9.371,9.3018,9.2287,9.1787,9.1556,9.1133,9.0633,9.0278,8.971,8.9286,8.8709,8.8017,8.7132,8.6632,8.6401,8.6363,8.6132,8.594,8.594,8.5863,8.5778,8.594,8.6094,8.6094,8.6094,8.5978,8.5747,8.567,8.544,8.5401,8.5132,8.4978,8.4824,8.4593,8.414,8.3362,8.2239,8.1423,8.0454,7.9977,7.9646,7.9338,7.9122,7.833,7.7799,7.7406,7.7029,7.6821,7.6911,7.7048,7.7028,7.6931,7.6582,7.6411,7.6649,7.6773,7.6505,7.6429,7.6317,7.6232,7.6164,7.5947,10.0558,9.925,9.7365,9.7557,9.8904,9.8173,9.8981,10.0606,9.9913,10.0442,10.175,10.202,10.2404,10.3212,10.3905,10.4289,10.452,10.502,10.579,10.5751,10.5482,10.5136,10.4751,10.5059,10.3828,10.2674,10.2327,10.2674,10.2174,10.175,10.1673,10.2135,10.2289,10.2058,10.2135,10.2558,10.2751,10.3251,10.202,10.1366,10.1673,10.1289,10.1125,10.1164,10.0558,10.0135,9.9865,9.9529,9.8481,9.748,9.7134,9.6249,9.5027,9.4566,9.371,9.2749,9.2364,9.2172,9.1902,9.1402,9.1018,9.0624,9.0133,8.9402,8.8594,8.7632,8.7055,8.6863,8.6632,8.6324,8.6094,8.6094,8.6094,8.6094,8.6094,8.6094,8.6132,8.617,8.617,8.617,8.617,8.6094,8.6047,8.597,8.5893,8.5778,8.5739,8.5401,8.4824,8.397,8.3508,8.2662,8.1854,8.1423,8.0969,8.0269,7.9546,7.9023,7.8638,7.8191,7.7753,7.7667,7.7703,7.7916,7.7875,7.7518,7.7394,7.7743,7.7705,7.7288,7.7241,7.7263,7.7241,7.722,7.6837,10.075,9.975,9.8096,9.8365,9.9712,9.9788,10.0519,10.1722,10.2145,10.2828,10.3443,10.3097,10.3289,10.4289,10.4915,10.5146,10.529,10.5982,10.6213,10.6136,10.5944,10.5597,10.5136,10.4751,10.4097,10.302,10.2135,10.2058,10.2443,10.1943,10.1741,10.2828,10.2597,10.252,10.2751,10.2981,10.3058,10.3674,10.2481,10.2251,10.2558,10.1866,10.1317,10.1279,10.0943,10.0673,10.0673,10.0404,9.9827,9.8981,9.8557,9.748,9.6288,9.5335,9.4566,9.3835,9.3296,9.2864,9.2595,9.2326,9.1864,9.1402,9.1364,9.0787,9.0017,8.9094,8.794,8.7671,8.7132,8.6824,8.6247,8.6094,8.6094,8.6094,8.617,8.6247,8.6555,8.6824,8.6824,8.6824,8.6594,8.6094,8.6055,8.6055,8.5978,8.6017,8.6055,8.6055,8.5593,8.5286,8.4978,8.4439,8.3401,8.2901,8.2477,8.1747,8.0892,8.0369,7.993,7.9461,7.9053,7.8567,7.8327,7.8703,7.8802,7.8522,7.8522,7.8793,7.8462,7.7998,7.8083,7.8245,7.827,7.8256,7.7922,10.1125,10.0789,9.9635,9.9981,10.1443,10.2212,10.3058,10.3982,10.4723,10.5069,10.502,10.3789,10.4135,10.4828,10.5251,10.5261,10.5482,10.6097,10.6356,10.6395,10.6318,10.5674,10.5597,10.5751,10.4559,10.3289,10.2174,10.2404,10.2866,10.2251,10.2366,10.3674,10.4059,10.4184,10.4761,10.4905,10.4636,10.4251,10.3482,10.2751,10.2327,10.1827,10.1433,10.101,10.075,10.0673,10.0827,10.0866,10.075,10.0327,9.9635,9.8404,9.7326,9.6211,9.5412,9.472,9.4143,9.3642,9.3249,9.3287,9.2633,9.2172,9.2402,9.2018,9.1171,9.0287,8.9133,8.8402,8.7902,8.7363,8.6786,8.6517,8.6517,8.6363,8.6478,8.644,8.6863,8.7286,8.7325,8.7286,8.6748,8.617,8.6324,8.6286,8.6209,8.6209,8.617,8.6132,8.6017,8.5824,8.5593,8.5016,8.4209,8.3862,8.3747,8.2978,8.2016,8.1862,8.1423,8.0892,8.0346,7.9868,7.9598,7.9752,7.9728,7.9733,7.964,7.978,7.9325,7.8963,7.9188,7.9481,7.9358,7.9327,7.9065,10.0519,9.9365,10.0366,10.1443,10.2327,10.2558,10.3443,10.4761,10.503,10.5482,10.5867,10.5982,10.5972,10.6136,10.6136,10.6097,10.5982,10.6356,10.6356,10.6395,10.6395,10.5559,10.5059,10.5328,10.4289,10.3135,10.2251,10.2404,10.3174,10.2828,10.3174,10.4751,10.4097,10.4069,10.4145,10.4289,10.4405,10.4212,10.3597,10.2635,10.2828,10.2289,10.1433,10.1202,10.1173,10.1173,10.1212,10.1173,10.1173,10.0943,10.0327,9.9096,9.8057,9.7096,9.6288,9.5528,9.4989,9.4604,9.4326,9.4134,9.3518,9.3018,9.2941,9.2249,9.1556,9.1095,9.0133,8.9547,8.9017,8.8526,8.8064,8.8055,8.8017,8.7478,8.7325,8.6901,8.6863,8.7171,8.7363,8.7055,8.6555,8.6671,8.7132,8.6978,8.6671,8.6594,8.6478,8.644,8.6324,8.6209,8.6132,8.5555,8.4939,8.4777,8.4624,8.3901,8.317,8.3101,8.287,8.2216,8.1631,8.1131,8.0992,8.1084,8.1284,8.1383,8.126,8.1036,8.086,8.0629,8.0653,8.0707,8.0538,8.0245,7.9875]}]]